Wetterdaten: Montag, 17.07.2017
Datum Zeit Temp. A. Pool Temp. Feuchte A. Luftdruck Regen Wind Richtung Richtung Sonnenschein ET UV Solar Taupunkt Windchill Windben Empfang
17.07.2017 00:00 15,6 C 21,7 C 70 % 1021,8 hPa 0,0 l/m 5,4 km/h (1 Bft) S-SW 194 0 min 0,000 mm 0,0 UV-I 0 W/m 10,1 C 15,6 C 9,7 km/h (2 Bft) 96,23 %
17.07.2017 00:02 15,6 C 21,7 C 70 % 1021,8 hPa 0,0 l/m 5,5 km/h (1 Bft) S-SW 194 0 min 0,000 mm 0,0 UV-I 0 W/m 10,1 C 15,6 C 8,0 km/h (2 Bft) 90,91 %
17.07.2017 00:04 15,6 C 21,7 C 70 % 1021,8 hPa 0,0 l/m 4,9 km/h (1 Bft) S-SW 205 0 min 0,000 mm 0,0 UV-I 0 W/m 10,1 C 15,6 C 8,0 km/h (2 Bft) 98,11 %
17.07.2017 00:06 15,5 C 21,7 C 70 % 1021,8 hPa 0,0 l/m 6,2 km/h (2 Bft) S-SW 202 0 min 0,000 mm 0,0 UV-I 0 W/m 10,1 C 15,5 C 9,7 km/h (2 Bft) 100,00 %
17.07.2017 00:08 15,4 C 21,7 C 70 % 1021,8 hPa 0,0 l/m 4,7 km/h (1 Bft) S-SW 202 0 min 0,000 mm 0,0 UV-I 0 W/m 10,0 C 15,4 C 8,0 km/h (2 Bft) 97,87 %
17.07.2017 00:10 15,4 C 21,7 C 70 % 1021,8 hPa 0,0 l/m 4,6 km/h (1 Bft) S-SW 202 0 min 0,000 mm 0,0 UV-I 0 W/m 10,0 C 15,4 C 8,0 km/h (2 Bft) 96,00 %
17.07.2017 00:12 15,4 C 21,7 C 70 % 1021,8 hPa 0,0 l/m 4,1 km/h (1 Bft) S 188 0 min 0,000 mm 0,0 UV-I 0 W/m 10,0 C 15,4 C 6,4 km/h (2 Bft) 97,87 %
17.07.2017 00:14 15,3 C 21,7 C 71 % 1021,8 hPa 0,0 l/m 5,0 km/h (1 Bft) S 188 0 min 0,000 mm 0,0 UV-I 0 W/m 10,1 C 15,3 C 8,0 km/h (2 Bft) 95,45 %
17.07.2017 00:16 15,3 C 21,7 C 71 % 1021,8 hPa 0,0 l/m 5,5 km/h (1 Bft) S 189 0 min 0,000 mm 0,0 UV-I 0 W/m 10,1 C 15,3 C 8,0 km/h (2 Bft) 97,87 %
17.07.2017 00:18 15,3 C 21,7 C 71 % 1021,8 hPa 0,0 l/m 5,4 km/h (1 Bft) S 188 0 min 0,000 mm 0,0 UV-I 0 W/m 10,1 C 15,3 C 9,7 km/h (2 Bft) 98,11 %
17.07.2017 00:20 15,2 C 21,7 C 71 % 1021,8 hPa 0,0 l/m 5,2 km/h (1 Bft) S-SW 204 0 min 0,000 mm 0,0 UV-I 0 W/m 10,0 C 15,2 C 8,0 km/h (2 Bft) 97,37 %
17.07.2017 00:22 15,2 C 21,7 C 71 % 1021,8 hPa 0,0 l/m 5,1 km/h (1 Bft) S-SW 192 0 min 0,000 mm 0,0 UV-I 0 W/m 10,0 C 15,2 C 6,4 km/h (2 Bft) 95,74 %
17.07.2017 00:24 15,2 C 21,7 C 72 % 1021,8 hPa 0,0 l/m 5,2 km/h (1 Bft) SW 219 0 min 0,000 mm 0,0 UV-I 0 W/m 10,2 C 15,2 C 8,0 km/h (2 Bft) 98,00 %
17.07.2017 00:26 15,1 C 21,7 C 72 % 1021,8 hPa 0,0 l/m 6,3 km/h (2 Bft) SW 215 0 min 0,000 mm 0,0 UV-I 0 W/m 10,1 C 15,1 C 9,7 km/h (2 Bft) 100,00 %
17.07.2017 00:28 15,0 C 21,7 C 72 % 1021,8 hPa 0,0 l/m 5,6 km/h (1 Bft) S-SW 211 0 min 0,000 mm 0,0 UV-I 0 W/m 10,0 C 15,0 C 8,0 km/h (2 Bft) 98,00 %
17.07.2017 00:30 14,9 C 21,7 C 72 % 1021,8 hPa 0,0 l/m 6,1 km/h (2 Bft) S-SW 198 0 min 0,000 mm 0,0 UV-I 0 W/m 9,9 C 14,9 C 9,7 km/h (2 Bft) 100,00 %
17.07.2017 00:32 14,9 C 21,7 C 73 % 1021,8 hPa 0,0 l/m 5,6 km/h (1 Bft) S 179 0 min 0,000 mm 0,0 UV-I 0 W/m 10,1 C 14,9 C 8,0 km/h (2 Bft) 98,00 %
17.07.2017 00:34 14,8 C 21,7 C 73 % 1021,8 hPa 0,0 l/m 4,6 km/h (1 Bft) S 190 0 min 0,000 mm 0,0 UV-I 0 W/m 10,0 C 14,8 C 6,4 km/h (2 Bft) 98,00 %
17.07.2017 00:36 14,8 C 21,7 C 73 % 1021,8 hPa 0,0 l/m 3,7 km/h (1 Bft) S 189 0 min 0,000 mm 0,0 UV-I 0 W/m 10,0 C 14,8 C 8,0 km/h (2 Bft) 95,74 %
17.07.2017 00:38 14,8 C 21,7 C 73 % 1021,8 hPa 0,0 l/m 3,7 km/h (1 Bft) S 185 0 min 0,000 mm 0,0 UV-I 0 W/m 10,0 C 14,8 C 6,4 km/h (2 Bft) 98,00 %
17.07.2017 00:40 14,8 C 21,7 C 73 % 1021,8 hPa 0,0 l/m 3,2 km/h (1 Bft) S 185 0 min 0,000 mm 0,0 UV-I 0 W/m 10,0 C 14,8 C 6,4 km/h (2 Bft) 96,00 %
17.07.2017 00:42 14,7 C 21,7 C 73 % 1021,8 hPa 0,0 l/m 3,9 km/h (1 Bft) S 178 0 min 0,000 mm 0,0 UV-I 0 W/m 9,9 C 14,7 C 6,4 km/h (2 Bft) 97,62 %
17.07.2017 00:44 14,7 C 21,7 C 73 % 1021,8 hPa 0,0 l/m 4,4 km/h (1 Bft) S 181 0 min 0,000 mm 0,0 UV-I 0 W/m 9,9 C 14,7 C 6,4 km/h (2 Bft) 97,87 %
17.07.2017 00:46 14,7 C 21,7 C 73 % 1021,8 hPa 0,0 l/m 4,8 km/h (1 Bft) S 181 0 min 0,000 mm 0,0 UV-I 0 W/m 9,9 C 14,7 C 6,4 km/h (2 Bft) 94,34 %
17.07.2017 00:48 14,7 C 21,7 C 73 % 1021,7 hPa 0,0 l/m 4,7 km/h (1 Bft) S 174 0 min 0,000 mm 0,0 UV-I 0 W/m 9,9 C 14,7 C 6,4 km/h (2 Bft) 100,00 %
17.07.2017 00:50 14,7 C 21,7 C 73 % 1021,8 hPa 0,0 l/m 3,7 km/h (1 Bft) S 174 0 min 0,000 mm 0,0 UV-I 0 W/m 9,9 C 14,7 C 4,8 km/h (1 Bft) 97,14 %
17.07.2017 00:52 14,7 C 21,7 C 74 % 1021,8 hPa 0,0 l/m 4,0 km/h (1 Bft) S 174 0 min 0,000 mm 0,0 UV-I 0 W/m 10,1 C 14,7 C 8,0 km/h (2 Bft) 100,00 %
17.07.2017 00:54 14,6 C 21,7 C 74 % 1021,8 hPa 0,0 l/m 4,6 km/h (1 Bft) S 189 0 min 0,000 mm 0,0 UV-I 0 W/m 10,0 C 14,6 C 6,4 km/h (2 Bft) 95,74 %
17.07.2017 00:56 14,5 C 21,7 C 74 % 1021,8 hPa 0,0 l/m 3,8 km/h (1 Bft) S 188 0 min 0,000 mm 0,0 UV-I 0 W/m 9,9 C 14,5 C 4,8 km/h (1 Bft) 98,00 %
17.07.2017 00:58 14,4 C 21,7 C 74 % 1021,8 hPa 0,0 l/m 3,8 km/h (1 Bft) S 186 0 min 0,000 mm 0,0 UV-I 0 W/m 9,8 C 14,4 C 6,4 km/h (2 Bft) 97,37 %
17.07.2017 01:00 14,4 C 21,7 C 74 % 1021,7 hPa 0,0 l/m 3,5 km/h (1 Bft) S 187 0 min 0,025 mm 0,0 UV-I 0 W/m 9,8 C 14,4 C 6,4 km/h (2 Bft) 96,23 %
17.07.2017 01:02 14,4 C 21,7 C 74 % 1021,7 hPa 0,0 l/m 4,8 km/h (1 Bft) S 187 0 min 0,000 mm 0,0 UV-I 0 W/m 9,8 C 14,4 C 6,4 km/h (2 Bft) 95,45 %
17.07.2017 01:04 14,4 C 21,7 C 74 % 1021,7 hPa 0,0 l/m 4,0 km/h (1 Bft) S 188 0 min 0,000 mm 0,0 UV-I 0 W/m 9,8 C 14,4 C 8,0 km/h (2 Bft) 98,11 %
17.07.2017 01:06 14,4 C 21,7 C 74 % 1021,7 hPa 0,0 l/m 4,8 km/h (1 Bft) S 186 0 min 0,000 mm 0,0 UV-I 0 W/m 9,8 C 14,4 C 8,0 km/h (2 Bft) 100,00 %
17.07.2017 01:08 14,5 C 21,7 C 74 % 1021,6 hPa 0,0 l/m 4,7 km/h (1 Bft) S-SW 201 0 min 0,000 mm 0,0 UV-I 0 W/m 9,9 C 14,5 C 8,0 km/h (2 Bft) 98,21 %
17.07.2017 01:10 14,5 C 21,7 C 74 % 1021,6 hPa 0,0 l/m 5,0 km/h (1 Bft) S-SW 201 0 min 0,000 mm 0,0 UV-I 0 W/m 9,9 C 14,5 C 6,4 km/h (2 Bft) 91,49 %
17.07.2017 01:12 14,4 C 21,7 C 74 % 1021,6 hPa 0,0 l/m 3,9 km/h (1 Bft) S-SW 201 0 min 0,000 mm 0,0 UV-I 0 W/m 9,8 C 14,4 C 6,4 km/h (2 Bft) 95,74 %
17.07.2017 01:14 14,4 C 21,7 C 74 % 1021,6 hPa 0,0 l/m 3,9 km/h (1 Bft) S-SW 201 0 min 0,000 mm 0,0 UV-I 0 W/m 9,8 C 14,4 C 6,4 km/h (2 Bft) 95,12 %
17.07.2017 01:16 14,3 C 21,7 C 74 % 1021,6 hPa 0,0 l/m 4,7 km/h (1 Bft) S-SW 194 0 min 0,000 mm 0,0 UV-I 0 W/m 9,7 C 14,3 C 6,4 km/h (2 Bft) 94,00 %
17.07.2017 01:18 14,3 C 21,7 C 74 % 1021,6 hPa 0,0 l/m 5,0 km/h (1 Bft) S-SW 194 0 min 0,000 mm 0,0 UV-I 0 W/m 9,7 C 14,3 C 8,0 km/h (2 Bft) 92,31 %
17.07.2017 01:20 14,2 C 21,7 C 74 % 1021,6 hPa 0,0 l/m 4,5 km/h (1 Bft) S-SW 194 0 min 0,000 mm 0,0 UV-I 0 W/m 9,6 C 14,2 C 6,4 km/h (2 Bft) 92,00 %
17.07.2017 01:22 14,2 C 21,7 C 75 % 1021,6 hPa 0,0 l/m 4,8 km/h (1 Bft) S-SW 194 0 min 0,000 mm 0,0 UV-I 0 W/m 9,8 C 14,2 C 9,7 km/h (2 Bft) 92,31 %
17.07.2017 01:24 14,2 C 21,7 C 75 % 1021,6 hPa 0,0 l/m 5,3 km/h (1 Bft) S-SW 208 0 min 0,000 mm 0,0 UV-I 0 W/m 9,8 C 14,2 C 9,7 km/h (2 Bft) 91,67 %
17.07.2017 01:26 14,2 C 21,7 C 75 % 1021,6 hPa 0,0 l/m 4,1 km/h (1 Bft) S 182 0 min 0,000 mm 0,0 UV-I 0 W/m 9,8 C 14,2 C 8,0 km/h (2 Bft) 92,68 %
17.07.2017 01:28 14,2 C 21,7 C 75 % 1021,6 hPa 0,0 l/m 4,0 km/h (1 Bft) S-SW 195 0 min 0,000 mm 0,0 UV-I 0 W/m 9,8 C 14,2 C 6,4 km/h (2 Bft) 94,34 %
17.07.2017 01:30 14,2 C 21,7 C 75 % 1021,5 hPa 0,0 l/m 4,9 km/h (1 Bft) S-SW 192 0 min 0,000 mm 0,0 UV-I 0 W/m 9,8 C 14,2 C 6,4 km/h (2 Bft) 91,67 %
17.07.2017 01:32 14,2 C 21,7 C 75 % 1021,5 hPa 0,0 l/m 3,8 km/h (1 Bft) S-SW 201 0 min 0,000 mm 0,0 UV-I 0 W/m 9,8 C 14,2 C 6,4 km/h (2 Bft) 95,12 %
17.07.2017 01:34 14,2 C 21,7 C 75 % 1021,5 hPa 0,0 l/m 3,3 km/h (1 Bft) S-SW 201 0 min 0,000 mm 0,0 UV-I 0 W/m 9,8 C 14,2 C 4,8 km/h (1 Bft) 94,34 %
17.07.2017 01:36 14,2 C 21,7 C 75 % 1021,5 hPa 0,0 l/m 4,1 km/h (1 Bft) S 171 0 min 0,000 mm 0,0 UV-I 0 W/m 9,8 C 14,2 C 8,0 km/h (2 Bft) 93,62 %
17.07.2017 01:38 14,2 C 21,7 C 75 % 1021,5 hPa 0,0 l/m 3,7 km/h (1 Bft) S 171 0 min 0,000 mm 0,0 UV-I 0 W/m 9,8 C 14,2 C 8,0 km/h (2 Bft) 94,74 %
17.07.2017 01:40 14,2 C 21,7 C 75 % 1021,4 hPa 0,0 l/m 4,8 km/h (1 Bft) S 186 0 min 0,000 mm 0,0 UV-I 0 W/m 9,8 C 14,2 C 6,4 km/h (2 Bft) 92,86 %
17.07.2017 01:42 14,2 C 21,7 C 75 % 1021,4 hPa 0,0 l/m 3,6 km/h (1 Bft) S 181 0 min 0,000 mm 0,0 UV-I 0 W/m 9,8 C 14,2 C 6,4 km/h (2 Bft) 89,47 %
17.07.2017 01:44 14,2 C 21,7 C 74 % 1021,5 hPa 0,0 l/m 3,5 km/h (1 Bft) S 174 0 min 0,000 mm 0,0 UV-I 0 W/m 9,6 C 14,2 C 8,0 km/h (2 Bft) 93,62 %
17.07.2017 01:46 14,2 C 21,7 C 74 % 1021,5 hPa 0,0 l/m 3,8 km/h (1 Bft) S 174 0 min 0,000 mm 0,0 UV-I 0 W/m 9,6 C 14,2 C 4,8 km/h (1 Bft) 85,11 %
17.07.2017 01:48 14,1 C 21,7 C 74 % 1021,5 hPa 0,0 l/m 3,5 km/h (1 Bft) S 174 0 min 0,000 mm 0,0 UV-I 0 W/m 9,5 C 14,1 C 4,8 km/h (1 Bft) 95,83 %
17.07.2017 01:50 14,1 C 21,7 C 74 % 1021,5 hPa 0,0 l/m 3,4 km/h (1 Bft) S 174 0 min 0,000 mm 0,0 UV-I 0 W/m 9,5 C 14,1 C 4,8 km/h (1 Bft) 93,62 %
17.07.2017 01:52 14,1 C 21,7 C 75 % 1021,5 hPa 0,0 l/m 3,5 km/h (1 Bft) S 174 0 min 0,000 mm 0,0 UV-I 0 W/m 9,7 C 14,1 C 4,8 km/h (1 Bft) 91,49 %
17.07.2017 01:54 14,1 C 21,7 C 75 % 1021,5 hPa 0,0 l/m 3,0 km/h (1 Bft) S 174 0 min 0,000 mm 0,0 UV-I 0 W/m 9,7 C 14,1 C 4,8 km/h (1 Bft) 96,00 %
17.07.2017 01:56 14,0 C 21,7 C 75 % 1021,5 hPa 0,0 l/m 4,2 km/h (1 Bft) S 175 0 min 0,000 mm 0,0 UV-I 0 W/m 9,6 C 14,0 C 8,0 km/h (2 Bft) 94,87 %
17.07.2017 01:58 13,9 C 21,7 C 76 % 1021,5 hPa 0,0 l/m 4,9 km/h (1 Bft) S-SW 210 0 min 0,000 mm 0,0 UV-I 0 W/m 9,7 C 13,9 C 6,4 km/h (2 Bft) 95,83 %
17.07.2017 02:00 13,8 C 21,7 C 76 % 1021,5 hPa 0,0 l/m 4,7 km/h (1 Bft) S-SW 211 0 min 0,026 mm 0,0 UV-I 0 W/m 9,6 C 13,8 C 6,4 km/h (2 Bft) 94,00 %
17.07.2017 02:02 13,7 C 21,7 C 77 % 1021,5 hPa 0,0 l/m 4,8 km/h (1 Bft) S-SW 211 0 min 0,000 mm 0,0 UV-I 0 W/m 9,7 C 13,7 C 6,4 km/h (2 Bft) 93,62 %
17.07.2017 02:04 13,7 C 21,7 C 77 % 1021,5 hPa 0,0 l/m 5,8 km/h (2 Bft) S-SW 207 0 min 0,000 mm 0,0 UV-I 0 W/m 9,7 C 13,7 C 8,0 km/h (2 Bft) 96,00 %
17.07.2017 02:06 13,6 C 21,7 C 77 % 1021,5 hPa 0,0 l/m 6,9 km/h (2 Bft) S-SW 211 0 min 0,000 mm 0,0 UV-I 0 W/m 9,6 C 13,3 C 9,7 km/h (2 Bft) 92,00 %
17.07.2017 02:08 13,6 C 21,7 C 77 % 1021,5 hPa 0,0 l/m 8,1 km/h (2 Bft) S-SW 202 0 min 0,000 mm 0,0 UV-I 0 W/m 9,6 C 12,6 C 9,7 km/h (2 Bft) 97,56 %
17.07.2017 02:10 13,6 C 21,7 C 77 % 1021,5 hPa 0,0 l/m 7,8 km/h (2 Bft) SW 226 0 min 0,000 mm 0,0 UV-I 0 W/m 9,6 C 12,7 C 11,3 km/h (2 Bft) 96,23 %
17.07.2017 02:12 13,6 C 21,7 C 77 % 1021,5 hPa 0,0 l/m 5,2 km/h (1 Bft) SW 214 0 min 0,000 mm 0,0 UV-I 0 W/m 9,6 C 13,6 C 8,0 km/h (2 Bft) 94,74 %
17.07.2017 02:14 13,5 C 21,1 C 77 % 1021,5 hPa 0,0 l/m 5,8 km/h (2 Bft) S-SW 204 0 min 0,000 mm 0,0 UV-I 0 W/m 9,5 C 13,5 C 9,7 km/h (2 Bft) 97,73 %
17.07.2017 02:16 13,5 C 21,1 C 77 % 1021,4 hPa 0,0 l/m 7,3 km/h (2 Bft) S-SW 205 0 min 0,000 mm 0,0 UV-I 0 W/m 9,5 C 12,9 C 9,7 km/h (2 Bft) 94,34 %
17.07.2017 02:18 13,4 C 21,1 C 77 % 1021,4 hPa 0,0 l/m 6,1 km/h (2 Bft) S-SO 160 0 min 0,000 mm 0,0 UV-I 0 W/m 9,5 C 13,4 C 8,0 km/h (2 Bft) 100,00 %
17.07.2017 02:20 13,4 C 21,1 C 77 % 1021,4 hPa 0,0 l/m 5,9 km/h (2 Bft) SW 218 0 min 0,000 mm 0,0 UV-I 0 W/m 9,5 C 13,4 C 8,0 km/h (2 Bft) 98,00 %
17.07.2017 02:22 13,4 C 21,1 C 77 % 1021,4 hPa 0,0 l/m 4,7 km/h (1 Bft) S 172 0 min 0,000 mm 0,0 UV-I 0 W/m 9,5 C 13,4 C 8,0 km/h (2 Bft) 100,00 %
17.07.2017 02:24 13,4 C 21,1 C 77 % 1021,4 hPa 0,0 l/m 5,1 km/h (1 Bft) S-SW 210 0 min 0,000 mm 0,0 UV-I 0 W/m 9,5 C 13,4 C 8,0 km/h (2 Bft) 95,12 %
17.07.2017 02:26 13,4 C 21,1 C 77 % 1021,4 hPa 0,0 l/m 6,6 km/h (2 Bft) S-SW 202 0 min 0,000 mm 0,0 UV-I 0 W/m 9,5 C 13,3 C 9,7 km/h (2 Bft) 100,00 %
17.07.2017 02:28 13,5 C 21,1 C 77 % 1021,4 hPa 0,0 l/m 4,1 km/h (1 Bft) S 190 0 min 0,000 mm 0,0 UV-I 0 W/m 9,5 C 13,5 C 9,7 km/h (2 Bft) 94,34 %
17.07.2017 02:30 13,6 C 21,1 C 77 % 1021,4 hPa 0,0 l/m 6,2 km/h (2 Bft) S-SW 208 0 min 0,000 mm 0,0 UV-I 0 W/m 9,6 C 13,6 C 8,0 km/h (2 Bft) 100,00 %
17.07.2017 02:32 13,6 C 21,1 C 77 % 1021,4 hPa 0,0 l/m 5,1 km/h (1 Bft) S-SW 202 0 min 0,000 mm 0,0 UV-I 0 W/m 9,6 C 13,6 C 9,7 km/h (2 Bft) 97,37 %
17.07.2017 02:34 13,6 C 21,1 C 76 % 1021,3 hPa 0,0 l/m 5,7 km/h (1 Bft) SW 220 0 min 0,000 mm 0,0 UV-I 0 W/m 9,4 C 13,6 C 11,3 km/h (2 Bft) 94,34 %
17.07.2017 02:36 13,7 C 21,1 C 76 % 1021,3 hPa 0,0 l/m 6,6 km/h (2 Bft) S-SW 213 0 min 0,000 mm 0,0 UV-I 0 W/m 9,5 C 13,6 C 9,7 km/h (2 Bft) 96,00 %
17.07.2017 02:38 13,7 C 21,1 C 76 % 1021,3 hPa 0,0 l/m 6,3 km/h (2 Bft) SW 216 0 min 0,000 mm 0,0 UV-I 0 W/m 9,5 C 13,7 C 14,5 km/h (3 Bft) 95,45 %
17.07.2017 02:40 13,7 C 21,1 C 76 % 1021,3 hPa 0,0 l/m 2,9 km/h (1 Bft) S-SW 213 0 min 0,000 mm 0,0 UV-I 0 W/m 9,5 C 13,7 C 8,0 km/h (2 Bft) 97,62 %
17.07.2017 02:42 13,7 C 21,1 C 76 % 1021,3 hPa 0,0 l/m 4,7 km/h (1 Bft) S-SW 198 0 min 0,000 mm 0,0 UV-I 0 W/m 9,5 C 13,7 C 8,0 km/h (2 Bft) 98,11 %
17.07.2017 02:44 13,7 C 21,1 C 76 % 1021,3 hPa 0,0 l/m 4,8 km/h (1 Bft) S-SW 192 0 min 0,000 mm 0,0 UV-I 0 W/m 9,5 C 13,7 C 8,0 km/h (2 Bft) 97,37 %
17.07.2017 02:46 13,7 C 21,1 C 76 % 1021,3 hPa 0,0 l/m 5,5 km/h (1 Bft) S-SO 168 0 min 0,000 mm 0,0 UV-I 0 W/m 9,5 C 13,7 C 9,7 km/h (2 Bft) 96,00 %
17.07.2017 02:48 13,7 C 21,1 C 76 % 1021,3 hPa 0,0 l/m 3,4 km/h (1 Bft) S 178 0 min 0,000 mm 0,0 UV-I 0 W/m 9,5 C 13,7 C 8,0 km/h (2 Bft) 100,00 %
17.07.2017 02:50 13,7 C 21,1 C 76 % 1021,3 hPa 0,0 l/m 4,4 km/h (1 Bft) S 180 0 min 0,000 mm 0,0 UV-I 0 W/m 9,5 C 13,7 C 6,4 km/h (2 Bft) 98,00 %
17.07.2017 02:52 13,7 C 21,1 C 76 % 1021,3 hPa 0,0 l/m 4,9 km/h (1 Bft) S 188 0 min 0,000 mm 0,0 UV-I 0 W/m 9,5 C 13,7 C 8,0 km/h (2 Bft) 97,56 %
17.07.2017 02:54 13,6 C 21,1 C 76 % 1021,3 hPa 0,0 l/m 5,5 km/h (1 Bft) S 185 0 min 0,000 mm 0,0 UV-I 0 W/m 9,4 C 13,6 C 9,7 km/h (2 Bft) 100,00 %
17.07.2017 02:56 13,6 C 21,1 C 76 % 1021,2 hPa 0,0 l/m 5,1 km/h (1 Bft) S 185 0 min 0,000 mm 0,0 UV-I 0 W/m 9,4 C 13,6 C 9,7 km/h (2 Bft) 97,37 %
17.07.2017 02:58 13,6 C 21,1 C 77 % 1021,2 hPa 0,0 l/m 6,0 km/h (2 Bft) S-SW 204 0 min 0,000 mm 0,0 UV-I 0 W/m 9,6 C 13,6 C 9,7 km/h (2 Bft) 100,00 %
17.07.2017 03:00 13,5 C 21,1 C 77 % 1021,2 hPa 0,0 l/m 4,2 km/h (1 Bft) S-SW 194 0 min 0,025 mm 0,0 UV-I 0 W/m 9,5 C 13,5 C 8,0 km/h (2 Bft) 98,11 %
17.07.2017 03:02 13,5 C 21,1 C 77 % 1021,2 hPa 0,0 l/m 3,7 km/h (1 Bft) S 190 0 min 0,000 mm 0,0 UV-I 0 W/m 9,5 C 13,5 C 6,4 km/h (2 Bft) 97,37 %
17.07.2017 03:04 13,4 C 21,1 C 77 % 1021,2 hPa 0,0 l/m 3,7 km/h (1 Bft) S-SW 192 0 min 0,000 mm 0,0 UV-I 0 W/m 9,5 C 13,4 C 8,0 km/h (2 Bft) 96,23 %
17.07.2017 03:06 13,4 C 21,1 C 77 % 1021,3 hPa 0,0 l/m 5,0 km/h (1 Bft) S-SW 199 0 min 0,000 mm 0,0 UV-I 0 W/m 9,5 C 13,4 C 8,0 km/h (2 Bft) 95,74 %
17.07.2017 03:08 13,4 C 21,1 C 77 % 1021,3 hPa 0,0 l/m 3,7 km/h (1 Bft) S-SW 198 0 min 0,000 mm 0,0 UV-I 0 W/m 9,5 C 13,4 C 8,0 km/h (2 Bft) 98,00 %
17.07.2017 03:10 13,3 C 21,1 C 77 % 1021,3 hPa 0,0 l/m 4,9 km/h (1 Bft) S-SW 196 0 min 0,000 mm 0,0 UV-I 0 W/m 9,4 C 13,3 C 9,7 km/h (2 Bft) 97,37 %
17.07.2017 03:12 13,3 C 21,1 C 77 % 1021,3 hPa 0,0 l/m 3,6 km/h (1 Bft) S 175 0 min 0,000 mm 0,0 UV-I 0 W/m 9,4 C 13,3 C 6,4 km/h (2 Bft) 96,23 %
17.07.2017 03:14 13,3 C 21,1 C 77 % 1021,3 hPa 0,0 l/m 3,5 km/h (1 Bft) S-SW 200 0 min 0,000 mm 0,0 UV-I 0 W/m 9,4 C 13,3 C 8,0 km/h (2 Bft) 97,56 %
17.07.2017 03:16 13,3 C 21,1 C 77 % 1021,3 hPa 0,0 l/m 4,0 km/h (1 Bft) S 170 0 min 0,000 mm 0,0 UV-I 0 W/m 9,4 C 13,3 C 6,4 km/h (2 Bft) 96,00 %
17.07.2017 03:18 13,3 C 21,1 C 77 % 1021,2 hPa 0,0 l/m 3,6 km/h (1 Bft) S-SW 199 0 min 0,000 mm 0,0 UV-I 0 W/m 9,4 C 13,3 C 8,0 km/h (2 Bft) 96,00 %
17.07.2017 03:20 13,3 C 21,1 C 77 % 1021,2 hPa 0,0 l/m 3,6 km/h (1 Bft) S 181 0 min 0,000 mm 0,0 UV-I 0 W/m 9,4 C 13,3 C 8,0 km/h (2 Bft) 97,87 %
17.07.2017 03:22 13,3 C 21,1 C 77 % 1021,2 hPa 0,0 l/m 3,1 km/h (1 Bft) S 181 0 min 0,000 mm 0,0 UV-I 0 W/m 9,4 C 13,3 C 4,8 km/h (1 Bft) 97,44 %
17.07.2017 03:24 13,3 C 21,1 C 77 % 1021,2 hPa 0,0 l/m 3,3 km/h (1 Bft) S 182 0 min 0,000 mm 0,0 UV-I 0 W/m 9,4 C 13,3 C 6,4 km/h (2 Bft) 97,87 %
17.07.2017 03:26 13,3 C 21,1 C 76 % 1021,1 hPa 0,0 l/m 3,9 km/h (1 Bft) S 190 0 min 0,000 mm 0,0 UV-I 0 W/m 9,2 C 13,3 C 8,0 km/h (2 Bft) 95,45 %
17.07.2017 03:28 13,3 C 21,1 C 76 % 1021,1 hPa 0,0 l/m 3,6 km/h (1 Bft) S 184 0 min 0,000 mm 0,0 UV-I 0 W/m 9,2 C 13,3 C 6,4 km/h (2 Bft) 92,00 %
17.07.2017 03:30 13,3 C 21,1 C 76 % 1021,1 hPa 0,0 l/m 4,1 km/h (1 Bft) S-SW 200 0 min 0,000 mm 0,0 UV-I 0 W/m 9,2 C 13,3 C 8,0 km/h (2 Bft) 97,87 %
17.07.2017 03:32 13,4 C 21,1 C 76 % 1021,1 hPa 0,0 l/m 4,2 km/h (1 Bft) S 183 0 min 0,000 mm 0,0 UV-I 0 W/m 9,3 C 13,4 C 8,0 km/h (2 Bft) 96,00 %
17.07.2017 03:34 13,4 C 21,1 C 76 % 1021,1 hPa 0,0 l/m 4,7 km/h (1 Bft) S 182 0 min 0,000 mm 0,0 UV-I 0 W/m 9,3 C 13,4 C 8,0 km/h (2 Bft) 96,00 %
17.07.2017 03:36 13,4 C 21,1 C 76 % 1021,1 hPa 0,0 l/m 4,6 km/h (1 Bft) S-SO 166 0 min 0,000 mm 0,0 UV-I 0 W/m 9,3 C 13,4 C 9,7 km/h (2 Bft) 94,74 %
17.07.2017 03:38 13,4 C 21,1 C 76 % 1021,1 hPa 0,0 l/m 4,9 km/h (1 Bft) S-SW 199 0 min 0,000 mm 0,0 UV-I 0 W/m 9,3 C 13,4 C 8,0 km/h (2 Bft) 98,21 %
17.07.2017 03:40 13,4 C 21,1 C 76 % 1021,1 hPa 0,0 l/m 5,5 km/h (1 Bft) SW 220 0 min 0,000 mm 0,0 UV-I 0 W/m 9,3 C 13,4 C 8,0 km/h (2 Bft) 93,18 %
17.07.2017 03:42 13,4 C 21,1 C 76 % 1021,1 hPa 0,0 l/m 4,3 km/h (1 Bft) S-SW 200 0 min 0,000 mm 0,0 UV-I 0 W/m 9,3 C 13,4 C 8,0 km/h (2 Bft) 93,18 %
17.07.2017 03:44 13,4 C 21,1 C 76 % 1021,1 hPa 0,0 l/m 4,7 km/h (1 Bft) SW 217 0 min 0,000 mm 0,0 UV-I 0 W/m 9,3 C 13,4 C 8,0 km/h (2 Bft) 94,34 %
17.07.2017 03:46 13,3 C 21,1 C 76 % 1021,1 hPa 0,0 l/m 5,8 km/h (2 Bft) S 189 0 min 0,000 mm 0,0 UV-I 0 W/m 9,2 C 13,3 C 9,7 km/h (2 Bft) 94,74 %
17.07.2017 03:48 13,3 C 21,1 C 76 % 1021,1 hPa 0,0 l/m 4,6 km/h (1 Bft) S-SW 192 0 min 0,000 mm 0,0 UV-I 0 W/m 9,2 C 13,3 C 8,0 km/h (2 Bft) 96,00 %
17.07.2017 03:50 13,3 C 21,1 C 76 % 1021,1 hPa 0,0 l/m 3,2 km/h (1 Bft) S-SW 192 0 min 0,000 mm 0,0 UV-I 0 W/m 9,2 C 13,3 C 4,8 km/h (1 Bft) 98,00 %
17.07.2017 03:52 13,2 C 21,1 C 76 % 1021,1 hPa 0,0 l/m 2,6 km/h (1 Bft) S-SW 192 0 min 0,000 mm 0,0 UV-I 0 W/m 9,1 C 13,2 C 6,4 km/h (2 Bft) 100,00 %
17.07.2017 03:54 13,2 C 21,1 C 76 % 1021,1 hPa 0,0 l/m 2,8 km/h (1 Bft) S-SW 192 0 min 0,000 mm 0,0 UV-I 0 W/m 9,1 C 13,2 C 6,4 km/h (2 Bft) 95,52 %
17.07.2017 03:56 13,2 C 21,1 C 77 % 1021,1 hPa 0,0 l/m 3,4 km/h (1 Bft) S-SW 192 0 min 0,000 mm 0,0 UV-I 0 W/m 9,3 C 13,2 C 4,8 km/h (1 Bft) 96,23 %
17.07.2017 03:58 13,1 C 21,1 C 77 % 1021,1 hPa 0,0 l/m 3,0 km/h (1 Bft) S-SW 192 0 min 0,000 mm 0,0 UV-I 0 W/m 9,2 C 13,1 C 6,4 km/h (2 Bft) 97,22 %
17.07.2017 04:00 13,1 C 21,1 C 77 % 1021,0 hPa 0,0 l/m 3,5 km/h (1 Bft) S-SW 192 0 min 0,026 mm 0,0 UV-I 0 W/m 9,2 C 13,1 C 6,4 km/h (2 Bft) 98,00 %
17.07.2017 04:05 13,1 C 21,1 C 77 % 1021,0 hPa 0,0 l/m 3,1 km/h (1 Bft) S-SW 198 0 min 0,000 mm 0,0 UV-I 0 W/m 9,2 C 13,1 C 6,4 km/h (2 Bft) 100,00 %
17.07.2017 04:06 13,1 C 21,1 C 77 % 1021,0 hPa 0,0 l/m 2,8 km/h (1 Bft) S-SW 198 0 min 0,000 mm 0,0 UV-I 0 W/m 9,2 C 13,1 C 4,8 km/h (1 Bft) 95,83 %
17.07.2017 04:08 13,1 C 21,1 C 77 % 1021,0 hPa 0,0 l/m 1,9 km/h (1 Bft) S-SW 198 0 min 0,000 mm 0,0 UV-I 0 W/m 9,2 C 13,1 C 4,8 km/h (1 Bft) 98,00 %
17.07.2017 04:10 13,1 C 21,1 C 77 % 1021,0 hPa 0,0 l/m 3,9 km/h (1 Bft) S-SW 198 0 min 0,000 mm 0,0 UV-I 0 W/m 9,2 C 13,1 C 6,4 km/h (2 Bft) 97,37 %
17.07.2017 04:12 13,1 C 21,1 C 77 % 1021,0 hPa 0,0 l/m 3,7 km/h (1 Bft) S-SW 198 0 min 0,000 mm 0,0 UV-I 0 W/m 9,2 C 13,1 C 6,4 km/h (2 Bft) 98,11 %
17.07.2017 04:14 13,1 C 21,1 C 77 % 1021,0 hPa 0,0 l/m 2,6 km/h (1 Bft) S-SW 198 0 min 0,000 mm 0,0 UV-I 0 W/m 9,2 C 13,1 C 4,8 km/h (1 Bft) 97,87 %
17.07.2017 04:16 13,1 C 21,1 C 77 % 1021,0 hPa 0,0 l/m 2,6 km/h (1 Bft) S-SW 198 0 min 0,000 mm 0,0 UV-I 0 W/m 9,2 C 13,1 C 3,2 km/h (1 Bft) 98,11 %
17.07.2017 04:18 13,1 C 21,1 C 77 % 1021,0 hPa 0,0 l/m 2,9 km/h (1 Bft) S-SW 198 0 min 0,000 mm 0,0 UV-I 0 W/m 9,2 C 13,1 C 4,8 km/h (1 Bft) 100,00 %
17.07.2017 04:20 13,1 C 21,1 C 77 % 1021,0 hPa 0,0 l/m 2,7 km/h (1 Bft) S-SW 198 0 min 0,000 mm 0,0 UV-I 0 W/m 9,2 C 13,1 C 4,8 km/h (1 Bft) 94,34 %
17.07.2017 04:22 13,1 C 21,1 C 77 % 1021,1 hPa 0,0 l/m 1,3 km/h (1 Bft) S-SW 198 0 min 0,000 mm 0,0 UV-I 0 W/m 9,2 C 13,1 C 3,2 km/h (1 Bft) 97,87 %
17.07.2017 04:24 13,1 C 21,1 C 77 % 1021,0 hPa 0,0 l/m 1,2 km/h (1 Bft) S-SW 198 0 min 0,000 mm 0,0 UV-I 0 W/m 9,2 C 13,1 C 1,6 km/h (1 Bft) 98,00 %
17.07.2017 04:26 13,1 C 21,1 C 77 % 1021,1 hPa 0,0 l/m 0,3 km/h (0 Bft) S-SW 198 0 min 0,000 mm 0,0 UV-I 0 W/m 9,2 C 13,1 C 1,6 km/h (1 Bft) 97,87 %
17.07.2017 04:28 13,0 C 21,1 C 77 % 1021,0 hPa 0,0 l/m 0,5 km/h (0 Bft) S-SW 198 0 min 0,000 mm 0,0 UV-I 0 W/m 9,1 C 13,0 C 1,6 km/h (1 Bft) 92,00 %
17.07.2017 04:30 12,9 C 21,1 C 78 % 1021,0 hPa 0,0 l/m 0,0 km/h (0 Bft) S-SW 198 0 min 0,000 mm 0,0 UV-I 0 W/m 9,2 C 12,9 C 0,0 km/h (0 Bft) 94,29 %
17.07.2017 04:32 12,9 C 21,1 C 78 % 1021,0 hPa 0,0 l/m 0,3 km/h (0 Bft) S-SW 198 0 min 0,000 mm 0,0 UV-I 0 W/m 9,2 C 12,9 C 1,6 km/h (1 Bft) 95,83 %
17.07.2017 04:34 12,9 C 21,1 C 78 % 1021,0 hPa 0,0 l/m 0,2 km/h (0 Bft) S-SW 198 0 min 0,000 mm 0,0 UV-I 0 W/m 9,2 C 12,9 C 1,6 km/h (1 Bft) 96,00 %
17.07.2017 04:36 12,9 C 21,1 C 78 % 1021,1 hPa 0,0 l/m 0,2 km/h (0 Bft) S-SW 198 0 min 0,000 mm 0,0 UV-I 0 W/m 9,2 C 12,9 C 1,6 km/h (1 Bft) 93,88 %
17.07.2017 04:38 12,9 C 21,1 C 78 % 1021,0 hPa 0,0 l/m 0,3 km/h (0 Bft) S-SW 198 0 min 0,000 mm 0,0 UV-I 0 W/m 9,2 C 12,9 C 1,6 km/h (1 Bft) 93,75 %
17.07.2017 04:40 12,9 C 21,1 C 79 % 1021,0 hPa 0,0 l/m 0,5 km/h (0 Bft) S-SW 198 0 min 0,000 mm 0,0 UV-I 0 W/m 9,3 C 12,9 C 1,6 km/h (1 Bft) 94,00 %
17.07.2017 04:42 12,9 C 21,1 C 79 % 1021,0 hPa 0,0 l/m 0,0 km/h (0 Bft) S-SW 198 0 min 0,000 mm 0,0 UV-I 0 W/m 9,3 C 12,9 C 0,0 km/h (0 Bft) 97,37 %
17.07.2017 04:44 12,8 C 21,1 C 79 % 1021,0 hPa 0,0 l/m 0,0 km/h (0 Bft) S-SW 198 0 min 0,000 mm 0,0 UV-I 0 W/m 9,2 C 12,8 C 0,0 km/h (0 Bft) 100,00 %
17.07.2017 04:46 12,7 C 21,1 C 78 % 1021,1 hPa 0,0 l/m 0,0 km/h (0 Bft) S-SW 198 0 min 0,000 mm 0,0 UV-I 0 W/m 9,0 C 12,7 C 0,0 km/h (0 Bft) 100,00 %
17.07.2017 04:48 12,6 C 21,1 C 79 % 1021,1 hPa 0,0 l/m 0,0 km/h (0 Bft) S-SW 198 0 min 0,000 mm 0,0 UV-I 0 W/m 9,1 C 12,6 C 0,0 km/h (0 Bft) 94,00 %
17.07.2017 04:50 12,5 C 21,1 C 79 % 1021,1 hPa 0,0 l/m 0,0 km/h (0 Bft) S-SW 198 0 min 0,000 mm 0,0 UV-I 0 W/m 9,0 C 12,5 C 0,0 km/h (0 Bft) 97,37 %
17.07.2017 04:52 12,4 C 21,1 C 80 % 1021,1 hPa 0,0 l/m 0,0 km/h (0 Bft) S-SW 198 0 min 0,000 mm 0,0 UV-I 0 W/m 9,0 C 12,4 C 0,0 km/h (0 Bft) 94,34 %
17.07.2017 04:54 12,3 C 21,1 C 80 % 1021,1 hPa 0,0 l/m 0,6 km/h (0 Bft) S-SW 198 0 min 0,000 mm 0,0 UV-I 0 W/m 8,9 C 12,3 C 3,2 km/h (1 Bft) 94,34 %
17.07.2017 04:56 12,3 C 21,1 C 80 % 1021,1 hPa 0,0 l/m 1,4 km/h (1 Bft) S-SW 198 0 min 0,000 mm 0,0 UV-I 0 W/m 8,9 C 12,3 C 3,2 km/h (1 Bft) 97,37 %
17.07.2017 04:58 12,2 C 21,1 C 81 % 1021,1 hPa 0,0 l/m 0,1 km/h (0 Bft) S-SW 198 0 min 0,000 mm 0,0 UV-I 0 W/m 9,0 C 12,2 C 1,6 km/h (1 Bft) 93,62 %
17.07.2017 05:00 12,2 C 21,1 C 82 % 1021,1 hPa 0,0 l/m 0,0 km/h (0 Bft) S-SW 198 0 min 0,000 mm 0,0 UV-I 0 W/m 9,2 C 12,2 C 0,0 km/h (0 Bft) 94,00 %
17.07.2017 05:02 12,1 C 21,1 C 82 % 1021,1 hPa 0,0 l/m 0,0 km/h (0 Bft) S-SW 198 0 min 0,000 mm 0,0 UV-I 0 W/m 9,1 C 12,1 C 0,0 km/h (0 Bft) 94,00 %
17.07.2017 05:04 11,9 C 21,1 C 83 % 1021,1 hPa 0,0 l/m 0,0 km/h (0 Bft) S-SW 198 0 min 0,000 mm 0,0 UV-I 0 W/m 9,1 C 11,9 C 0,0 km/h (0 Bft) 92,11 %
17.07.2017 05:06 11,8 C 21,1 C 83 % 1021,2 hPa 0,0 l/m 0,6 km/h (0 Bft) S-SW 198 0 min 0,000 mm 0,0 UV-I 0 W/m 9,0 C 11,8 C 3,2 km/h (1 Bft) 96,23 %
17.07.2017 05:08 11,8 C 21,1 C 83 % 1021,2 hPa 0,0 l/m 1,9 km/h (1 Bft) S-SW 198 0 min 0,000 mm 0,0 UV-I 5 W/m 9,0 C 11,8 C 3,2 km/h (1 Bft) 97,37 %
17.07.2017 05:10 11,6 C 21,1 C 84 % 1021,3 hPa 0,0 l/m 0,6 km/h (0 Bft) S-SW 198 0 min 0,000 mm 0,0 UV-I 5 W/m 9,0 C 11,6 C 1,6 km/h (1 Bft) 96,00 %
17.07.2017 05:12 11,6 C 21,1 C 84 % 1021,3 hPa 0,0 l/m 0,0 km/h (0 Bft) S-SW 198 0 min 0,000 mm 0,0 UV-I 5 W/m 9,0 C 11,6 C 0,0 km/h (0 Bft) 95,83 %
17.07.2017 05:14 11,5 C 21,1 C 85 % 1021,3 hPa 0,0 l/m 0,0 km/h (0 Bft) S-SW 198 0 min 0,000 mm 0,0 UV-I 5 W/m 9,1 C 11,5 C 0,0 km/h (0 Bft) 95,92 %
17.07.2017 05:16 11,5 C 21,1 C 85 % 1021,2 hPa 0,0 l/m 1,5 km/h (1 Bft) S-SW 198 0 min 0,000 mm 0,0 UV-I 6 W/m 9,1 C 11,5 C 3,2 km/h (1 Bft) 94,00 %
17.07.2017 05:18 11,5 C 21,1 C 84 % 1021,3 hPa 0,0 l/m 2,5 km/h (1 Bft) S-SW 198 0 min 0,000 mm 0,0 UV-I 7 W/m 8,9 C 11,5 C 3,2 km/h (1 Bft) 89,80 %
17.07.2017 05:20 11,4 C 21,1 C 84 % 1021,3 hPa 0,0 l/m 3,1 km/h (1 Bft) S-SW 198 0 min 0,000 mm 0,0 UV-I 7 W/m 8,8 C 11,4 C 4,8 km/h (1 Bft) 92,31 %
17.07.2017 05:22 11,4 C 21,1 C 84 % 1021,3 hPa 0,0 l/m 3,4 km/h (1 Bft) S-SW 198 0 min 0,000 mm 0,0 UV-I 7 W/m 8,8 C 11,4 C 4,8 km/h (1 Bft) 92,45 %
17.07.2017 05:24 11,4 C 21,1 C 85 % 1021,2 hPa 0,0 l/m 3,5 km/h (1 Bft) S-SW 198 0 min 0,000 mm 0,0 UV-I 9 W/m 9,0 C 11,4 C 4,8 km/h (1 Bft) 94,00 %
17.07.2017 05:26 11,3 C 21,1 C 85 % 1021,3 hPa 0,0 l/m 3,4 km/h (1 Bft) S-SW 198 0 min 0,000 mm 0,0 UV-I 9 W/m 8,9 C 11,3 C 4,8 km/h (1 Bft) 91,49 %
17.07.2017 05:28 11,3 C 21,1 C 85 % 1021,2 hPa 0,0 l/m 3,7 km/h (1 Bft) S-SW 198 0 min 0,000 mm 0,0 UV-I 10 W/m 8,9 C 11,3 C 4,8 km/h (1 Bft) 92,11 %
17.07.2017 05:30 11,3 C 21,1 C 85 % 1021,3 hPa 0,0 l/m 4,0 km/h (1 Bft) S-SW 198 0 min 0,000 mm 0,0 UV-I 11 W/m 8,9 C 11,3 C 4,8 km/h (1 Bft) 96,00 %
17.07.2017 05:32 11,3 C 21,1 C 85 % 1021,2 hPa 0,0 l/m 4,3 km/h (1 Bft) S-SW 197 0 min 0,000 mm 0,0 UV-I 11 W/m 8,9 C 11,3 C 6,4 km/h (2 Bft) 91,49 %
17.07.2017 05:34 11,3 C 21,1 C 85 % 1021,2 hPa 0,0 l/m 2,9 km/h (1 Bft) S-SW 198 2 min 0,000 mm 0,0 UV-I 12 W/m 8,9 C 11,3 C 4,8 km/h (1 Bft) 94,00 %
17.07.2017 05:36 11,2 C 21,1 C 85 % 1021,2 hPa 0,0 l/m 2,2 km/h (1 Bft) S-SW 197 2 min 0,000 mm 0,0 UV-I 14 W/m 8,8 C 11,2 C 4,8 km/h (1 Bft) 93,10 %
17.07.2017 05:38 11,2 C 21,1 C 85 % 1021,2 hPa 0,0 l/m 3,1 km/h (1 Bft) S-SW 198 0 min 0,000 mm 0,0 UV-I 14 W/m 8,8 C 11,2 C 4,8 km/h (1 Bft) 92,31 %
17.07.2017 05:40 11,3 C 21,1 C 85 % 1021,1 hPa 0,0 l/m 2,6 km/h (1 Bft) S-SW 197 2 min 0,000 mm 0,0 UV-I 20 W/m 8,9 C 11,3 C 4,8 km/h (1 Bft) 96,15 %
17.07.2017 05:42 11,3 C 21,1 C 85 % 1021,1 hPa 0,0 l/m 3,9 km/h (1 Bft) S-SW 197 2 min 0,000 mm 0,0 UV-I 26 W/m 8,9 C 11,3 C 4,8 km/h (1 Bft) 93,85 %
17.07.2017 05:44 11,3 C 21,1 C 85 % 1021,1 hPa 0,0 l/m 3,9 km/h (1 Bft) S-SW 198 2 min 0,000 mm 0,0 UV-I 29 W/m 8,9 C 11,3 C 4,8 km/h (1 Bft) 89,36 %
17.07.2017 05:46 11,3 C 21,1 C 85 % 1021,2 hPa 0,0 l/m 3,3 km/h (1 Bft) S-SW 197 2 min 0,000 mm 0,0 UV-I 32 W/m 8,9 C 11,3 C 4,8 km/h (1 Bft) 95,74 %
17.07.2017 05:48 11,3 C 21,1 C 84 % 1021,2 hPa 0,0 l/m 0,9 km/h (0 Bft) S-SW 197 2 min 0,000 mm 0,0 UV-I 34 W/m 8,7 C 11,3 C 3,2 km/h (1 Bft) 97,87 %
17.07.2017 05:50 11,4 C 21,1 C 84 % 1021,2 hPa 0,0 l/m 0,5 km/h (0 Bft) S-SW 198 2 min 0,000 mm 0,0 UV-I 37 W/m 8,8 C 11,4 C 3,2 km/h (1 Bft) 100,00 %
17.07.2017 05:52 11,4 C 21,1 C 84 % 1021,2 hPa 0,0 l/m 0,0 km/h (0 Bft) S-SW 198 2 min 0,000 mm 0,0 UV-I 36 W/m 8,8 C 11,4 C 0,0 km/h (0 Bft) 96,00 %
17.07.2017 05:54 11,6 C 21,1 C 85 % 1021,2 hPa 0,0 l/m 0,0 km/h (0 Bft) S-SW 198 0 min 0,000 mm 0,0 UV-I 34 W/m 9,2 C 11,6 C 0,0 km/h (0 Bft) 97,62 %
17.07.2017 05:56 11,6 C 21,1 C 85 % 1021,2 hPa 0,0 l/m 0,1 km/h (0 Bft) S-SW 198 0 min 0,000 mm 0,0 UV-I 29 W/m 9,2 C 11,6 C 1,6 km/h (1 Bft) 98,00 %
17.07.2017 05:58 11,5 C 21,1 C 85 % 1021,2 hPa 0,0 l/m 0,0 km/h (0 Bft) S-SW 197 0 min 0,000 mm 0,0 UV-I 26 W/m 9,1 C 11,5 C 0,0 km/h (0 Bft) 95,74 %
17.07.2017 06:00 11,4 C 21,1 C 85 % 1021,2 hPa 0,0 l/m 0,4 km/h (0 Bft) S-SW 197 0 min 0,025 mm 0,0 UV-I 26 W/m 9,0 C 11,4 C 3,2 km/h (1 Bft) 95,74 %
17.07.2017 06:02 11,4 C 21,1 C 85 % 1021,3 hPa 0,0 l/m 0,8 km/h (0 Bft) S-SW 198 0 min 0,000 mm 0,0 UV-I 28 W/m 9,0 C 11,4 C 3,2 km/h (1 Bft) 97,87 %
17.07.2017 06:04 11,4 C 21,1 C 85 % 1021,3 hPa 0,0 l/m 1,4 km/h (1 Bft) S-SW 197 0 min 0,000 mm 0,0 UV-I 43 W/m 9,0 C 11,4 C 3,2 km/h (1 Bft) 100,00 %
17.07.2017 06:06 11,4 C 21,1 C 85 % 1021,3 hPa 0,0 l/m 0,6 km/h (0 Bft) S-SW 198 2 min 0,000 mm 0,0 UV-I 56 W/m 9,0 C 11,4 C 1,6 km/h (1 Bft) 98,11 %
17.07.2017 06:08 11,4 C 21,1 C 85 % 1021,3 hPa 0,0 l/m 0,0 km/h (0 Bft) S-SW 198 2 min 0,000 mm 0,0 UV-I 62 W/m 9,0 C 11,4 C 1,6 km/h (1 Bft) 98,00 %
17.07.2017 06:10 11,4 C 21,1 C 85 % 1021,3 hPa 0,0 l/m 0,0 km/h (0 Bft) S-SW 198 2 min 0,000 mm 0,0 UV-I 69 W/m 9,0 C 11,4 C 0,0 km/h (0 Bft) 100,00 %
17.07.2017 06:12 11,3 C 21,1 C 85 % 1021,3 hPa 0,0 l/m 0,0 km/h (0 Bft) S-SW 197 2 min 0,000 mm 0,0 UV-I 73 W/m 8,9 C 11,3 C 0,0 km/h (0 Bft) 98,39 %
17.07.2017 06:14 11,3 C 21,1 C 86 % 1021,3 hPa 0,0 l/m 1,2 km/h (1 Bft) S-SW 198 0 min 0,000 mm 0,0 UV-I 63 W/m 9,0 C 11,3 C 3,2 km/h (1 Bft) 100,00 %
17.07.2017 06:16 11,3 C 21,1 C 86 % 1021,3 hPa 0,0 l/m 2,2 km/h (1 Bft) S-SW 198 2 min 0,000 mm 0,0 UV-I 73 W/m 9,0 C 11,3 C 3,2 km/h (1 Bft) 97,87 %
17.07.2017 06:18 11,4 C 21,1 C 86 % 1021,3 hPa 0,0 l/m 1,9 km/h (1 Bft) S-SW 198 2 min 0,000 mm 0,0 UV-I 72 W/m 9,1 C 11,4 C 3,2 km/h (1 Bft) 96,00 %
17.07.2017 06:20 11,4 C 21,1 C 86 % 1021,3 hPa 0,0 l/m 1,5 km/h (1 Bft) S-SW 198 2 min 0,000 mm 0,0 UV-I 95 W/m 9,1 C 11,4 C 3,2 km/h (1 Bft) 95,12 %
17.07.2017 06:22 11,5 C 21,1 C 86 % 1021,3 hPa 0,0 l/m 0,4 km/h (0 Bft) S-SW 198 2 min 0,000 mm 0,0 UV-I 80 W/m 9,2 C 11,5 C 1,6 km/h (1 Bft) 98,11 %
17.07.2017 06:24 11,6 C 21,1 C 86 % 1021,3 hPa 0,0 l/m 0,0 km/h (0 Bft) S-SW 198 0 min 0,000 mm 0,0 UV-I 58 W/m 9,3 C 11,6 C 0,0 km/h (0 Bft) 95,74 %
17.07.2017 06:26 11,7 C 21,1 C 85 % 1021,3 hPa 0,0 l/m 0,0 km/h (0 Bft) S-SW 198 0 min 0,000 mm 0,0 UV-I 54 W/m 9,3 C 11,7 C 0,0 km/h (0 Bft) 97,56 %
17.07.2017 06:28 11,9 C 21,1 C 85 % 1021,3 hPa 0,0 l/m 0,0 km/h (0 Bft) S-SW 198 0 min 0,000 mm 0,0 UV-I 58 W/m 9,5 C 11,9 C 0,0 km/h (0 Bft) 96,00 %
17.07.2017 06:30 12,2 C 21,1 C 84 % 1021,3 hPa 0,0 l/m 0,0 km/h (0 Bft) S-SW 198 2 min 0,000 mm 0,0 UV-I 88 W/m 9,6 C 12,2 C 0,0 km/h (0 Bft) 97,44 %
17.07.2017 06:32 12,4 C 21,1 C 83 % 1021,3 hPa 0,0 l/m 0,0 km/h (0 Bft) S-SW 197 2 min 0,000 mm 0,0 UV-I 140 W/m 9,6 C 12,4 C 0,0 km/h (0 Bft) 97,87 %
17.07.2017 06:34 12,6 C 21,1 C 84 % 1021,3 hPa 0,0 l/m 0,0 km/h (0 Bft) S-SW 198 2 min 0,000 mm 0,0 UV-I 149 W/m 10,0 C 12,6 C 1,6 km/h (1 Bft) 98,00 %
17.07.2017 06:36 12,8 C 21,1 C 84 % 1021,3 hPa 0,0 l/m 0,6 km/h (0 Bft) S-SW 197 2 min 0,000 mm 0,0 UV-I 149 W/m 10,2 C 12,8 C 3,2 km/h (1 Bft) 98,00 %
17.07.2017 06:38 12,9 C 21,1 C 84 % 1021,3 hPa 0,0 l/m 0,4 km/h (0 Bft) S-SW 198 2 min 0,000 mm 0,0 UV-I 153 W/m 10,3 C 12,9 C 1,6 km/h (1 Bft) 96,00 %
17.07.2017 06:40 13,1 C 21,1 C 83 % 1021,3 hPa 0,0 l/m 0,7 km/h (0 Bft) S-SW 198 2 min 0,000 mm 0,0 UV-I 166 W/m 10,3 C 13,1 C 1,6 km/h (1 Bft) 95,74 %
17.07.2017 06:42 13,2 C 21,1 C 83 % 1021,3 hPa 0,0 l/m 0,5 km/h (0 Bft) S-SW 198 2 min 0,000 mm 0,0 UV-I 175 W/m 10,4 C 13,2 C 1,6 km/h (1 Bft) 89,47 %
17.07.2017 06:44 13,4 C 21,1 C 82 % 1021,3 hPa 0,0 l/m 1,8 km/h (1 Bft) S-SW 197 2 min 0,000 mm 0,0 UV-I 172 W/m 10,4 C 13,4 C 4,8 km/h (1 Bft) 98,11 %
17.07.2017 06:46 13,6 C 21,1 C 82 % 1021,3 hPa 0,0 l/m 1,5 km/h (1 Bft) S-SW 198 2 min 0,000 mm 0,0 UV-I 168 W/m 10,6 C 13,6 C 3,2 km/h (1 Bft) 100,00 %
17.07.2017 06:48 13,8 C 21,1 C 81 % 1021,3 hPa 0,0 l/m 2,0 km/h (1 Bft) S 181 2 min 0,000 mm 0,0 UV-I 154 W/m 10,6 C 13,8 C 3,2 km/h (1 Bft) 97,73 %
17.07.2017 06:50 13,9 C 21,1 C 79 % 1021,3 hPa 0,0 l/m 1,9 km/h (1 Bft) S 181 2 min 0,000 mm 0,0 UV-I 211 W/m 10,3 C 13,9 C 3,2 km/h (1 Bft) 100,00 %
17.07.2017 06:52 14,2 C 21,1 C 78 % 1021,3 hPa 0,0 l/m 1,5 km/h (1 Bft) S 180 2 min 0,000 mm 0,0 UV-I 212 W/m 10,4 C 14,2 C 3,2 km/h (1 Bft) 91,49 %
17.07.2017 06:54 14,4 C 21,1 C 77 % 1021,3 hPa 0,0 l/m 2,8 km/h (1 Bft) S-SO 156 2 min 0,000 mm 0,0 UV-I 227 W/m 10,4 C 14,4 C 6,4 km/h (2 Bft) 92,45 %
17.07.2017 06:56 14,7 C 21,1 C 75 % 1021,2 hPa 0,0 l/m 3,7 km/h (1 Bft) S-SO 147 2 min 0,000 mm 0,0 UV-I 242 W/m 10,3 C 14,7 C 6,4 km/h (2 Bft) 97,87 %
17.07.2017 06:58 14,8 C 21,1 C 74 % 1021,3 hPa 0,0 l/m 1,7 km/h (1 Bft) SO 137 2 min 0,000 mm 0,0 UV-I 202 W/m 10,2 C 14,8 C 4,8 km/h (1 Bft) 100,00 %
17.07.2017 07:00 14,9 C 21,1 C 74 % 1021,3 hPa 0,0 l/m 3,4 km/h (1 Bft) SO 130 2 min 0,000 mm 0,0 UV-I 154 W/m 10,3 C 14,9 C 6,4 km/h (2 Bft) 100,00 %
17.07.2017 07:02 15,0 C 21,1 C 74 % 1021,3 hPa 0,0 l/m 3,2 km/h (1 Bft) SO 130 0 min 0,051 mm 0,0 UV-I 134 W/m 10,4 C 15,0 C 4,8 km/h (1 Bft) 98,11 %
17.07.2017 07:04 15,1 C 21,1 C 74 % 1021,2 hPa 0,0 l/m 1,9 km/h (1 Bft) SO 130 2 min 0,000 mm 0,0 UV-I 183 W/m 10,5 C 15,1 C 3,2 km/h (1 Bft) 97,37 %
17.07.2017 07:06 15,3 C 21,1 C 73 % 1021,3 hPa 0,0 l/m 1,8 km/h (1 Bft) SO 130 2 min 0,000 mm 0,0 UV-I 232 W/m 10,5 C 15,3 C 3,2 km/h (1 Bft) 97,73 %
17.07.2017 07:08 15,3 C 21,1 C 71 % 1021,3 hPa 0,0 l/m 1,9 km/h (1 Bft) SO 130 2 min 0,000 mm 0,0 UV-I 231 W/m 10,1 C 15,3 C 4,8 km/h (1 Bft) 96,61 %
17.07.2017 07:10 15,3 C 21,1 C 71 % 1021,3 hPa 0,0 l/m 3,4 km/h (1 Bft) SO 130 2 min 0,000 mm 0,0 UV-I 213 W/m 10,1 C 15,3 C 6,4 km/h (2 Bft) 100,00 %
17.07.2017 07:12 15,4 C 21,1 C 71 % 1021,3 hPa 0,0 l/m 1,5 km/h (1 Bft) SO 130 2 min 0,000 mm 0,0 UV-I 240 W/m 10,2 C 15,4 C 3,2 km/h (1 Bft) 94,87 %
17.07.2017 07:14 15,5 C 21,1 C 71 % 1021,3 hPa 0,0 l/m 1,3 km/h (1 Bft) SO 130 2 min 0,000 mm 0,0 UV-I 247 W/m 10,3 C 15,5 C 3,2 km/h (1 Bft) 100,00 %
17.07.2017 07:16 15,5 C 21,1 C 71 % 1021,3 hPa 0,0 l/m 0,7 km/h (0 Bft) SO 130 2 min 0,000 mm 0,0 UV-I 187 W/m 10,3 C 15,5 C 4,8 km/h (1 Bft) 96,15 %
17.07.2017 07:18 15,5 C 21,1 C 71 % 1021,3 hPa 0,0 l/m 1,1 km/h (1 Bft) SO 130 0 min 0,000 mm 0,0 UV-I 94 W/m 10,3 C 15,5 C 4,8 km/h (1 Bft) 100,00 %
17.07.2017 07:20 15,6 C 21,1 C 71 % 1021,4 hPa 0,0 l/m 0,3 km/h (0 Bft) SO 130 0 min 0,000 mm 0,0 UV-I 91 W/m 10,4 C 15,6 C 1,6 km/h (1 Bft) 97,87 %
17.07.2017 07:22 15,6 C 21,1 C 71 % 1021,4 hPa 0,0 l/m 0,3 km/h (0 Bft) SO 130 0 min 0,000 mm 0,0 UV-I 90 W/m 10,4 C 15,6 C 3,2 km/h (1 Bft) 97,37 %
17.07.2017 07:24 15,6 C 21,1 C 72 % 1021,4 hPa 0,0 l/m 0,7 km/h (0 Bft) SO 130 0 min 0,000 mm 0,1 UV-I 132 W/m 10,6 C 15,6 C 1,6 km/h (1 Bft) 96,00 %
17.07.2017 07:26 15,6 C 21,1 C 72 % 1021,4 hPa 0,0 l/m 0,0 km/h (0 Bft) SO 130 0 min 0,000 mm 0,5 UV-I 142 W/m 10,6 C 15,6 C 0,0 km/h (0 Bft) 98,00 %
17.07.2017 07:28 15,7 C 21,1 C 71 % 1021,4 hPa 0,0 l/m 0,0 km/h (0 Bft) SO 130 2 min 0,000 mm 0,5 UV-I 285 W/m 10,5 C 15,7 C 0,0 km/h (0 Bft) 94,00 %
17.07.2017 07:30 15,8 C 21,1 C 70 % 1021,4 hPa 0,0 l/m 0,3 km/h (0 Bft) SO 130 2 min 0,000 mm 0,5 UV-I 292 W/m 10,3 C 15,8 C 1,6 km/h (1 Bft) 92,68 %
17.07.2017 07:32 15,9 C 21,1 C 70 % 1021,4 hPa 0,0 l/m 0,9 km/h (0 Bft) SO 130 2 min 0,000 mm 0,6 UV-I 299 W/m 10,4 C 15,9 C 3,2 km/h (1 Bft) 98,00 %
17.07.2017 07:34 15,9 C 21,1 C 69 % 1021,4 hPa 0,0 l/m 0,1 km/h (0 Bft) SO 130 2 min 0,000 mm 0,6 UV-I 291 W/m 10,2 C 15,9 C 1,6 km/h (1 Bft) 96,00 %
17.07.2017 07:36 16,0 C 21,1 C 69 % 1021,4 hPa 0,0 l/m 1,3 km/h (1 Bft) SO 130 2 min 0,000 mm 0,6 UV-I 290 W/m 10,3 C 16,0 C 3,2 km/h (1 Bft) 94,74 %
17.07.2017 07:38 16,1 C 21,1 C 69 % 1021,5 hPa 0,0 l/m 0,4 km/h (0 Bft) SO 130 2 min 0,000 mm 0,6 UV-I 304 W/m 10,4 C 16,1 C 3,2 km/h (1 Bft) 93,62 %
17.07.2017 07:40 16,2 C 21,1 C 68 % 1021,5 hPa 0,0 l/m 1,8 km/h (1 Bft) SO 130 2 min 0,000 mm 0,7 UV-I 307 W/m 10,3 C 16,2 C 3,2 km/h (1 Bft) 95,74 %
17.07.2017 07:42 16,3 C 21,1 C 68 % 1021,5 hPa 0,0 l/m 3,0 km/h (1 Bft) SO 131 2 min 0,000 mm 0,7 UV-I 310 W/m 10,4 C 16,3 C 4,8 km/h (1 Bft) 96,23 %
17.07.2017 07:44 16,4 C 21,1 C 69 % 1021,5 hPa 0,0 l/m 1,8 km/h (1 Bft) SO 131 2 min 0,000 mm 0,7 UV-I 317 W/m 10,7 C 16,4 C 4,8 km/h (1 Bft) 92,68 %
17.07.2017 07:46 16,5 C 21,1 C 67 % 1021,5 hPa 0,0 l/m 3,5 km/h (1 Bft) SW 219 2 min 0,000 mm 0,8 UV-I 323 W/m 10,4 C 16,5 C 4,8 km/h (1 Bft) 88,00 %
17.07.2017 07:48 16,6 C 21,1 C 65 % 1021,5 hPa 0,0 l/m 2,4 km/h (1 Bft) SW 219 2 min 0,000 mm 0,8 UV-I 324 W/m 10,0 C 16,6 C 4,8 km/h (1 Bft) 92,31 %
17.07.2017 07:50 16,7 C 21,1 C 66 % 1021,5 hPa 0,0 l/m 3,7 km/h (1 Bft) SW 219 2 min 0,000 mm 0,8 UV-I 324 W/m 10,3 C 16,7 C 4,8 km/h (1 Bft) 94,00 %
17.07.2017 07:52 16,7 C 21,1 C 67 % 1021,5 hPa 0,0 l/m 3,7 km/h (1 Bft) SW 219 2 min 0,000 mm 0,8 UV-I 303 W/m 10,5 C 16,7 C 4,8 km/h (1 Bft) 92,00 %
17.07.2017 07:54 16,7 C 21,1 C 66 % 1021,5 hPa 0,0 l/m 2,6 km/h (1 Bft) SW 219 2 min 0,000 mm 0,9 UV-I 336 W/m 10,3 C 16,7 C 4,8 km/h (1 Bft) 94,23 %
17.07.2017 07:56 16,8 C 21,1 C 66 % 1021,5 hPa 0,0 l/m 2,2 km/h (1 Bft) SW 219 2 min 0,000 mm 0,9 UV-I 341 W/m 10,4 C 16,8 C 3,2 km/h (1 Bft) 93,75 %
17.07.2017 07:58 16,9 C 21,1 C 67 % 1021,5 hPa 0,0 l/m 0,5 km/h (0 Bft) SW 219 2 min 0,000 mm 0,9 UV-I 347 W/m 10,7 C 16,9 C 3,2 km/h (1 Bft) 92,68 %
17.07.2017 08:00 17,1 C 21,1 C 66 % 1021,5 hPa 0,0 l/m 2,7 km/h (1 Bft) SW 219 2 min 0,152 mm 0,9 UV-I 353 W/m 10,7 C 17,1 C 4,8 km/h (1 Bft) 94,34 %
17.07.2017 08:02 17,1 C 21,1 C 65 % 1021,5 hPa 0,0 l/m 2,6 km/h (1 Bft) SW 219 2 min 0,000 mm 1,0 UV-I 358 W/m 10,5 C 17,1 C 3,2 km/h (1 Bft) 95,12 %
17.07.2017 08:04 17,3 C 21,1 C 65 % 1021,5 hPa 0,0 l/m 2,1 km/h (1 Bft) SW 219 2 min 0,000 mm 1,0 UV-I 363 W/m 10,7 C 17,3 C 3,2 km/h (1 Bft) 98,00 %
17.07.2017 08:06 17,4 C 21,1 C 63 % 1021,5 hPa 0,0 l/m 3,7 km/h (1 Bft) W 264 2 min 0,000 mm 1,0 UV-I 368 W/m 10,3 C 17,4 C 6,4 km/h (2 Bft) 94,00 %
17.07.2017 08:08 17,4 C 21,1 C 62 % 1021,5 hPa 0,0 l/m 3,2 km/h (1 Bft) W 264 2 min 0,000 mm 1,1 UV-I 375 W/m 10,0 C 17,4 C 4,8 km/h (1 Bft) 91,49 %
17.07.2017 08:10 17,4 C 21,1 C 62 % 1021,6 hPa 0,0 l/m 2,3 km/h (1 Bft) W 264 2 min 0,000 mm 1,1 UV-I 381 W/m 10,0 C 17,4 C 3,2 km/h (1 Bft) 97,87 %
17.07.2017 08:12 17,4 C 21,1 C 62 % 1021,5 hPa 0,0 l/m 2,6 km/h (1 Bft) W 264 2 min 0,000 mm 1,1 UV-I 385 W/m 10,0 C 17,4 C 4,8 km/h (1 Bft) 92,11 %
17.07.2017 08:14 17,6 C 21,1 C 63 % 1021,6 hPa 0,0 l/m 2,8 km/h (1 Bft) W 264 2 min 0,000 mm 1,1 UV-I 392 W/m 10,5 C 17,6 C 4,8 km/h (1 Bft) 96,00 %
17.07.2017 08:16 17,7 C 21,1 C 62 % 1021,6 hPa 0,0 l/m 2,3 km/h (1 Bft) W 264 2 min 0,000 mm 1,2 UV-I 397 W/m 10,3 C 17,7 C 3,2 km/h (1 Bft) 94,00 %
17.07.2017 08:18 17,8 C 21,1 C 63 % 1021,5 hPa 0,0 l/m 1,7 km/h (1 Bft) NW 314 2 min 0,000 mm 1,2 UV-I 403 W/m 10,7 C 17,8 C 3,2 km/h (1 Bft) 94,74 %
17.07.2017 08:20 17,8 C 21,1 C 61 % 1021,5 hPa 0,0 l/m 1,5 km/h (1 Bft) NW 313 2 min 0,000 mm 1,2 UV-I 410 W/m 10,2 C 17,8 C 4,8 km/h (1 Bft) 95,74 %
17.07.2017 08:22 17,9 C 21,1 C 61 % 1021,5 hPa 0,0 l/m 1,5 km/h (1 Bft) W 280 2 min 0,000 mm 1,3 UV-I 416 W/m 10,3 C 17,9 C 4,8 km/h (1 Bft) 96,23 %
17.07.2017 08:24 17,9 C 21,1 C 61 % 1021,5 hPa 0,0 l/m 2,3 km/h (1 Bft) W 279 2 min 0,000 mm 1,3 UV-I 423 W/m 10,3 C 17,9 C 4,8 km/h (1 Bft) 97,22 %
17.07.2017 08:26 18,2 C 21,1 C 61 % 1021,5 hPa 0,0 l/m 3,1 km/h (1 Bft) W 278 2 min 0,000 mm 1,3 UV-I 435 W/m 10,6 C 18,2 C 4,8 km/h (1 Bft) 94,55 %
17.07.2017 08:28 18,2 C 21,1 C 61 % 1021,5 hPa 0,0 l/m 1,3 km/h (1 Bft) W 278 2 min 0,000 mm 1,4 UV-I 435 W/m 10,6 C 18,2 C 3,2 km/h (1 Bft) 92,00 %
17.07.2017 08:30 18,2 C 21,1 C 60 % 1021,5 hPa 0,0 l/m 2,2 km/h (1 Bft) W 278 2 min 0,000 mm 1,4 UV-I 438 W/m 10,3 C 18,2 C 4,8 km/h (1 Bft) 97,62 %
17.07.2017 08:32 18,2 C 21,1 C 60 % 1021,5 hPa 0,0 l/m 3,2 km/h (1 Bft) W 279 2 min 0,000 mm 1,4 UV-I 440 W/m 10,3 C 18,2 C 6,4 km/h (2 Bft) 96,36 %
17.07.2017 08:34 18,2 C 21,1 C 58 % 1021,5 hPa 0,0 l/m 2,6 km/h (1 Bft) W 279 2 min 0,000 mm 1,5 UV-I 446 W/m 9,8 C 18,2 C 4,8 km/h (1 Bft) 92,86 %
17.07.2017 08:36 18,1 C 21,1 C 59 % 1021,4 hPa 0,0 l/m 3,5 km/h (1 Bft) W 279 2 min 0,000 mm 1,5 UV-I 451 W/m 10,0 C 18,1 C 4,8 km/h (1 Bft) 98,11 %
17.07.2017 08:38 18,1 C 21,1 C 59 % 1021,4 hPa 0,0 l/m 2,6 km/h (1 Bft) W 279 2 min 0,000 mm 1,5 UV-I 456 W/m 10,0 C 18,1 C 3,2 km/h (1 Bft) 94,74 %
17.07.2017 08:40 18,1 C 21,1 C 59 % 1021,4 hPa 0,0 l/m 2,3 km/h (1 Bft) W 279 2 min 0,000 mm 1,6 UV-I 462 W/m 10,0 C 18,1 C 3,2 km/h (1 Bft) 98,11 %
17.07.2017 08:42 18,3 C 21,1 C 61 % 1021,4 hPa 0,0 l/m 1,5 km/h (1 Bft) W 279 2 min 0,000 mm 1,6 UV-I 469 W/m 10,6 C 18,3 C 3,2 km/h (1 Bft) 94,74 %
17.07.2017 08:44 18,5 C 21,1 C 59 % 1021,4 hPa 0,0 l/m 0,3 km/h (0 Bft) W 279 2 min 0,000 mm 1,7 UV-I 474 W/m 10,3 C 18,5 C 1,6 km/h (1 Bft) 98,11 %
17.07.2017 08:46 18,6 C 21,1 C 60 % 1021,4 hPa 0,0 l/m 0,0 km/h (0 Bft) W 279 2 min 0,000 mm 1,7 UV-I 479 W/m 10,7 C 18,6 C 1,6 km/h (1 Bft) 96,00 %
17.07.2017 08:48 18,6 C 21,1 C 59 % 1021,4 hPa 0,0 l/m 0,6 km/h (0 Bft) W 279 2 min 0,000 mm 1,7 UV-I 485 W/m 10,4 C 18,6 C 1,6 km/h (1 Bft) 97,87 %
17.07.2017 08:50 18,7 C 21,1 C 58 % 1021,4 hPa 0,0 l/m 0,9 km/h (0 Bft) W 279 2 min 0,000 mm 1,8 UV-I 489 W/m 10,3 C 18,7 C 3,2 km/h (1 Bft) 100,00 %
17.07.2017 08:52 18,8 C 21,1 C 57 % 1021,4 hPa 0,0 l/m 0,3 km/h (0 Bft) W 279 2 min 0,000 mm 1,8 UV-I 496 W/m 10,1 C 18,8 C 3,2 km/h (1 Bft) 97,87 %
17.07.2017 08:54 18,8 C 21,1 C 58 % 1021,4 hPa 0,0 l/m 1,1 km/h (1 Bft) W 279 2 min 0,000 mm 1,9 UV-I 501 W/m 10,4 C 18,8 C 3,2 km/h (1 Bft) 97,37 %
17.07.2017 08:56 19,1 C 21,1 C 59 % 1021,4 hPa 0,0 l/m 0,7 km/h (0 Bft) NW 304 2 min 0,000 mm 1,9 UV-I 508 W/m 10,9 C 19,1 C 1,6 km/h (1 Bft) 96,00 %
17.07.2017 08:58 19,3 C 21,1 C 57 % 1021,4 hPa 0,0 l/m 1,2 km/h (1 Bft) NW 322 2 min 0,000 mm 1,9 UV-I 502 W/m 10,6 C 19,3 C 4,8 km/h (1 Bft) 100,00 %
17.07.2017 09:00 19,3 C 21,1 C 57 % 1021,4 hPa 0,0 l/m 2,1 km/h (1 Bft) NW 307 2 min 0,254 mm 2,0 UV-I 512 W/m 10,6 C 19,3 C 4,8 km/h (1 Bft) 96,00 %
17.07.2017 09:02 19,2 C 21,1 C 59 % 1021,5 hPa 0,0 l/m 1,1 km/h (1 Bft) NW 324 2 min 0,000 mm 2,0 UV-I 521 W/m 11,0 C 19,2 C 4,8 km/h (1 Bft) 97,87 %
17.07.2017 09:04 19,2 C 21,1 C 58 % 1021,5 hPa 0,0 l/m 3,0 km/h (1 Bft) NW 304 2 min 0,000 mm 2,1 UV-I 526 W/m 10,7 C 19,2 C 4,8 km/h (1 Bft) 100,00 %
17.07.2017 09:06 19,2 C 21,1 C 57 % 1021,5 hPa 0,0 l/m 1,0 km/h (0 Bft) NW 314 2 min 0,000 mm 2,1 UV-I 532 W/m 10,5 C 19,2 C 3,2 km/h (1 Bft) 96,00 %
17.07.2017 09:08 19,3 C 21,1 C 58 % 1021,4 hPa 0,0 l/m 0,6 km/h (0 Bft) NW 314 2 min 0,000 mm 2,2 UV-I 537 W/m 10,8 C 19,3 C 3,2 km/h (1 Bft) 97,22 %
17.07.2017 09:10 19,3 C 21,1 C 57 % 1021,4 hPa 0,0 l/m 2,3 km/h (1 Bft) NW 314 2 min 0,000 mm 2,2 UV-I 541 W/m 10,6 C 19,3 C 4,8 km/h (1 Bft) 100,00 %
17.07.2017 09:12 19,2 C 21,1 C 57 % 1021,4 hPa 0,0 l/m 0,3 km/h (0 Bft) NW 314 2 min 0,000 mm 2,2 UV-I 546 W/m 10,5 C 19,2 C 1,6 km/h (1 Bft) 98,59 %
17.07.2017 09:14 19,3 C 21,1 C 57 % 1021,4 hPa 0,0 l/m 2,7 km/h (1 Bft) NW 313 2 min 0,000 mm 2,3 UV-I 551 W/m 10,6 C 19,3 C 3,2 km/h (1 Bft) 100,00 %
17.07.2017 09:16 19,4 C 21,1 C 56 % 1021,4 hPa 0,0 l/m 1,4 km/h (1 Bft) W 269 2 min 0,000 mm 2,3 UV-I 556 W/m 10,4 C 19,4 C 4,8 km/h (1 Bft) 100,00 %
17.07.2017 09:18 19,4 C 21,1 C 55 % 1021,4 hPa 0,0 l/m 2,4 km/h (1 Bft) W 266 2 min 0,000 mm 2,4 UV-I 563 W/m 10,1 C 19,4 C 4,8 km/h (1 Bft) 98,53 %
17.07.2017 09:20 19,6 C 21,1 C 56 % 1021,4 hPa 0,0 l/m 0,1 km/h (0 Bft) W 266 2 min 0,000 mm 2,4 UV-I 567 W/m 10,6 C 19,6 C 1,6 km/h (1 Bft) 100,00 %
17.07.2017 09:22 19,7 C 21,1 C 54 % 1021,4 hPa 0,0 l/m 0,4 km/h (0 Bft) W 266 2 min 0,000 mm 2,5 UV-I 575 W/m 10,1 C 19,7 C 1,6 km/h (1 Bft) 97,87 %
17.07.2017 09:24 19,7 C 21,1 C 54 % 1021,4 hPa 0,0 l/m 1,0 km/h (0 Bft) W 275 2 min 0,000 mm 2,5 UV-I 581 W/m 10,1 C 19,7 C 4,8 km/h (1 Bft) 97,56 %
17.07.2017 09:26 20,0 C 21,1 C 57 % 1021,4 hPa 0,0 l/m 0,1 km/h (0 Bft) W 275 2 min 0,000 mm 2,6 UV-I 585 W/m 11,2 C 20,0 C 1,6 km/h (1 Bft) 95,74 %
17.07.2017 09:28 20,1 C 21,1 C 55 % 1021,4 hPa 0,0 l/m 1,8 km/h (1 Bft) S 173 2 min 0,000 mm 2,6 UV-I 587 W/m 10,8 C 20,1 C 4,8 km/h (1 Bft) 94,00 %
17.07.2017 09:30 20,0 C 21,1 C 55 % 1021,3 hPa 0,0 l/m 2,2 km/h (1 Bft) S 172 2 min 0,000 mm 2,7 UV-I 592 W/m 10,7 C 20,0 C 4,8 km/h (1 Bft) 96,00 %
17.07.2017 09:32 20,1 C 21,1 C 54 % 1021,3 hPa 0,0 l/m 1,8 km/h (1 Bft) S 172 2 min 0,000 mm 2,7 UV-I 602 W/m 10,5 C 20,1 C 3,2 km/h (1 Bft) 92,68 %
17.07.2017 09:34 20,3 C 21,1 C 58 % 1021,3 hPa 0,0 l/m 1,5 km/h (1 Bft) S 171 2 min 0,000 mm 2,8 UV-I 605 W/m 11,8 C 20,3 C 6,4 km/h (2 Bft) 96,23 %
17.07.2017 09:36 20,6 C 21,1 C 54 % 1021,3 hPa 0,0 l/m 2,0 km/h (1 Bft) S 170 2 min 0,000 mm 2,8 UV-I 609 W/m 11,0 C 20,6 C 3,2 km/h (1 Bft) 93,62 %
17.07.2017 09:38 20,6 C 21,1 C 53 % 1021,3 hPa 0,0 l/m 3,2 km/h (1 Bft) O 90 2 min 0,000 mm 2,9 UV-I 615 W/m 10,7 C 20,6 C 6,4 km/h (2 Bft) 97,87 %
17.07.2017 09:40 20,8 C 21,1 C 54 % 1021,3 hPa 0,0 l/m 4,2 km/h (1 Bft) N-NO 33 2 min 0,000 mm 2,9 UV-I 622 W/m 11,1 C 20,8 C 8,0 km/h (2 Bft) 95,12 %
17.07.2017 09:42 20,9 C 21,1 C 55 % 1021,2 hPa 0,0 l/m 5,0 km/h (1 Bft) O-NO 57 2 min 0,000 mm 3,0 UV-I 626 W/m 11,5 C 20,9 C 6,4 km/h (2 Bft) 97,87 %
17.07.2017 09:44 20,9 C 21,1 C 53 % 1021,2 hPa 0,0 l/m 4,6 km/h (1 Bft) NO 53 2 min 0,000 mm 3,0 UV-I 631 W/m 11,0 C 20,9 C 6,4 km/h (2 Bft) 96,00 %
17.07.2017 09:46 20,8 C 21,1 C 54 % 1021,2 hPa 0,0 l/m 2,9 km/h (1 Bft) NO 52 2 min 0,000 mm 3,0 UV-I 615 W/m 11,1 C 20,8 C 6,4 km/h (2 Bft) 97,44 %
17.07.2017 09:48 21,0 C 21,1 C 54 % 1021,2 hPa 0,0 l/m 4,5 km/h (1 Bft) NO 53 2 min 0,000 mm 3,1 UV-I 636 W/m 11,3 C 21,0 C 6,4 km/h (2 Bft) 94,23 %
17.07.2017 09:50 21,2 C 21,1 C 53 % 1021,2 hPa 0,0 l/m 2,7 km/h (1 Bft) NO 50 2 min 0,000 mm 3,1 UV-I 643 W/m 11,2 C 21,2 C 4,8 km/h (1 Bft) 95,83 %
17.07.2017 09:52 21,3 C 21,1 C 53 % 1021,2 hPa 0,0 l/m 1,5 km/h (1 Bft) NO 49 2 min 0,000 mm 3,2 UV-I 647 W/m 11,3 C 21,3 C 4,8 km/h (1 Bft) 94,74 %
17.07.2017 09:54 21,3 C 21,1 C 51 % 1021,2 hPa 0,0 l/m 0,5 km/h (0 Bft) NO 34 2 min 0,000 mm 3,2 UV-I 631 W/m 10,7 C 21,3 C 1,6 km/h (1 Bft) 96,30 %
17.07.2017 09:56 21,5 C 21,1 C 52 % 1021,1 hPa 0,0 l/m 1,0 km/h (0 Bft) N-NW 333 2 min 0,000 mm 3,3 UV-I 650 W/m 11,2 C 21,5 C 4,8 km/h (1 Bft) 98,00 %
17.07.2017 09:58 21,7 C 21,1 C 52 % 1021,1 hPa 0,0 l/m 0,3 km/h (0 Bft) N-NW 333 2 min 0,000 mm 3,3 UV-I 646 W/m 11,4 C 21,7 C 1,6 km/h (1 Bft) 94,74 %
17.07.2017 10:00 21,8 C 21,1 C 51 % 1021,1 hPa 0,0 l/m 0,5 km/h (0 Bft) N-NW 331 2 min 0,356 mm 3,4 UV-I 662 W/m 11,2 C 21,8 C 1,6 km/h (1 Bft) 98,21 %
17.07.2017 10:02 21,7 C 21,1 C 48 % 1021,1 hPa 0,0 l/m 1,0 km/h (0 Bft) N-NW 332 2 min 0,000 mm 3,5 UV-I 668 W/m 10,2 C 21,7 C 3,2 km/h (1 Bft) 97,37 %
17.07.2017 10:04 21,4 C 21,1 C 51 % 1021,1 hPa 0,0 l/m 1,6 km/h (1 Bft) N 350 2 min 0,000 mm 3,5 UV-I 675 W/m 10,8 C 21,4 C 3,2 km/h (1 Bft) 97,87 %
17.07.2017 10:06 21,4 C 21,7 C 49 % 1021,1 hPa 0,0 l/m 2,4 km/h (1 Bft) NO 44 2 min 0,000 mm 3,6 UV-I 675 W/m 10,2 C 21,4 C 6,4 km/h (2 Bft) 98,21 %
17.07.2017 10:08 21,3 C 21,7 C 48 % 1021,0 hPa 0,0 l/m 3,2 km/h (1 Bft) O-NO 67 2 min 0,000 mm 3,6 UV-I 680 W/m 9,8 C 21,3 C 4,8 km/h (1 Bft) 93,62 %
17.07.2017 10:10 21,4 C 21,7 C 51 % 1021,0 hPa 0,0 l/m 3,7 km/h (1 Bft) N-NO 32 2 min 0,000 mm 3,7 UV-I 687 W/m 10,8 C 21,4 C 4,8 km/h (1 Bft) 97,56 %
17.07.2017 10:12 21,6 C 21,7 C 50 % 1021,1 hPa 0,0 l/m 1,7 km/h (1 Bft) N-NO 28 2 min 0,000 mm 3,7 UV-I 688 W/m 10,7 C 21,6 C 3,2 km/h (1 Bft) 96,23 %
17.07.2017 10:14 21,9 C 21,7 C 49 % 1021,0 hPa 0,0 l/m 3,6 km/h (1 Bft) NO 41 2 min 0,000 mm 3,8 UV-I 692 W/m 10,7 C 21,9 C 6,4 km/h (2 Bft) 97,37 %
17.07.2017 10:16 22,1 C 21,7 C 49 % 1021,0 hPa 0,0 l/m 2,9 km/h (1 Bft) NW 315 2 min 0,000 mm 3,8 UV-I 694 W/m 10,9 C 22,1 C 4,8 km/h (1 Bft) 97,37 %
17.07.2017 10:18 22,0 C 21,7 C 46 % 1021,0 hPa 0,0 l/m 1,0 km/h (0 Bft) NW 323 2 min 0,000 mm 3,9 UV-I 703 W/m 9,8 C 22,0 C 4,8 km/h (1 Bft) 98,46 %
17.07.2017 10:20 21,8 C 21,7 C 46 % 1020,9 hPa 0,0 l/m 1,6 km/h (1 Bft) W-NW 282 2 min 0,000 mm 3,9 UV-I 707 W/m 9,7 C 21,8 C 4,8 km/h (1 Bft) 97,37 %
17.07.2017 10:22 21,8 C 21,7 C 47 % 1020,9 hPa 0,0 l/m 4,9 km/h (1 Bft) W 273 2 min 0,000 mm 4,0 UV-I 709 W/m 10,0 C 21,8 C 9,7 km/h (2 Bft) 100,00 %
17.07.2017 10:24 21,9 C 21,7 C 48 % 1020,9 hPa 0,0 l/m 6,1 km/h (2 Bft) W-SW 258 2 min 0,000 mm 4,0 UV-I 713 W/m 10,4 C 21,9 C 9,7 km/h (2 Bft) 95,74 %
17.07.2017 10:26 21,9 C 21,7 C 46 % 1020,9 hPa 0,0 l/m 2,9 km/h (1 Bft) W-SW 255 2 min 0,000 mm 4,1 UV-I 718 W/m 9,7 C 21,9 C 4,8 km/h (1 Bft) 100,00 %
17.07.2017 10:28 21,8 C 21,7 C 45 % 1020,9 hPa 0,0 l/m 1,9 km/h (1 Bft) W-SW 257 2 min 0,000 mm 4,1 UV-I 722 W/m 9,3 C 21,8 C 4,8 km/h (1 Bft) 96,15 %
17.07.2017 10:30 22,0 C 21,7 C 48 % 1020,9 hPa 0,0 l/m 0,2 km/h (0 Bft) W-SW 257 2 min 0,000 mm 4,2 UV-I 726 W/m 10,5 C 22,0 C 1,6 km/h (1 Bft) 100,00 %
17.07.2017 10:32 22,3 C 21,7 C 47 % 1020,9 hPa 0,0 l/m 0,8 km/h (0 Bft) W 263 2 min 0,000 mm 4,2 UV-I 730 W/m 10,4 C 22,3 C 3,2 km/h (1 Bft) 97,56 %
17.07.2017 10:34 22,4 C 21,7 C 48 % 1020,9 hPa 0,0 l/m 2,6 km/h (1 Bft) W 263 2 min 0,000 mm 4,3 UV-I 733 W/m 10,8 C 22,4 C 6,4 km/h (2 Bft) 97,87 %
17.07.2017 10:36 22,6 C 21,7 C 49 % 1020,9 hPa 0,0 l/m 3,5 km/h (1 Bft) W 263 2 min 0,000 mm 4,3 UV-I 736 W/m 11,3 C 22,6 C 6,4 km/h (2 Bft) 97,14 %
17.07.2017 10:38 22,6 C 21,7 C 45 % 1020,9 hPa 0,0 l/m 2,9 km/h (1 Bft) W 260 2 min 0,000 mm 4,4 UV-I 741 W/m 10,1 C 22,6 C 4,8 km/h (1 Bft) 93,85 %
17.07.2017 10:40 22,4 C 21,7 C 45 % 1020,9 hPa 0,0 l/m 1,5 km/h (1 Bft) N 360 2 min 0,000 mm 4,4 UV-I 745 W/m 9,9 C 22,4 C 4,8 km/h (1 Bft) 100,00 %
17.07.2017 10:42 22,7 C 21,7 C 47 % 1020,9 hPa 0,0 l/m 2,2 km/h (1 Bft) N-NO 32 2 min 0,000 mm 4,5 UV-I 745 W/m 10,8 C 22,7 C 4,8 km/h (1 Bft) 98,00 %
17.07.2017 10:44 23,0 C 21,7 C 47 % 1020,8 hPa 0,0 l/m 1,8 km/h (1 Bft) N-NO 21 2 min 0,000 mm 4,5 UV-I 748 W/m 11,1 C 23,0 C 4,8 km/h (1 Bft) 94,74 %
17.07.2017 10:46 23,3 C 21,7 C 46 % 1020,8 hPa 0,0 l/m 1,3 km/h (1 Bft) NO 38 2 min 0,000 mm 4,5 UV-I 743 W/m 11,0 C 23,3 C 3,2 km/h (1 Bft) 94,64 %
17.07.2017 10:48 23,4 C 21,7 C 47 % 1020,8 hPa 0,0 l/m 2,8 km/h (1 Bft) N-NW 329 2 min 0,000 mm 4,6 UV-I 677 W/m 11,4 C 23,4 C 8,0 km/h (2 Bft) 97,87 %
17.07.2017 10:50 23,3 C 21,7 C 42 % 1020,8 hPa 0,0 l/m 2,9 km/h (1 Bft) N-NW 344 2 min 0,000 mm 4,6 UV-I 759 W/m 9,7 C 23,3 C 6,4 km/h (2 Bft) 96,00 %
17.07.2017 10:52 23,1 C 21,7 C 43 % 1020,8 hPa 0,0 l/m 2,3 km/h (1 Bft) N-NW 329 2 min 0,000 mm 4,2 UV-I 765 W/m 9,8 C 23,1 C 6,4 km/h (2 Bft) 97,37 %
17.07.2017 10:54 23,1 C 21,7 C 44 % 1020,8 hPa 0,0 l/m 4,2 km/h (1 Bft) N-NO 24 2 min 0,000 mm 4,8 UV-I 770 W/m 10,2 C 23,1 C 6,4 km/h (2 Bft) 96,43 %
17.07.2017 10:56 23,1 C 21,7 C 44 % 1020,8 hPa 0,0 l/m 2,4 km/h (1 Bft) N-NO 24 2 min 0,000 mm 4,8 UV-I 772 W/m 10,2 C 23,1 C 4,8 km/h (1 Bft) 95,12 %
17.07.2017 10:58 22,8 C 21,7 C 43 % 1020,8 hPa 0,0 l/m 3,7 km/h (1 Bft) O-NO 69 2 min 0,000 mm 4,3 UV-I 776 W/m 9,6 C 22,8 C 6,4 km/h (2 Bft) 94,34 %
17.07.2017 11:00 22,8 C 21,7 C 46 % 1020,7 hPa 0,0 l/m 0,7 km/h (0 Bft) O 82 2 min 0,457 mm 4,9 UV-I 780 W/m 10,6 C 22,8 C 3,2 km/h (1 Bft) 91,49 %
17.07.2017 11:02 23,1 C 21,7 C 43 % 1020,8 hPa 0,0 l/m 2,2 km/h (1 Bft) NO 47 2 min 0,000 mm 4,4 UV-I 757 W/m 9,8 C 23,1 C 4,8 km/h (1 Bft) 97,87 %
17.07.2017 11:04 23,1 C 21,7 C 44 % 1020,8 hPa 0,0 l/m 2,9 km/h (1 Bft) N-NO 26 2 min 0,000 mm 5,0 UV-I 788 W/m 10,2 C 23,1 C 8,0 km/h (2 Bft) 97,73 %
17.07.2017 11:06 23,2 C 21,7 C 44 % 1020,8 hPa 0,0 l/m 2,9 km/h (1 Bft) W-NW 297 2 min 0,000 mm 5,0 UV-I 790 W/m 10,3 C 23,2 C 6,4 km/h (2 Bft) 100,00 %
17.07.2017 11:08 23,3 C 21,7 C 43 % 1020,7 hPa 0,0 l/m 3,5 km/h (1 Bft) W-NW 282 2 min 0,000 mm 3,6 UV-I 790 W/m 10,0 C 23,3 C 9,7 km/h (2 Bft) 98,11 %
17.07.2017 11:10 23,3 C 21,7 C 45 % 1020,7 hPa 0,0 l/m 4,3 km/h (1 Bft) W 272 2 min 0,000 mm 4,9 UV-I 793 W/m 10,7 C 23,3 C 9,7 km/h (2 Bft) 100,00 %
17.07.2017 11:12 23,2 C 21,7 C 43 % 1020,7 hPa 0,0 l/m 5,5 km/h (1 Bft) W-SW 252 2 min 0,000 mm 5,1 UV-I 797 W/m 9,9 C 23,2 C 11,3 km/h (2 Bft) 97,37 %
17.07.2017 11:14 23,2 C 21,7 C 43 % 1020,6 hPa 0,0 l/m 3,9 km/h (1 Bft) W 281 2 min 0,000 mm 5,2 UV-I 801 W/m 9,9 C 23,2 C 6,4 km/h (2 Bft) 90,00 %
17.07.2017 11:16 23,3 C 21,7 C 43 % 1020,6 hPa 0,0 l/m 2,7 km/h (1 Bft) W-SW 248 2 min 0,000 mm 5,3 UV-I 803 W/m 10,0 C 23,3 C 4,8 km/h (1 Bft) 94,34 %
17.07.2017 11:18 23,3 C 21,7 C 43 % 1020,6 hPa 0,0 l/m 6,6 km/h (2 Bft) SW 217 2 min 0,000 mm 5,3 UV-I 807 W/m 10,0 C 23,2 C 9,7 km/h (2 Bft) 94,00 %
17.07.2017 11:20 23,6 C 21,7 C 44 % 1020,6 hPa 0,0 l/m 5,2 km/h (1 Bft) S 186 2 min 0,000 mm 5,1 UV-I 815 W/m 10,6 C 23,6 C 8,0 km/h (2 Bft) 92,11 %
17.07.2017 11:22 23,6 C 21,7 C 43 % 1020,6 hPa 0,0 l/m 3,4 km/h (1 Bft) W-SW 240 2 min 0,000 mm 5,4 UV-I 828 W/m 10,3 C 23,6 C 8,0 km/h (2 Bft) 84,00 %
17.07.2017 11:24 23,6 C 21,7 C 43 % 1020,6 hPa 0,0 l/m 1,7 km/h (1 Bft) W-SW 238 2 min 0,000 mm 5,5 UV-I 839 W/m 10,3 C 23,6 C 4,8 km/h (1 Bft) 91,49 %
17.07.2017 11:26 23,4 C 21,7 C 42 % 1020,6 hPa 0,0 l/m 0,8 km/h (0 Bft) S-SW 200 2 min 0,000 mm 5,5 UV-I 847 W/m 9,7 C 23,4 C 3,2 km/h (1 Bft) 97,37 %
17.07.2017 11:28 23,7 C 21,7 C 43 % 1020,6 hPa 0,0 l/m 1,5 km/h (1 Bft) S-SW 197 2 min 0,000 mm 5,6 UV-I 850 W/m 10,4 C 23,7 C 3,2 km/h (1 Bft) 94,00 %
17.07.2017 11:30 23,7 C 21,7 C 42 % 1020,5 hPa 0,0 l/m 2,5 km/h (1 Bft) S-SO 162 2 min 0,000 mm 5,6 UV-I 854 W/m 10,0 C 23,7 C 4,8 km/h (1 Bft) 92,45 %
17.07.2017 11:32 23,7 C 21,7 C 41 % 1020,5 hPa 0,0 l/m 2,0 km/h (1 Bft) S-SO 162 2 min 0,000 mm 5,7 UV-I 856 W/m 9,7 C 23,7 C 6,4 km/h (2 Bft) 86,00 %
17.07.2017 11:34 23,8 C 21,7 C 40 % 1020,5 hPa 0,0 l/m 3,3 km/h (1 Bft) S-SW 202 2 min 0,000 mm 5,7 UV-I 845 W/m 9,4 C 23,8 C 6,4 km/h (2 Bft) 86,84 %
17.07.2017 11:36 23,9 C 21,7 C 40 % 1020,5 hPa 0,0 l/m 3,1 km/h (1 Bft) S-SO 161 2 min 0,000 mm 5,7 UV-I 819 W/m 9,5 C 23,9 C 8,0 km/h (2 Bft) 94,34 %
17.07.2017 11:38 24,0 C 21,7 C 40 % 1020,4 hPa 0,0 l/m 3,5 km/h (1 Bft) S 170 2 min 0,000 mm 5,8 UV-I 842 W/m 9,6 C 24,0 C 8,0 km/h (2 Bft) 92,68 %
17.07.2017 11:40 24,2 C 21,7 C 41 % 1020,4 hPa 0,0 l/m 5,1 km/h (1 Bft) SO 146 2 min 0,000 mm 5,8 UV-I 855 W/m 10,1 C 24,2 C 11,3 km/h (2 Bft) 98,11 %
17.07.2017 11:42 24,3 C 21,7 C 40 % 1020,4 hPa 0,0 l/m 1,3 km/h (1 Bft) S-SO 159 2 min 0,000 mm 5,8 UV-I 860 W/m 9,8 C 24,3 C 4,8 km/h (1 Bft) 97,62 %
17.07.2017 11:44 24,3 C 21,7 C 38 % 1020,4 hPa 0,0 l/m 3,8 km/h (1 Bft) S 180 2 min 0,000 mm 5,8 UV-I 864 W/m 9,1 C 24,3 C 9,7 km/h (2 Bft) 93,88 %
17.07.2017 11:46 23,9 C 21,7 C 39 % 1020,4 hPa 0,0 l/m 2,2 km/h (1 Bft) S-SO 148 2 min 0,000 mm 5,9 UV-I 868 W/m 9,1 C 23,9 C 6,4 km/h (2 Bft) 93,75 %
17.07.2017 11:48 24,2 C 21,7 C 43 % 1020,3 hPa 0,0 l/m 5,8 km/h (2 Bft) NO 54 2 min 0,000 mm 5,9 UV-I 871 W/m 10,8 C 24,2 C 11,3 km/h (2 Bft) 98,00 %
17.07.2017 11:50 24,4 C 21,7 C 40 % 1020,3 hPa 0,0 l/m 2,1 km/h (1 Bft) O 79 2 min 0,000 mm 5,9 UV-I 870 W/m 9,9 C 24,4 C 4,8 km/h (1 Bft) 94,74 %
17.07.2017 11:52 24,5 C 21,7 C 43 % 1020,3 hPa 0,0 l/m 3,4 km/h (1 Bft) O-NO 63 2 min 0,000 mm 6,0 UV-I 867 W/m 11,1 C 24,5 C 6,4 km/h (2 Bft) 91,07 %
17.07.2017 11:54 24,6 C 21,7 C 41 % 1020,3 hPa 0,0 l/m 4,2 km/h (1 Bft) NO 48 2 min 0,000 mm 5,9 UV-I 856 W/m 10,5 C 24,6 C 9,7 km/h (2 Bft) 91,43 %
17.07.2017 11:56 24,7 C 21,7 C 43 % 1020,3 hPa 0,0 l/m 6,0 km/h (2 Bft) NO 55 2 min 0,000 mm 5,7 UV-I 858 W/m 11,3 C 24,7 C 9,7 km/h (2 Bft) 89,83 %
17.07.2017 11:58 24,7 C 21,7 C 40 % 1020,3 hPa 0,0 l/m 4,2 km/h (1 Bft) N-NO 19 2 min 0,000 mm 6,0 UV-I 872 W/m 10,2 C 24,7 C 8,0 km/h (2 Bft) 95,12 %
17.07.2017 12:00 24,8 C 21,7 C 40 % 1020,3 hPa 0,0 l/m 2,5 km/h (1 Bft) N-NO 25 2 min 0,533 mm 5,9 UV-I 851 W/m 10,3 C 24,8 C 4,8 km/h (1 Bft) 95,74 %
17.07.2017 12:02 24,8 C 21,7 C 42 % 1020,3 hPa 0,0 l/m 1,7 km/h (1 Bft) N-NO 26 2 min 0,000 mm 6,0 UV-I 862 W/m 11,0 C 24,8 C 4,8 km/h (1 Bft) 92,00 %
17.07.2017 12:04 24,8 C 21,7 C 38 % 1020,3 hPa 0,0 l/m 1,7 km/h (1 Bft) S 173 2 min 0,000 mm 5,3 UV-I 874 W/m 9,5 C 24,8 C 4,8 km/h (1 Bft) 92,00 %
17.07.2017 12:06 25,0 C 22,2 C 39 % 1020,3 hPa 0,0 l/m 3,5 km/h (1 Bft) S-SW 211 2 min 0,000 mm 6,2 UV-I 876 W/m 10,1 C 25,0 C 8,0 km/h (2 Bft) 94,74 %
17.07.2017 12:08 25,0 C 22,2 C 39 % 1020,1 hPa 0,0 l/m 7,1 km/h (2 Bft) S 188 2 min 0,000 mm 6,3 UV-I 885 W/m 10,1 C 24,8 C 14,5 km/h (3 Bft) 94,34 %
17.07.2017 12:10 24,9 C 22,2 C 38 % 1020,1 hPa 0,0 l/m 4,5 km/h (1 Bft) S-SO 159 2 min 0,000 mm 6,3 UV-I 887 W/m 9,6 C 24,9 C 8,0 km/h (2 Bft) 95,12 %
17.07.2017 12:12 24,9 C 22,2 C 38 % 1020,1 hPa 0,0 l/m 4,6 km/h (1 Bft) S-SW 207 2 min 0,000 mm 5,2 UV-I 875 W/m 9,6 C 24,9 C 8,0 km/h (2 Bft) 94,34 %
17.07.2017 12:14 24,9 C 22,2 C 39 % 1020,1 hPa 0,0 l/m 5,6 km/h (1 Bft) W-SW 247 2 min 0,000 mm 6,0 UV-I 897 W/m 10,0 C 24,9 C 8,0 km/h (2 Bft) 94,74 %
17.07.2017 12:16 25,1 C 22,2 C 39 % 1020,1 hPa 0,0 l/m 2,3 km/h (1 Bft) O-NO 74 2 min 0,000 mm 5,2 UV-I 922 W/m 10,2 C 25,1 C 6,4 km/h (2 Bft) 98,21 %
17.07.2017 12:18 25,2 C 22,2 C 38 % 1020,0 hPa 0,0 l/m 2,7 km/h (1 Bft) S-SO 167 2 min 0,000 mm 4,0 UV-I 882 W/m 9,9 C 25,2 C 6,4 km/h (2 Bft) 92,11 %
17.07.2017 12:20 25,3 C 22,2 C 40 % 1020,0 hPa 0,0 l/m 3,8 km/h (1 Bft) O-SO 118 2 min 0,000 mm 3,9 UV-I 847 W/m 10,7 C 25,3 C 8,0 km/h (2 Bft) 96,43 %
17.07.2017 12:22 25,3 C 22,2 C 38 % 1020,1 hPa 0,0 l/m 8,9 km/h (2 Bft) O-SO 121 2 min 0,000 mm 6,2 UV-I 845 W/m 9,9 C 24,7 C 11,3 km/h (2 Bft) 95,24 %
17.07.2017 12:24 25,3 C 22,2 C 38 % 1020,0 hPa 0,0 l/m 3,3 km/h (1 Bft) S 172 2 min 0,000 mm 6,2 UV-I 847 W/m 9,9 C 25,3 C 9,7 km/h (2 Bft) 94,23 %
17.07.2017 12:26 25,3 C 22,2 C 40 % 1020,1 hPa 0,0 l/m 2,1 km/h (1 Bft) SO 138 2 min 0,000 mm 5,9 UV-I 899 W/m 10,7 C 25,3 C 6,4 km/h (2 Bft) 100,00 %
17.07.2017 12:28 25,1 C 22,2 C 37 % 1020,0 hPa 0,0 l/m 3,1 km/h (1 Bft) S-SO 151 2 min 0,000 mm 5,7 UV-I 838 W/m 9,4 C 25,1 C 6,4 km/h (2 Bft) 93,85 %
17.07.2017 12:30 24,7 C 22,2 C 38 % 1020,0 hPa 0,0 l/m 3,2 km/h (1 Bft) SO 138 2 min 0,000 mm 5,5 UV-I 814 W/m 9,4 C 24,7 C 6,4 km/h (2 Bft) 88,00 %
17.07.2017 12:32 24,8 C 22,2 C 40 % 1020,0 hPa 0,0 l/m 3,4 km/h (1 Bft) NO 49 2 min 0,000 mm 6,0 UV-I 814 W/m 10,3 C 24,8 C 6,4 km/h (2 Bft) 94,74 %
17.07.2017 12:34 24,9 C 22,2 C 39 % 1020,0 hPa 0,0 l/m 5,3 km/h (1 Bft) N-NO 29 2 min 0,000 mm 6,3 UV-I 862 W/m 10,0 C 24,9 C 11,3 km/h (2 Bft) 94,00 %
17.07.2017 12:36 25,1 C 22,2 C 41 % 1020,0 hPa 0,0 l/m 0,7 km/h (0 Bft) N-NW 346 2 min 0,000 mm 6,5 UV-I 908 W/m 10,9 C 25,1 C 3,2 km/h (1 Bft) 95,74 %
17.07.2017 12:38 25,6 C 22,2 C 39 % 1020,0 hPa 0,0 l/m 1,3 km/h (1 Bft) N-NO 18 2 min 0,000 mm 6,5 UV-I 902 W/m 10,6 C 25,6 C 3,2 km/h (1 Bft) 98,00 %
17.07.2017 12:40 25,6 C 22,2 C 37 % 1020,0 hPa 0,0 l/m 2,1 km/h (1 Bft) NO 34 2 min 0,000 mm 6,5 UV-I 906 W/m 9,8 C 25,6 C 4,8 km/h (1 Bft) 95,74 %
17.07.2017 12:42 25,3 C 22,2 C 38 % 1019,9 hPa 0,0 l/m 0,9 km/h (0 Bft) NW 321 2 min 0,000 mm 6,5 UV-I 906 W/m 9,9 C 25,3 C 4,8 km/h (1 Bft) 97,92 %
17.07.2017 12:44 25,2 C 22,2 C 40 % 1019,9 hPa 0,0 l/m 4,5 km/h (1 Bft) O-SO 123 2 min 0,000 mm 6,6 UV-I 910 W/m 10,6 C 25,2 C 9,7 km/h (2 Bft) 97,37 %
17.07.2017 12:46 25,2 C 22,2 C 39 % 1019,9 hPa 0,0 l/m 7,9 km/h (2 Bft) O-NO 61 2 min 0,000 mm 5,9 UV-I 908 W/m 10,2 C 24,8 C 11,3 km/h (2 Bft) 93,62 %
17.07.2017 12:48 25,2 C 22,2 C 41 % 1019,9 hPa 0,0 l/m 6,0 km/h (2 Bft) O-SO 106 2 min 0,000 mm 6,5 UV-I 907 W/m 11,0 C 25,2 C 9,7 km/h (2 Bft) 96,23 %
17.07.2017 12:50 25,4 C 22,2 C 39 % 1019,9 hPa 0,0 l/m 8,6 km/h (2 Bft) O 90 2 min 0,000 mm 6,5 UV-I 902 W/m 10,4 C 24,9 C 14,5 km/h (3 Bft) 95,45 %
17.07.2017 12:52 25,6 C 22,2 C 38 % 1019,9 hPa 0,0 l/m 9,2 km/h (2 Bft) O 86 2 min 0,000 mm 6,6 UV-I 904 W/m 10,2 C 25,0 C 12,9 km/h (3 Bft) 96,23 %
17.07.2017 12:54 25,6 C 22,2 C 39 % 1019,9 hPa 0,0 l/m 9,6 km/h (2 Bft) O-SO 121 2 min 0,000 mm 6,6 UV-I 906 W/m 10,6 C 24,9 C 16,1 km/h (3 Bft) 97,37 %
17.07.2017 12:56 25,7 C 22,2 C 38 % 1019,8 hPa 0,0 l/m 11,6 km/h (2 Bft) O-SO 121 2 min 0,000 mm 6,6 UV-I 904 W/m 10,3 C 24,7 C 17,7 km/h (3 Bft) 100,00 %
17.07.2017 12:58 25,7 C 22,2 C 39 % 1019,9 hPa 0,0 l/m 7,7 km/h (2 Bft) O-NO 67 2 min 0,000 mm 6,5 UV-I 900 W/m 10,7 C 25,4 C 14,5 km/h (3 Bft) 95,45 %
17.07.2017 13:00 25,7 C 22,2 C 38 % 1019,8 hPa 0,0 l/m 6,1 km/h (2 Bft) O-SO 112 2 min 0,585 mm 6,4 UV-I 893 W/m 10,3 C 25,7 C 16,1 km/h (3 Bft) 95,74 %
17.07.2017 13:02 25,7 C 22,2 C 42 % 1019,7 hPa 0,0 l/m 9,2 km/h (2 Bft) SO 134 2 min 0,000 mm 6,6 UV-I 897 W/m 11,8 C 25,1 C 14,5 km/h (3 Bft) 97,87 %
17.07.2017 13:04 25,8 C 22,2 C 37 % 1019,7 hPa 0,0 l/m 10,0 km/h (2 Bft) O-SO 116 2 min 0,000 mm 6,6 UV-I 900 W/m 10,0 C 25,0 C 16,1 km/h (3 Bft) 97,62 %
17.07.2017 13:06 25,7 C 22,2 C 39 % 1019,7 hPa 0,0 l/m 8,6 km/h (2 Bft) NO 43 2 min 0,000 mm 6,6 UV-I 901 W/m 10,7 C 25,2 C 17,7 km/h (3 Bft) 96,00 %
17.07.2017 13:08 25,4 C 22,2 C 38 % 1019,7 hPa 0,0 l/m 5,8 km/h (2 Bft) O 90 2 min 0,000 mm 6,6 UV-I 899 W/m 10,0 C 25,4 C 9,7 km/h (2 Bft) 98,11 %
17.07.2017 13:10 25,5 C 22,2 C 41 % 1019,7 hPa 0,0 l/m 3,1 km/h (1 Bft) SO 127 2 min 0,000 mm 6,2 UV-I 897 W/m 11,3 C 25,5 C 8,0 km/h (2 Bft) 95,12 %
17.07.2017 13:12 25,6 C 22,2 C 39 % 1019,6 hPa 0,0 l/m 2,7 km/h (1 Bft) S-SO 168 2 min 0,000 mm 6,6 UV-I 896 W/m 10,6 C 25,6 C 6,4 km/h (2 Bft) 96,00 %
17.07.2017 13:14 25,7 C 22,2 C 40 % 1019,7 hPa 0,0 l/m 6,5 km/h (2 Bft) S-SO 157 2 min 0,000 mm 6,5 UV-I 894 W/m 11,1 C 25,7 C 12,9 km/h (3 Bft) 93,62 %
17.07.2017 13:16 25,6 C 22,2 C 39 % 1019,6 hPa 0,0 l/m 6,1 km/h (2 Bft) SO 143 2 min 0,000 mm 6,5 UV-I 892 W/m 10,6 C 25,6 C 11,3 km/h (2 Bft) 95,12 %
17.07.2017 13:18 25,7 C 22,2 C 39 % 1019,6 hPa 0,0 l/m 11,5 km/h (2 Bft) O-SO 109 2 min 0,000 mm 6,5 UV-I 891 W/m 10,7 C 24,7 C 14,5 km/h (3 Bft) 96,43 %
17.07.2017 13:20 25,8 C 22,2 C 37 % 1019,7 hPa 0,0 l/m 5,0 km/h (1 Bft) O-SO 109 2 min 0,000 mm 6,5 UV-I 891 W/m 10,0 C 25,8 C 11,3 km/h (2 Bft) 97,56 %
17.07.2017 13:22 25,7 C 22,2 C 38 % 1019,6 hPa 0,0 l/m 4,6 km/h (1 Bft) O-SO 106 2 min 0,000 mm 6,5 UV-I 890 W/m 10,3 C 25,7 C 16,1 km/h (3 Bft) 96,23 %
17.07.2017 13:24 25,7 C 22,2 C 38 % 1019,6 hPa 0,0 l/m 6,8 km/h (2 Bft) O 80 2 min 0,000 mm 6,5 UV-I 888 W/m 10,3 C 25,6 C 16,1 km/h (3 Bft) 95,74 %
17.07.2017 13:26 25,5 C 22,8 C 39 % 1019,6 hPa 0,0 l/m 3,6 km/h (1 Bft) O-NO 65 2 min 0,000 mm 6,3 UV-I 875 W/m 10,5 C 25,5 C 6,4 km/h (2 Bft) 93,62 %
17.07.2017 13:28 25,8 C 22,2 C 40 % 1019,6 hPa 0,0 l/m 8,2 km/h (2 Bft) NO 47 2 min 0,000 mm 6,3 UV-I 875 W/m 11,2 C 25,4 C 11,3 km/h (2 Bft) 95,45 %
17.07.2017 13:30 25,9 C 22,8 C 39 % 1019,5 hPa 0,0 l/m 2,3 km/h (1 Bft) NO 49 2 min 0,000 mm 6,3 UV-I 876 W/m 10,9 C 25,9 C 8,0 km/h (2 Bft) 94,00 %
17.07.2017 13:32 25,9 C 22,8 C 40 % 1019,6 hPa 0,0 l/m 6,4 km/h (2 Bft) NO 53 2 min 0,000 mm 6,2 UV-I 862 W/m 11,3 C 25,9 C 12,9 km/h (3 Bft) 97,14 %
17.07.2017 13:34 26,0 C 22,8 C 38 % 1019,6 hPa 0,0 l/m 11,0 km/h (2 Bft) N-NO 28 2 min 0,000 mm 6,3 UV-I 875 W/m 10,6 C 25,1 C 17,7 km/h (3 Bft) 92,86 %
17.07.2017 13:36 26,1 C 22,8 C 38 % 1019,5 hPa 0,0 l/m 11,3 km/h (2 Bft) NO 47 2 min 0,000 mm 6,1 UV-I 861 W/m 10,7 C 25,2 C 16,1 km/h (3 Bft) 97,56 %
17.07.2017 13:38 25,9 C 22,8 C 40 % 1019,5 hPa 0,0 l/m 2,4 km/h (1 Bft) NO 47 2 min 0,000 mm 6,3 UV-I 870 W/m 11,3 C 25,9 C 6,4 km/h (2 Bft) 98,00 %
17.07.2017 13:40 25,8 C 22,8 C 37 % 1019,5 hPa 0,0 l/m 4,2 km/h (1 Bft) O-SO 112 2 min 0,000 mm 6,3 UV-I 875 W/m 10,0 C 25,8 C 11,3 km/h (2 Bft) 96,00 %
17.07.2017 13:42 25,8 C 22,8 C 39 % 1019,5 hPa 0,0 l/m 5,6 km/h (1 Bft) O-NO 59 2 min 0,000 mm 6,3 UV-I 875 W/m 10,8 C 25,8 C 11,3 km/h (2 Bft) 100,00 %
17.07.2017 13:44 25,9 C 22,8 C 39 % 1019,4 hPa 0,0 l/m 3,4 km/h (1 Bft) SO 144 2 min 0,000 mm 6,3 UV-I 867 W/m 10,9 C 25,9 C 8,0 km/h (2 Bft) 94,00 %
17.07.2017 13:46 26,3 C 22,8 C 40 % 1019,5 hPa 0,0 l/m 6,3 km/h (2 Bft) NO 50 2 min 0,000 mm 6,2 UV-I 850 W/m 11,6 C 26,3 C 14,5 km/h (3 Bft) 92,00 %
17.07.2017 13:49 26,1 C 22,8 C 37 % 1019,4 hPa 0,0 l/m 3,6 km/h (1 Bft) O-SO 105 3 min 0,000 mm 6,3 UV-I 874 W/m 10,3 C 26,1 C 8,0 km/h (2 Bft) 94,74 %
17.07.2017 13:50 25,9 C 22,8 C 37 % 1019,5 hPa 0,0 l/m 1,5 km/h (1 Bft) S-SO 156 1 min 0,000 mm 6,3 UV-I 875 W/m 10,1 C 25,9 C 4,8 km/h (1 Bft) 87,50 %
17.07.2017 13:52 25,8 C 22,8 C 39 % 1019,5 hPa 0,0 l/m 6,9 km/h (2 Bft) S-SW 208 2 min 0,000 mm 6,3 UV-I 877 W/m 10,8 C 25,7 C 11,3 km/h (2 Bft) 92,11 %
17.07.2017 13:54 25,9 C 22,8 C 39 % 1019,4 hPa 0,0 l/m 4,7 km/h (1 Bft) S-SO 163 2 min 0,000 mm 4,7 UV-I 875 W/m 10,9 C 25,9 C 8,0 km/h (2 Bft) 98,11 %
17.07.2017 13:56 25,8 C 22,8 C 37 % 1019,4 hPa 0,0 l/m 3,5 km/h (1 Bft) SW 225 2 min 0,000 mm 5,9 UV-I 875 W/m 10,0 C 25,8 C 8,0 km/h (2 Bft) 94,74 %
17.07.2017 13:58 25,9 C 22,8 C 39 % 1019,4 hPa 0,0 l/m 4,7 km/h (1 Bft) SW 229 2 min 0,000 mm 5,8 UV-I 866 W/m 10,9 C 25,9 C 11,3 km/h (2 Bft) 97,96 %
17.07.2017 14:00 25,9 C 22,8 C 37 % 1019,4 hPa 0,0 l/m 3,6 km/h (1 Bft) S-SW 202 2 min 0,609 mm 6,1 UV-I 864 W/m 10,1 C 25,9 C 8,0 km/h (2 Bft) 94,00 %
17.07.2017 14:02 25,9 C 22,8 C 37 % 1019,4 hPa 0,0 l/m 1,0 km/h (0 Bft) S-SW 205 2 min 0,000 mm 5,8 UV-I 869 W/m 10,1 C 25,9 C 3,2 km/h (1 Bft) 100,00 %
17.07.2017 14:04 25,7 C 22,8 C 41 % 1019,3 hPa 0,0 l/m 3,7 km/h (1 Bft) NO 40 2 min 0,000 mm 6,2 UV-I 873 W/m 11,4 C 25,7 C 9,7 km/h (2 Bft) 96,92 %
17.07.2017 14:06 25,9 C 22,8 C 38 % 1019,3 hPa 0,0 l/m 3,3 km/h (1 Bft) NO 40 2 min 0,000 mm 6,2 UV-I 844 W/m 10,5 C 25,9 C 6,4 km/h (2 Bft) 100,00 %
17.07.2017 14:08 26,1 C 22,8 C 37 % 1019,3 hPa 0,0 l/m 5,0 km/h (1 Bft) W-SW 248 2 min 0,000 mm 4,6 UV-I 861 W/m 10,3 C 26,1 C 11,3 km/h (2 Bft) 98,51 %
17.07.2017 14:10 26,2 C 22,8 C 37 % 1019,3 hPa 0,0 l/m 5,9 km/h (2 Bft) S 188 2 min 0,000 mm 6,1 UV-I 867 W/m 10,3 C 26,2 C 11,3 km/h (2 Bft) 97,73 %
17.07.2017 14:12 26,2 C 22,8 C 38 % 1019,3 hPa 0,0 l/m 9,0 km/h (2 Bft) W-SW 253 2 min 0,000 mm 6,1 UV-I 872 W/m 10,7 C 25,7 C 16,1 km/h (3 Bft) 100,00 %
17.07.2017 14:14 26,2 C 22,8 C 37 % 1019,3 hPa 0,0 l/m 8,2 km/h (2 Bft) S-SW 211 2 min 0,000 mm 6,0 UV-I 882 W/m 10,3 C 25,8 C 16,1 km/h (3 Bft) 96,23 %
17.07.2017 14:16 26,1 C 22,8 C 37 % 1019,3 hPa 0,0 l/m 6,0 km/h (2 Bft) W-NW 290 2 min 0,000 mm 5,9 UV-I 884 W/m 10,3 C 26,1 C 9,7 km/h (2 Bft) 97,56 %
17.07.2017 14:18 25,9 C 22,8 C 37 % 1019,3 hPa 0,0 l/m 5,7 km/h (1 Bft) W 276 2 min 0,000 mm 5,6 UV-I 850 W/m 10,1 C 25,9 C 11,3 km/h (2 Bft) 98,00 %
17.07.2017 14:20 25,8 C 22,8 C 38 % 1019,3 hPa 0,0 l/m 3,2 km/h (1 Bft) W-NW 301 2 min 0,000 mm 5,8 UV-I 840 W/m 10,4 C 25,8 C 6,4 km/h (2 Bft) 100,00 %
17.07.2017 14:22 25,8 C 22,8 C 37 % 1019,2 hPa 0,0 l/m 2,8 km/h (1 Bft) W-NW 289 2 min 0,000 mm 5,9 UV-I 851 W/m 10,0 C 25,8 C 6,4 km/h (2 Bft) 100,00 %
17.07.2017 14:24 26,1 C 22,8 C 40 % 1019,2 hPa 0,0 l/m 3,1 km/h (1 Bft) O-SO 120 2 min 0,000 mm 5,9 UV-I 851 W/m 11,4 C 26,1 C 6,4 km/h (2 Bft) 97,56 %
17.07.2017 14:26 26,4 C 22,8 C 39 % 1019,2 hPa 0,0 l/m 7,1 km/h (2 Bft) SO 126 2 min 0,000 mm 5,8 UV-I 848 W/m 11,3 C 26,3 C 12,9 km/h (3 Bft) 96,00 %
17.07.2017 14:28 26,5 C 22,8 C 37 % 1019,2 hPa 0,0 l/m 12,2 km/h (2 Bft) S-SO 151 2 min 0,000 mm 5,8 UV-I 844 W/m 10,6 C 25,5 C 16,1 km/h (3 Bft) 100,00 %
17.07.2017 14:30 26,2 C 22,8 C 37 % 1019,2 hPa 0,0 l/m 5,8 km/h (2 Bft) S-SW 210 2 min 0,000 mm 4,2 UV-I 713 W/m 10,3 C 26,2 C 9,7 km/h (2 Bft) 98,21 %
17.07.2017 14:32 25,9 C 22,8 C 40 % 1019,1 hPa 0,0 l/m 4,4 km/h (1 Bft) S-SO 160 0 min 0,000 mm 3,5 UV-I 306 W/m 11,3 C 25,9 C 9,7 km/h (2 Bft) 93,18 %
17.07.2017 14:34 25,9 C 22,8 C 38 % 1019,1 hPa 0,0 l/m 5,0 km/h (1 Bft) S 169 2 min 0,000 mm 5,4 UV-I 575 W/m 10,5 C 25,9 C 8,0 km/h (2 Bft) 100,00 %
17.07.2017 14:36 26,1 C 22,8 C 39 % 1019,1 hPa 0,0 l/m 6,3 km/h (2 Bft) SO 137 2 min 0,000 mm 5,6 UV-I 833 W/m 11,0 C 26,1 C 11,3 km/h (2 Bft) 98,11 %
17.07.2017 14:38 26,0 C 22,8 C 40 % 1019,0 hPa 0,0 l/m 3,1 km/h (1 Bft) S 177 2 min 0,000 mm 5,5 UV-I 815 W/m 11,3 C 26,0 C 8,0 km/h (2 Bft) 100,00 %
17.07.2017 14:40 26,3 C 22,8 C 37 % 1019,0 hPa 0,0 l/m 7,9 km/h (2 Bft) S-SO 160 2 min 0,000 mm 4,9 UV-I 831 W/m 10,4 C 26,0 C 12,9 km/h (3 Bft) 97,87 %
17.07.2017 14:42 26,4 C 22,8 C 39 % 1019,0 hPa 0,0 l/m 6,3 km/h (2 Bft) S-SO 167 2 min 0,000 mm 4,4 UV-I 828 W/m 11,3 C 26,4 C 9,7 km/h (2 Bft) 100,00 %
17.07.2017 14:44 26,6 C 22,8 C 38 % 1019,1 hPa 0,0 l/m 6,6 km/h (2 Bft) O-SO 106 2 min 0,000 mm 5,5 UV-I 829 W/m 11,1 C 26,6 C 12,9 km/h (3 Bft) 100,00 %
17.07.2017 14:46 26,6 C 22,8 C 39 % 1019,0 hPa 0,0 l/m 5,7 km/h (1 Bft) SO 130 2 min 0,000 mm 5,5 UV-I 838 W/m 11,5 C 26,6 C 14,5 km/h (3 Bft) 97,87 %
17.07.2017 14:48 26,5 C 22,8 C 38 % 1019,0 hPa 0,0 l/m 4,7 km/h (1 Bft) O 99 2 min 0,000 mm 5,5 UV-I 852 W/m 11,0 C 26,5 C 8,0 km/h (2 Bft) 96,23 %
17.07.2017 14:50 26,5 C 22,8 C 39 % 1019,0 hPa 0,0 l/m 2,1 km/h (1 Bft) S 175 2 min 0,000 mm 5,5 UV-I 865 W/m 11,4 C 26,5 C 8,0 km/h (2 Bft) 97,37 %
17.07.2017 14:52 26,9 C 22,8 C 41 % 1019,0 hPa 0,0 l/m 7,2 km/h (2 Bft) S-SW 212 2 min 0,000 mm 5,5 UV-I 850 W/m 12,5 C 26,7 C 12,9 km/h (3 Bft) 98,00 %
17.07.2017 14:54 27,0 C 22,8 C 38 % 1018,9 hPa 0,0 l/m 2,6 km/h (1 Bft) S 172 2 min 0,000 mm 5,2 UV-I 826 W/m 11,5 C 27,0 C 6,4 km/h (2 Bft) 100,00 %
17.07.2017 14:56 26,9 C 22,8 C 37 % 1018,9 hPa 0,0 l/m 2,5 km/h (1 Bft) O-SO 109 2 min 0,000 mm 5,2 UV-I 806 W/m 11,0 C 26,9 C 6,4 km/h (2 Bft) 100,00 %
17.07.2017 14:58 26,7 C 22,8 C 36 % 1018,9 hPa 0,0 l/m 1,9 km/h (1 Bft) O-SO 111 2 min 0,000 mm 5,2 UV-I 805 W/m 10,4 C 26,7 C 6,4 km/h (2 Bft) 96,00 %
17.07.2017 15:00 26,7 C 22,8 C 37 % 1018,9 hPa 0,0 l/m 4,3 km/h (1 Bft) O-NO 70 2 min 0,000 mm 5,1 UV-I 787 W/m 10,8 C 26,7 C 9,7 km/h (2 Bft) 97,22 %
17.07.2017 15:02 26,8 C 22,8 C 37 % 1018,8 hPa 0,0 l/m 9,4 km/h (2 Bft) O-NO 67 2 min 0,559 mm 5,1 UV-I 792 W/m 10,9 C 26,2 C 14,5 km/h (3 Bft) 94,00 %
17.07.2017 15:04 26,9 C 23,3 C 37 % 1018,8 hPa 0,0 l/m 2,6 km/h (1 Bft) O-SO 121 2 min 0,000 mm 5,1 UV-I 793 W/m 11,0 C 26,9 C 6,4 km/h (2 Bft) 94,64 %
17.07.2017 15:06 27,0 C 23,3 C 36 % 1018,9 hPa 0,0 l/m 3,7 km/h (1 Bft) O-NO 65 2 min 0,000 mm 5,1 UV-I 789 W/m 10,6 C 27,0 C 8,0 km/h (2 Bft) 97,56 %
17.07.2017 15:08 26,9 C 23,3 C 36 % 1018,9 hPa 0,0 l/m 1,7 km/h (1 Bft) O-NO 65 2 min 0,000 mm 5,0 UV-I 789 W/m 10,6 C 26,9 C 6,4 km/h (2 Bft) 96,23 %
17.07.2017 15:10 26,9 C 23,3 C 39 % 1018,8 hPa 0,0 l/m 1,1 km/h (1 Bft) O-NO 65 2 min 0,000 mm 4,9 UV-I 788 W/m 11,8 C 26,9 C 3,2 km/h (1 Bft) 97,87 %
17.07.2017 15:12 27,2 C 23,3 C 40 % 1018,8 hPa 0,0 l/m 0,9 km/h (0 Bft) NO 55 2 min 0,000 mm 4,9 UV-I 778 W/m 12,4 C 27,2 C 4,8 km/h (1 Bft) 97,87 %
17.07.2017 15:14 27,2 C 23,3 C 37 % 1018,8 hPa 0,0 l/m 1,4 km/h (1 Bft) SO 136 2 min 0,000 mm 4,8 UV-I 786 W/m 11,2 C 27,2 C 8,0 km/h (2 Bft) 95,12 %
17.07.2017 15:16 27,2 C 23,3 C 36 % 1018,8 hPa 0,0 l/m 4,0 km/h (1 Bft) O-SO 123 2 min 0,000 mm 4,9 UV-I 786 W/m 10,8 C 27,2 C 11,3 km/h (2 Bft) 94,00 %
17.07.2017 15:18 27,2 C 23,3 C 37 % 1018,8 hPa 0,0 l/m 9,3 km/h (2 Bft) O-NO 77 2 min 0,000 mm 4,9 UV-I 796 W/m 11,2 C 26,7 C 16,1 km/h (3 Bft) 97,73 %
17.07.2017 15:20 27,3 C 23,3 C 37 % 1018,8 hPa 0,0 l/m 7,3 km/h (2 Bft) O 94 2 min 0,000 mm 4,9 UV-I 792 W/m 11,3 C 27,1 C 12,9 km/h (3 Bft) 97,73 %
17.07.2017 15:23 27,5 C 23,3 C 37 % 1018,7 hPa 0,0 l/m 7,5 km/h (2 Bft) S-SO 150 3 min 0,000 mm 4,7 UV-I 754 W/m 11,5 C 27,3 C 17,7 km/h (3 Bft) 94,81 %
17.07.2017 15:24 27,6 C 23,3 C 36 % 1018,7 hPa 0,0 l/m 7,1 km/h (2 Bft) O 88 1 min 0,000 mm 4,6 UV-I 752 W/m 11,2 C 27,5 C 11,3 km/h (2 Bft) 100,00 %
17.07.2017 15:26 27,7 C 23,3 C 36 % 1018,7 hPa 0,0 l/m 5,4 km/h (1 Bft) O-SO 117 2 min 0,000 mm 4,7 UV-I 762 W/m 11,3 C 27,7 C 11,3 km/h (2 Bft) 94,74 %
17.07.2017 15:28 27,8 C 23,3 C 36 % 1018,7 hPa 0,0 l/m 9,5 km/h (2 Bft) SO 130 2 min 0,000 mm 4,7 UV-I 764 W/m 11,3 C 27,3 C 19,3 km/h (3 Bft) 93,18 %
17.07.2017 15:30 27,6 C 23,3 C 36 % 1018,7 hPa 0,0 l/m 8,3 km/h (2 Bft) O-SO 103 2 min 0,000 mm 4,5 UV-I 760 W/m 11,2 C 27,3 C 14,5 km/h (3 Bft) 96,00 %
17.07.2017 15:32 27,3 C 23,3 C 36 % 1018,7 hPa 0,0 l/m 5,1 km/h (1 Bft) O-SO 109 2 min 0,000 mm 4,4 UV-I 749 W/m 10,9 C 27,3 C 11,3 km/h (2 Bft) 98,11 %
17.07.2017 15:34 27,1 C 23,3 C 36 % 1018,7 hPa 0,0 l/m 5,2 km/h (1 Bft) O 98 2 min 0,000 mm 4,4 UV-I 745 W/m 10,7 C 27,1 C 11,3 km/h (2 Bft) 94,87 %
17.07.2017 15:36 26,9 C 23,3 C 38 % 1018,7 hPa 0,0 l/m 1,8 km/h (1 Bft) NO 40 2 min 0,000 mm 4,2 UV-I 715 W/m 11,4 C 26,9 C 4,8 km/h (1 Bft) 94,55 %
17.07.2017 15:38 27,0 C 23,3 C 36 % 1018,7 hPa 0,0 l/m 3,2 km/h (1 Bft) O 83 2 min 0,000 mm 4,1 UV-I 712 W/m 10,6 C 27,0 C 8,0 km/h (2 Bft) 100,00 %
17.07.2017 15:40 26,9 C 23,3 C 38 % 1018,6 hPa 0,0 l/m 2,0 km/h (1 Bft) NO 49 2 min 0,000 mm 4,1 UV-I 717 W/m 11,4 C 26,9 C 4,8 km/h (1 Bft) 95,38 %
17.07.2017 15:42 27,0 C 23,3 C 37 % 1018,6 hPa 0,0 l/m 7,3 km/h (2 Bft) O-SO 116 2 min 0,000 mm 3,8 UV-I 742 W/m 11,1 C 26,8 C 14,5 km/h (3 Bft) 96,00 %
17.07.2017 15:44 27,2 C 23,3 C 38 % 1018,6 hPa 0,0 l/m 12,1 km/h (2 Bft) N-NO 32 2 min 0,000 mm 4,0 UV-I 721 W/m 11,6 C 26,3 C 20,9 km/h (4 Bft) 95,12 %
17.07.2017 15:46 27,3 C 23,3 C 37 % 1018,6 hPa 0,0 l/m 7,8 km/h (2 Bft) N-NO 26 2 min 0,000 mm 4,0 UV-I 709 W/m 11,3 C 27,0 C 14,5 km/h (3 Bft) 94,00 %
17.07.2017 15:48 27,4 C 23,3 C 37 % 1018,5 hPa 0,0 l/m 3,3 km/h (1 Bft) N-NW 339 2 min 0,000 mm 4,2 UV-I 720 W/m 11,4 C 27,4 C 6,4 km/h (2 Bft) 94,34 %
17.07.2017 15:50 27,3 C 23,3 C 36 % 1018,6 hPa 0,0 l/m 2,4 km/h (1 Bft) N-NO 19 2 min 0,000 mm 4,1 UV-I 722 W/m 10,9 C 27,3 C 6,4 km/h (2 Bft) 97,56 %
17.07.2017 15:52 27,3 C 23,3 C 36 % 1018,6 hPa 0,0 l/m 3,9 km/h (1 Bft) N-NO 13 2 min 0,000 mm 4,1 UV-I 722 W/m 10,9 C 27,3 C 6,4 km/h (2 Bft) 96,00 %
17.07.2017 15:54 27,6 C 23,3 C 37 % 1018,6 hPa 0,0 l/m 6,8 km/h (2 Bft) O-NO 65 2 min 0,000 mm 4,0 UV-I 724 W/m 11,6 C 27,5 C 9,7 km/h (2 Bft) 95,12 %
17.07.2017 15:56 27,9 C 23,3 C 38 % 1018,6 hPa 0,0 l/m 9,3 km/h (2 Bft) NO 49 2 min 0,000 mm 4,0 UV-I 726 W/m 12,2 C 27,5 C 14,5 km/h (3 Bft) 93,62 %
17.07.2017 15:58 27,9 C 23,3 C 36 % 1018,6 hPa 0,0 l/m 5,1 km/h (1 Bft) O-NO 58 2 min 0,000 mm 4,0 UV-I 724 W/m 11,4 C 27,9 C 6,4 km/h (2 Bft) 94,00 %
17.07.2017 16:00 27,7 C 23,3 C 36 % 1018,6 hPa 0,0 l/m 2,8 km/h (1 Bft) O-NO 57 2 min 0,533 mm 4,0 UV-I 720 W/m 11,3 C 27,7 C 4,8 km/h (1 Bft) 96,00 %
17.07.2017 16:02 27,7 C 23,3 C 35 % 1018,6 hPa 0,0 l/m 3,5 km/h (1 Bft) S-SO 148 2 min 0,000 mm 3,9 UV-I 677 W/m 10,8 C 27,7 C 11,3 km/h (2 Bft) 97,14 %
17.07.2017 16:04 27,7 C 23,3 C 37 % 1018,6 hPa 0,0 l/m 3,3 km/h (1 Bft) NO 46 2 min 0,000 mm 3,8 UV-I 707 W/m 11,7 C 27,7 C 9,7 km/h (2 Bft) 96,23 %
17.07.2017 16:06 27,7 C 23,3 C 39 % 1018,5 hPa 0,0 l/m 7,1 km/h (2 Bft) NO 39 2 min 0,000 mm 3,7 UV-I 703 W/m 12,5 C 27,6 C 14,5 km/h (3 Bft) 95,74 %
17.07.2017 16:08 28,0 C 23,3 C 38 % 1018,5 hPa 0,0 l/m 9,5 km/h (2 Bft) N-NO 24 2 min 0,000 mm 3,7 UV-I 702 W/m 12,3 C 27,5 C 17,7 km/h (3 Bft) 98,00 %
17.07.2017 16:10 28,4 C 23,3 C 38 % 1018,5 hPa 0,0 l/m 5,6 km/h (1 Bft) O 82 2 min 0,000 mm 3,6 UV-I 698 W/m 12,7 C 28,4 C 16,1 km/h (3 Bft) 87,23 %
17.07.2017 16:12 28,4 C 23,3 C 36 % 1018,4 hPa 0,0 l/m 12,5 km/h (3 Bft) NO 36 2 min 0,000 mm 3,6 UV-I 693 W/m 11,9 C 27,7 C 19,3 km/h (3 Bft) 95,12 %
17.07.2017 16:14 28,3 C 23,3 C 36 % 1018,4 hPa 0,0 l/m 5,1 km/h (1 Bft) N-NW 327 2 min 0,000 mm 3,5 UV-I 683 W/m 11,8 C 28,3 C 16,1 km/h (3 Bft) 96,43 %
17.07.2017 16:16 28,2 C 23,3 C 35 % 1018,4 hPa 0,0 l/m 4,7 km/h (1 Bft) NO 44 2 min 0,000 mm 3,4 UV-I 675 W/m 11,3 C 28,2 C 9,7 km/h (2 Bft) 95,12 %
17.07.2017 16:18 28,2 C 23,3 C 36 % 1018,4 hPa 0,0 l/m 5,8 km/h (2 Bft) N-NO 17 2 min 0,000 mm 3,4 UV-I 677 W/m 11,7 C 28,2 C 12,9 km/h (3 Bft) 96,23 %
17.07.2017 16:20 28,1 C 23,3 C 39 % 1018,4 hPa 0,0 l/m 5,5 km/h (1 Bft) NO 44 2 min 0,000 mm 3,3 UV-I 680 W/m 12,8 C 28,1 C 8,0 km/h (2 Bft) 97,44 %
17.07.2017 16:22 28,2 C 23,3 C 39 % 1018,4 hPa 0,0 l/m 3,9 km/h (1 Bft) NO 42 2 min 0,000 mm 3,2 UV-I 683 W/m 12,9 C 28,2 C 8,0 km/h (2 Bft) 100,00 %
17.07.2017 16:24 28,2 C 23,3 C 36 % 1018,4 hPa 0,0 l/m 7,8 km/h (2 Bft) NO 42 2 min 0,000 mm 3,2 UV-I 653 W/m 11,7 C 28,0 C 12,9 km/h (3 Bft) 97,87 %
17.07.2017 16:26 28,2 C 23,3 C 37 % 1018,4 hPa 0,0 l/m 7,6 km/h (2 Bft) NO 40 2 min 0,000 mm 3,1 UV-I 662 W/m 12,1 C 28,0 C 9,7 km/h (2 Bft) 92,68 %
17.07.2017 16:28 28,1 C 23,3 C 36 % 1018,4 hPa 0,0 l/m 3,7 km/h (1 Bft) N 355 2 min 0,000 mm 3,1 UV-I 671 W/m 11,6 C 28,1 C 8,0 km/h (2 Bft) 97,56 %
17.07.2017 16:30 27,9 C 23,3 C 35 % 1018,4 hPa 0,0 l/m 4,8 km/h (1 Bft) NO 47 2 min 0,000 mm 3,0 UV-I 664 W/m 11,0 C 27,9 C 14,5 km/h (3 Bft) 100,00 %
17.07.2017 16:32 27,9 C 23,3 C 35 % 1018,3 hPa 0,0 l/m 9,0 km/h (2 Bft) NO 54 2 min 0,000 mm 3,0 UV-I 662 W/m 11,0 C 27,5 C 12,9 km/h (3 Bft) 97,73 %
17.07.2017 16:34 27,9 C 23,3 C 35 % 1018,3 hPa 0,0 l/m 3,8 km/h (1 Bft) NO 53 2 min 0,000 mm 2,9 UV-I 656 W/m 11,0 C 27,9 C 6,4 km/h (2 Bft) 98,31 %
17.07.2017 16:36 27,8 C 23,3 C 36 % 1018,4 hPa 0,0 l/m 4,2 km/h (1 Bft) N-NO 32 2 min 0,000 mm 2,9 UV-I 660 W/m 11,3 C 27,8 C 9,7 km/h (2 Bft) 100,00 %
17.07.2017 16:38 27,9 C 23,3 C 37 % 1018,4 hPa 0,0 l/m 5,2 km/h (1 Bft) O-NO 59 2 min 0,000 mm 2,9 UV-I 664 W/m 11,8 C 27,9 C 8,0 km/h (2 Bft) 97,56 %
17.07.2017 16:40 27,8 C 23,3 C 34 % 1018,4 hPa 0,0 l/m 2,1 km/h (1 Bft) O-NO 60 2 min 0,000 mm 2,9 UV-I 662 W/m 10,5 C 27,8 C 3,2 km/h (1 Bft) 97,87 %
17.07.2017 16:42 27,8 C 23,3 C 39 % 1018,4 hPa 0,0 l/m 7,0 km/h (2 Bft) NO 49 2 min 0,000 mm 2,8 UV-I 661 W/m 12,6 C 27,7 C 9,7 km/h (2 Bft) 98,00 %
17.07.2017 16:44 27,7 C 23,3 C 35 % 1018,4 hPa 0,0 l/m 1,9 km/h (1 Bft) O-NO 66 2 min 0,000 mm 2,7 UV-I 643 W/m 10,8 C 27,7 C 4,8 km/h (1 Bft) 97,73 %
17.07.2017 16:46 27,7 C 23,3 C 36 % 1018,3 hPa 0,0 l/m 3,3 km/h (1 Bft) NO 34 2 min 0,000 mm 2,5 UV-I 590 W/m 11,3 C 27,7 C 6,4 km/h (2 Bft) 96,00 %
17.07.2017 16:48 27,9 C 23,3 C 36 % 1018,3 hPa 0,0 l/m 6,7 km/h (2 Bft) N 355 2 min 0,000 mm 2,5 UV-I 648 W/m 11,4 C 27,9 C 12,9 km/h (3 Bft) 97,56 %
17.07.2017 16:50 27,8 C 23,3 C 35 % 1018,3 hPa 0,0 l/m 3,2 km/h (1 Bft) N-NO 32 2 min 0,000 mm 2,5 UV-I 640 W/m 10,9 C 27,8 C 4,8 km/h (1 Bft) 96,23 %
17.07.2017 16:52 27,8 C 23,3 C 36 % 1018,3 hPa 0,0 l/m 6,2 km/h (2 Bft) N-NO 30 2 min 0,000 mm 2,4 UV-I 590 W/m 11,3 C 27,8 C 8,0 km/h (2 Bft) 97,56 %
17.07.2017 16:54 27,8 C 23,3 C 36 % 1018,3 hPa 0,0 l/m 4,9 km/h (1 Bft) NO 40 2 min 0,000 mm 2,4 UV-I 615 W/m 11,3 C 27,8 C 8,0 km/h (2 Bft) 96,00 %
17.07.2017 16:56 28,1 C 23,3 C 38 % 1018,3 hPa 0,0 l/m 6,2 km/h (2 Bft) N-NO 22 2 min 0,000 mm 2,4 UV-I 627 W/m 12,4 C 28,1 C 9,7 km/h (2 Bft) 94,87 %
17.07.2017 16:58 28,4 C 23,3 C 34 % 1018,3 hPa 0,0 l/m 3,4 km/h (1 Bft) N-NW 333 2 min 0,000 mm 2,4 UV-I 613 W/m 11,0 C 28,4 C 6,4 km/h (2 Bft) 95,45 %
17.07.2017 17:00 28,3 C 23,3 C 35 % 1018,3 hPa 0,0 l/m 2,3 km/h (1 Bft) N-NW 338 2 min 0,483 mm 2,3 UV-I 618 W/m 11,4 C 28,3 C 8,0 km/h (2 Bft) 96,23 %
17.07.2017 17:02 28,3 C 23,3 C 36 % 1018,3 hPa 0,0 l/m 3,3 km/h (1 Bft) N-NO 15 2 min 0,000 mm 2,3 UV-I 618 W/m 11,8 C 28,3 C 9,7 km/h (2 Bft) 95,12 %
17.07.2017 17:04 28,1 C 23,3 C 35 % 1018,2 hPa 0,0 l/m 2,8 km/h (1 Bft) N 5 2 min 0,000 mm 2,2 UV-I 609 W/m 11,2 C 28,1 C 6,4 km/h (2 Bft) 94,34 %
17.07.2017 17:06 28,0 C 23,9 C 36 % 1018,3 hPa 0,0 l/m 1,2 km/h (1 Bft) N-NO 26 2 min 0,000 mm 2,2 UV-I 606 W/m 11,5 C 28,0 C 3,2 km/h (1 Bft) 98,00 %
17.07.2017 17:08 27,9 C 23,9 C 37 % 1018,3 hPa 0,0 l/m 3,0 km/h (1 Bft) N 355 2 min 0,000 mm 2,2 UV-I 603 W/m 11,8 C 27,9 C 6,4 km/h (2 Bft) 96,00 %
17.07.2017 17:10 27,9 C 23,9 C 36 % 1018,2 hPa 0,0 l/m 2,8 km/h (1 Bft) N-NO 26 2 min 0,000 mm 2,1 UV-I 601 W/m 11,4 C 27,9 C 8,0 km/h (2 Bft) 92,31 %
17.07.2017 17:12 27,9 C 23,9 C 39 % 1018,2 hPa 0,0 l/m 4,4 km/h (1 Bft) S-SW 194 2 min 0,000 mm 2,1 UV-I 593 W/m 12,6 C 27,9 C 8,0 km/h (2 Bft) 92,31 %
17.07.2017 17:14 28,2 C 23,9 C 36 % 1018,2 hPa 0,0 l/m 3,4 km/h (1 Bft) N 355 2 min 0,000 mm 2,0 UV-I 584 W/m 11,7 C 28,2 C 6,4 km/h (2 Bft) 95,45 %
17.07.2017 17:16 28,3 C 23,9 C 36 % 1018,2 hPa 0,0 l/m 3,5 km/h (1 Bft) N 351 2 min 0,000 mm 2,0 UV-I 582 W/m 11,8 C 28,3 C 6,4 km/h (2 Bft) 97,73 %
17.07.2017 17:18 28,1 C 23,9 C 35 % 1018,2 hPa 0,0 l/m 0,9 km/h (0 Bft) N-NW 339 2 min 0,000 mm 1,9 UV-I 572 W/m 11,2 C 28,1 C 3,2 km/h (1 Bft) 97,87 %
17.07.2017 17:20 28,1 C 23,9 C 37 % 1018,2 hPa 0,0 l/m 2,1 km/h (1 Bft) N-NO 22 2 min 0,000 mm 1,9 UV-I 578 W/m 12,0 C 28,1 C 6,4 km/h (2 Bft) 100,00 %
17.07.2017 17:22 28,0 C 23,9 C 35 % 1018,2 hPa 0,0 l/m 2,5 km/h (1 Bft) N-NO 13 2 min 0,000 mm 1,6 UV-I 490 W/m 11,1 C 28,0 C 6,4 km/h (2 Bft) 96,00 %
17.07.2017 17:24 27,6 C 23,9 C 35 % 1018,2 hPa 0,0 l/m 2,5 km/h (1 Bft) N-NW 328 0 min 0,000 mm 1,6 UV-I 252 W/m 10,7 C 27,6 C 4,8 km/h (1 Bft) 94,74 %
17.07.2017 17:26 27,5 C 23,9 C 36 % 1018,1 hPa 0,0 l/m 1,2 km/h (1 Bft) N-NW 331 2 min 0,000 mm 1,8 UV-I 543 W/m 11,1 C 27,5 C 3,2 km/h (1 Bft) 100,00 %
17.07.2017 17:28 27,6 C 23,9 C 37 % 1018,2 hPa 0,0 l/m 5,4 km/h (1 Bft) N 5 2 min 0,000 mm 1,8 UV-I 533 W/m 11,6 C 27,6 C 14,5 km/h (3 Bft) 98,15 %
17.07.2017 17:30 27,9 C 23,9 C 37 % 1018,1 hPa 0,0 l/m 3,0 km/h (1 Bft) N-NO 25 2 min 0,000 mm 1,8 UV-I 528 W/m 11,8 C 27,9 C 8,0 km/h (2 Bft) 97,87 %
17.07.2017 17:32 28,0 C 23,9 C 36 % 1018,1 hPa 0,0 l/m 3,1 km/h (1 Bft) N-NW 339 2 min 0,000 mm 1,7 UV-I 510 W/m 11,5 C 28,0 C 6,4 km/h (2 Bft) 98,11 %
17.07.2017 17:34 28,0 C 23,9 C 36 % 1018,0 hPa 0,0 l/m 2,8 km/h (1 Bft) N-NW 332 2 min 0,000 mm 1,6 UV-I 511 W/m 11,5 C 28,0 C 4,8 km/h (1 Bft) 95,74 %
17.07.2017 17:36 28,0 C 23,9 C 36 % 1018,0 hPa 0,0 l/m 2,8 km/h (1 Bft) NO 46 2 min 0,000 mm 1,6 UV-I 497 W/m 11,5 C 28,0 C 6,4 km/h (2 Bft) 97,44 %
17.07.2017 17:38 27,9 C 23,9 C 36 % 1018,0 hPa 0,0 l/m 3,2 km/h (1 Bft) NW 319 2 min 0,000 mm 1,6 UV-I 348 W/m 11,4 C 27,9 C 6,4 km/h (2 Bft) 98,08 %
17.07.2017 17:40 27,9 C 23,9 C 36 % 1018,1 hPa 0,0 l/m 1,6 km/h (1 Bft) NW 321 2 min 0,000 mm 1,5 UV-I 539 W/m 11,4 C 27,9 C 4,8 km/h (1 Bft) 100,00 %
17.07.2017 17:42 27,6 C 23,9 C 35 % 1018,0 hPa 0,0 l/m 1,8 km/h (1 Bft) NO 42 2 min 0,000 mm 1,3 UV-I 475 W/m 10,7 C 27,6 C 4,8 km/h (1 Bft) 97,56 %
17.07.2017 17:44 27,4 C 23,9 C 36 % 1018,1 hPa 0,0 l/m 2,3 km/h (1 Bft) N-NO 23 0 min 0,000 mm 1,1 UV-I 173 W/m 11,0 C 27,4 C 6,4 km/h (2 Bft) 98,11 %
17.07.2017 17:46 27,2 C 23,9 C 37 % 1018,1 hPa 0,0 l/m 3,0 km/h (1 Bft) N 9 0 min 0,000 mm 1,1 UV-I 171 W/m 11,2 C 27,2 C 8,0 km/h (2 Bft) 100,00 %
17.07.2017 17:48 27,1 C 23,9 C 37 % 1018,1 hPa 0,0 l/m 2,8 km/h (1 Bft) N 9 0 min 0,000 mm 1,1 UV-I 167 W/m 11,1 C 27,1 C 4,8 km/h (1 Bft) 94,29 %
17.07.2017 17:50 26,9 C 23,9 C 38 % 1018,0 hPa 0,0 l/m 0,2 km/h (0 Bft) N 5 0 min 0,000 mm 1,0 UV-I 171 W/m 11,4 C 26,9 C 1,6 km/h (1 Bft) 100,00 %
17.07.2017 17:52 26,8 C 23,9 C 38 % 1018,1 hPa 0,0 l/m 0,9 km/h (0 Bft) N-NW 348 0 min 0,000 mm 1,0 UV-I 164 W/m 11,3 C 26,8 C 3,2 km/h (1 Bft) 95,74 %
17.07.2017 17:54 26,7 C 23,9 C 38 % 1018,0 hPa 0,0 l/m 1,8 km/h (1 Bft) N-NO 24 0 min 0,000 mm 1,0 UV-I 158 W/m 11,2 C 26,7 C 6,4 km/h (2 Bft) 97,56 %
17.07.2017 17:56 26,6 C 23,9 C 40 % 1018,0 hPa 0,0 l/m 3,6 km/h (1 Bft) N-NO 26 0 min 0,000 mm 0,9 UV-I 150 W/m 11,9 C 26,6 C 6,4 km/h (2 Bft) 100,00 %
17.07.2017 17:58 26,5 C 23,9 C 40 % 1018,1 hPa 0,0 l/m 2,1 km/h (1 Bft) N-NO 25 0 min 0,000 mm 0,9 UV-I 146 W/m 11,8 C 26,5 C 6,4 km/h (2 Bft) 97,87 %
17.07.2017 18:00 26,5 C 23,9 C 40 % 1018,0 hPa 0,0 l/m 3,5 km/h (1 Bft) N-NO 25 0 min 0,000 mm 0,9 UV-I 140 W/m 11,8 C 26,5 C 6,4 km/h (2 Bft) 100,00 %
17.07.2017 18:02 26,4 C 23,9 C 39 % 1018,0 hPa 0,0 l/m 1,8 km/h (1 Bft) N-NO 25 0 min 0,305 mm 0,9 UV-I 139 W/m 11,3 C 26,4 C 6,4 km/h (2 Bft) 98,00 %
17.07.2017 18:04 26,3 C 23,9 C 41 % 1018,0 hPa 0,0 l/m 5,7 km/h (1 Bft) N-NO 25 0 min 0,000 mm 0,9 UV-I 140 W/m 12,0 C 26,3 C 9,7 km/h (2 Bft) 100,00 %
17.07.2017 18:06 26,3 C 23,9 C 40 % 1018,0 hPa 0,0 l/m 2,6 km/h (1 Bft) N-NO 20 0 min 0,000 mm 0,9 UV-I 135 W/m 11,6 C 26,3 C 4,8 km/h (1 Bft) 98,00 %
17.07.2017 18:08 26,2 C 23,9 C 39 % 1018,0 hPa 0,0 l/m 3,5 km/h (1 Bft) N-NO 17 0 min 0,000 mm 0,8 UV-I 130 W/m 11,1 C 26,2 C 6,4 km/h (2 Bft) 100,00 %
17.07.2017 18:10 26,2 C 23,9 C 39 % 1017,9 hPa 0,0 l/m 1,0 km/h (0 Bft) N-NO 17 0 min 0,000 mm 0,8 UV-I 193 W/m 11,1 C 26,2 C 3,2 km/h (1 Bft) 98,08 %
17.07.2017 18:12 26,3 C 23,9 C 40 % 1017,9 hPa 0,0 l/m 1,1 km/h (1 Bft) N-NO 15 2 min 0,000 mm 0,9 UV-I 258 W/m 11,6 C 26,3 C 4,8 km/h (1 Bft) 97,78 %
17.07.2017 18:14 26,5 C 23,9 C 40 % 1017,9 hPa 0,0 l/m 0,6 km/h (0 Bft) N-NO 15 2 min 0,000 mm 0,9 UV-I 339 W/m 11,8 C 26,5 C 3,2 km/h (1 Bft) 97,87 %
17.07.2017 18:16 26,7 C 23,9 C 40 % 1017,9 hPa 0,0 l/m 2,0 km/h (1 Bft) N 9 2 min 0,000 mm 0,9 UV-I 357 W/m 12,0 C 26,7 C 4,8 km/h (1 Bft) 100,00 %
17.07.2017 18:18 26,8 C 23,9 C 40 % 1017,9 hPa 0,0 l/m 3,9 km/h (1 Bft) N 9 2 min 0,000 mm 0,9 UV-I 322 W/m 12,1 C 26,8 C 8,0 km/h (2 Bft) 100,00 %
17.07.2017 18:20 26,8 C 23,9 C 40 % 1017,9 hPa 0,0 l/m 2,1 km/h (1 Bft) N-NO 16 2 min 0,000 mm 0,8 UV-I 332 W/m 12,1 C 26,8 C 4,8 km/h (1 Bft) 98,15 %
17.07.2017 18:22 26,7 C 23,9 C 40 % 1017,8 hPa 0,0 l/m 2,1 km/h (1 Bft) N 5 0 min 0,000 mm 0,8 UV-I 212 W/m 12,0 C 26,7 C 4,8 km/h (1 Bft) 100,00 %
17.07.2017 18:24 26,7 C 23,9 C 40 % 1017,9 hPa 0,0 l/m 4,4 km/h (1 Bft) NO 43 2 min 0,000 mm 0,8 UV-I 226 W/m 12,0 C 26,7 C 8,0 km/h (2 Bft) 96,00 %
17.07.2017 18:26 26,7 C 23,9 C 40 % 1017,9 hPa 0,0 l/m 5,8 km/h (2 Bft) NO 42 2 min 0,000 mm 0,7 UV-I 261 W/m 12,0 C 26,7 C 8,0 km/h (2 Bft) 100,00 %
17.07.2017 18:28 26,6 C 23,9 C 40 % 1017,8 hPa 0,0 l/m 5,3 km/h (1 Bft) N-NO 22 0 min 0,000 mm 0,7 UV-I 134 W/m 11,9 C 26,6 C 11,3 km/h (2 Bft) 98,21 %
17.07.2017 18:30 26,5 C 23,9 C 40 % 1017,8 hPa 0,0 l/m 4,8 km/h (1 Bft) N-NO 15 0 min 0,000 mm 0,6 UV-I 132 W/m 11,8 C 26,5 C 11,3 km/h (2 Bft) 94,74 %
17.07.2017 18:32 26,4 C 23,9 C 42 % 1017,8 hPa 0,0 l/m 2,3 km/h (1 Bft) N-NW 336 0 min 0,000 mm 0,6 UV-I 127 W/m 12,4 C 26,4 C 3,2 km/h (1 Bft) 96,00 %
17.07.2017 18:34 26,3 C 23,9 C 41 % 1017,8 hPa 0,0 l/m 1,0 km/h (0 Bft) N-NW 346 0 min 0,000 mm 0,6 UV-I 116 W/m 12,0 C 26,3 C 4,8 km/h (1 Bft) 93,62 %
17.07.2017 18:36 26,2 C 23,9 C 41 % 1017,8 hPa 0,0 l/m 0,8 km/h (0 Bft) NW 306 0 min 0,000 mm 0,5 UV-I 105 W/m 11,9 C 26,2 C 4,8 km/h (1 Bft) 98,11 %
17.07.2017 18:38 26,1 C 23,9 C 42 % 1017,8 hPa 0,0 l/m 0,9 km/h (0 Bft) N 350 0 min 0,000 mm 0,5 UV-I 99 W/m 12,2 C 26,1 C 4,8 km/h (1 Bft) 92,11 %
17.07.2017 18:40 25,9 C 23,9 C 43 % 1017,8 hPa 0,0 l/m 2,2 km/h (1 Bft) N 355 0 min 0,000 mm 0,5 UV-I 97 W/m 12,3 C 25,9 C 4,8 km/h (1 Bft) 94,64 %
17.07.2017 18:42 25,8 C 23,9 C 43 % 1017,8 hPa 0,0 l/m 0,3 km/h (0 Bft) N-NW 337 0 min 0,000 mm 0,5 UV-I 96 W/m 12,3 C 25,8 C 1,6 km/h (1 Bft) 92,11 %
17.07.2017 18:44 25,8 C 23,9 C 42 % 1017,8 hPa 0,0 l/m 3,3 km/h (1 Bft) N-NW 331 0 min 0,000 mm 0,5 UV-I 106 W/m 11,9 C 25,8 C 9,7 km/h (2 Bft) 92,86 %
17.07.2017 18:46 25,7 C 23,9 C 43 % 1017,8 hPa 0,0 l/m 5,4 km/h (1 Bft) N-NW 329 0 min 0,000 mm 0,5 UV-I 161 W/m 12,2 C 25,7 C 12,9 km/h (3 Bft) 94,44 %
17.07.2017 18:48 25,7 C 23,9 C 43 % 1017,9 hPa 0,0 l/m 5,3 km/h (1 Bft) NW 317 2 min 0,000 mm 0,5 UV-I 233 W/m 12,2 C 25,7 C 14,5 km/h (3 Bft) 94,64 %
17.07.2017 18:50 25,7 C 23,9 C 43 % 1017,8 hPa 0,0 l/m 5,3 km/h (1 Bft) O 84 2 min 0,000 mm 0,5 UV-I 211 W/m 12,2 C 25,7 C 8,0 km/h (2 Bft) 90,91 %
17.07.2017 18:52 25,7 C 23,9 C 43 % 1017,9 hPa 0,0 l/m 5,1 km/h (1 Bft) N-NW 348 2 min 0,000 mm 0,5 UV-I 263 W/m 12,2 C 25,7 C 12,9 km/h (3 Bft) 95,24 %
17.07.2017 18:54 25,8 C 23,9 C 43 % 1017,8 hPa 0,0 l/m 5,4 km/h (1 Bft) NW 313 2 min 0,000 mm 0,5 UV-I 272 W/m 12,3 C 25,8 C 14,5 km/h (3 Bft) 92,45 %
17.07.2017 18:56 25,9 C 23,9 C 43 % 1017,9 hPa 0,0 l/m 4,6 km/h (1 Bft) N 349 2 min 0,000 mm 0,5 UV-I 275 W/m 12,3 C 25,9 C 11,3 km/h (2 Bft) 92,11 %
17.07.2017 18:58 26,1 C 23,9 C 42 % 1017,9 hPa 0,0 l/m 4,3 km/h (1 Bft) N-NO 13 2 min 0,000 mm 0,5 UV-I 270 W/m 12,2 C 26,1 C 8,0 km/h (2 Bft) 94,92 %
17.07.2017 19:00 26,1 C 23,9 C 43 % 1017,9 hPa 0,0 l/m 3,1 km/h (1 Bft) NW 319 2 min 0,000 mm 0,2 UV-I 257 W/m 12,5 C 26,1 C 8,0 km/h (2 Bft) 94,29 %
17.07.2017 19:02 26,2 C 23,9 C 42 % 1017,9 hPa 0,0 l/m 5,2 km/h (1 Bft) NW 320 2 min 0,178 mm 0,0 UV-I 243 W/m 12,3 C 26,2 C 11,3 km/h (2 Bft) 92,86 %
17.07.2017 19:04 26,2 C 23,9 C 42 % 1017,9 hPa 0,0 l/m 6,1 km/h (2 Bft) W-NW 297 2 min 0,000 mm 0,0 UV-I 219 W/m 12,3 C 26,2 C 17,7 km/h (3 Bft) 97,73 %
17.07.2017 19:06 26,2 C 23,9 C 42 % 1018,0 hPa 0,0 l/m 7,4 km/h (2 Bft) N-NW 327 2 min 0,000 mm 0,0 UV-I 226 W/m 12,3 C 26,0 C 16,1 km/h (3 Bft) 97,56 %
17.07.2017 19:08 26,1 C 23,9 C 43 % 1018,0 hPa 0,0 l/m 3,7 km/h (1 Bft) N-NW 347 2 min 0,000 mm 0,0 UV-I 233 W/m 12,5 C 26,1 C 9,7 km/h (2 Bft) 92,86 %
17.07.2017 19:10 26,1 C 23,9 C 43 % 1018,0 hPa 0,0 l/m 4,2 km/h (1 Bft) W-NW 290 2 min 0,000 mm 0,0 UV-I 151 W/m 12,5 C 26,1 C 8,0 km/h (2 Bft) 100,00 %
17.07.2017 19:12 26,0 C 23,9 C 43 % 1018,0 hPa 0,0 l/m 3,2 km/h (1 Bft) N-NW 348 2 min 0,000 mm 0,0 UV-I 173 W/m 12,4 C 26,0 C 4,8 km/h (1 Bft) 94,55 %
17.07.2017 19:14 25,9 C 23,9 C 43 % 1018,0 hPa 0,0 l/m 1,9 km/h (1 Bft) N-NW 327 2 min 0,000 mm 0,0 UV-I 194 W/m 12,3 C 25,9 C 4,8 km/h (1 Bft) 90,57 %
17.07.2017 19:16 25,9 C 23,9 C 43 % 1018,0 hPa 0,0 l/m 3,5 km/h (1 Bft) N-NW 346 2 min 0,000 mm 0,0 UV-I 200 W/m 12,3 C 25,9 C 11,3 km/h (2 Bft) 90,00 %
17.07.2017 19:18 25,9 C 23,9 C 43 % 1018,0 hPa 0,0 l/m 3,3 km/h (1 Bft) N-NW 329 2 min 0,000 mm 0,0 UV-I 198 W/m 12,3 C 25,9 C 9,7 km/h (2 Bft) 94,00 %
17.07.2017 19:20 25,9 C 23,9 C 43 % 1018,0 hPa 0,0 l/m 2,8 km/h (1 Bft) NW 305 2 min 0,000 mm 0,0 UV-I 190 W/m 12,3 C 25,9 C 8,0 km/h (2 Bft) 97,14 %
17.07.2017 19:22 25,9 C 23,9 C 43 % 1018,0 hPa 0,0 l/m 3,0 km/h (1 Bft) N-NO 23 2 min 0,000 mm 0,0 UV-I 179 W/m 12,3 C 25,9 C 4,8 km/h (1 Bft) 96,23 %
17.07.2017 19:24 25,9 C 23,9 C 44 % 1018,0 hPa 0,0 l/m 1,9 km/h (1 Bft) N-NW 331 2 min 0,000 mm 0,0 UV-I 159 W/m 12,7 C 25,9 C 4,8 km/h (1 Bft) 92,00 %
17.07.2017 19:26 25,9 C 23,9 C 43 % 1018,0 hPa 0,0 l/m 2,1 km/h (1 Bft) W-NW 296 2 min 0,000 mm 0,0 UV-I 144 W/m 12,3 C 25,9 C 4,8 km/h (1 Bft) 92,68 %
17.07.2017 19:28 25,8 C 23,9 C 43 % 1018,0 hPa 0,0 l/m 3,3 km/h (1 Bft) NW 313 0 min 0,000 mm 0,0 UV-I 80 W/m 12,3 C 25,8 C 6,4 km/h (2 Bft) 98,00 %
17.07.2017 19:30 25,6 C 23,9 C 44 % 1018,0 hPa 0,0 l/m 1,6 km/h (1 Bft) N 355 0 min 0,000 mm 0,0 UV-I 60 W/m 12,4 C 25,6 C 3,2 km/h (1 Bft) 98,00 %
17.07.2017 19:32 25,4 C 23,9 C 44 % 1018,0 hPa 0,0 l/m 0,8 km/h (0 Bft) N-NW 338 0 min 0,000 mm 0,0 UV-I 52 W/m 12,2 C 25,4 C 1,6 km/h (1 Bft) 95,74 %
17.07.2017 19:34 25,2 C 23,9 C 45 % 1018,0 hPa 0,0 l/m 2,1 km/h (1 Bft) N 9 0 min 0,000 mm 0,0 UV-I 47 W/m 12,4 C 25,2 C 11,3 km/h (2 Bft) 96,00 %
17.07.2017 19:36 25,1 C 23,9 C 45 % 1018,0 hPa 0,0 l/m 2,2 km/h (1 Bft) N-NO 12 0 min 0,000 mm 0,0 UV-I 46 W/m 12,3 C 25,1 C 6,4 km/h (2 Bft) 94,87 %
17.07.2017 19:38 24,9 C 23,9 C 46 % 1018,0 hPa 0,0 l/m 2,5 km/h (1 Bft) N-NO 19 0 min 0,000 mm 0,0 UV-I 42 W/m 12,5 C 24,9 C 6,4 km/h (2 Bft) 94,34 %
17.07.2017 19:40 24,7 C 23,9 C 46 % 1017,9 hPa 0,0 l/m 0,9 km/h (0 Bft) N-NO 17 0 min 0,000 mm 0,0 UV-I 40 W/m 12,3 C 24,7 C 1,6 km/h (1 Bft) 97,37 %
17.07.2017 19:42 24,6 C 23,9 C 47 % 1017,9 hPa 0,0 l/m 1,3 km/h (1 Bft) N 5 0 min 0,000 mm 0,0 UV-I 40 W/m 12,5 C 24,6 C 4,8 km/h (1 Bft) 96,43 %
17.07.2017 19:44 24,6 C 23,9 C 47 % 1017,9 hPa 0,0 l/m 1,0 km/h (0 Bft) N-NW 346 0 min 0,000 mm 0,0 UV-I 40 W/m 12,5 C 24,6 C 3,2 km/h (1 Bft) 97,37 %
17.07.2017 19:46 24,5 C 23,9 C 47 % 1017,9 hPa 0,0 l/m 1,2 km/h (1 Bft) N-NW 347 0 min 0,000 mm 0,0 UV-I 40 W/m 12,4 C 24,5 C 3,2 km/h (1 Bft) 96,00 %
17.07.2017 19:48 24,4 C 23,9 C 47 % 1017,9 hPa 0,0 l/m 2,6 km/h (1 Bft) NW 319 0 min 0,000 mm 0,0 UV-I 43 W/m 12,3 C 24,4 C 6,4 km/h (2 Bft) 100,00 %
17.07.2017 19:50 24,3 C 23,9 C 48 % 1018,0 hPa 0,0 l/m 0,8 km/h (0 Bft) N-NW 329 0 min 0,000 mm 0,0 UV-I 42 W/m 12,6 C 24,3 C 1,6 km/h (1 Bft) 97,73 %
17.07.2017 19:52 24,3 C 23,9 C 48 % 1018,0 hPa 0,0 l/m 1,1 km/h (1 Bft) NW 319 0 min 0,000 mm 0,0 UV-I 39 W/m 12,6 C 24,3 C 3,2 km/h (1 Bft) 98,00 %
17.07.2017 19:54 24,3 C 23,9 C 48 % 1018,0 hPa 0,0 l/m 3,0 km/h (1 Bft) NW 322 0 min 0,000 mm 0,0 UV-I 35 W/m 12,6 C 24,3 C 6,4 km/h (2 Bft) 97,56 %
17.07.2017 19:56 24,3 C 23,9 C 48 % 1018,0 hPa 0,0 l/m 1,4 km/h (1 Bft) N-NW 338 0 min 0,000 mm 0,0 UV-I 36 W/m 12,6 C 24,3 C 3,2 km/h (1 Bft) 98,11 %
17.07.2017 19:58 24,2 C 23,9 C 49 % 1018,0 hPa 0,0 l/m 1,7 km/h (1 Bft) N-NW 335 0 min 0,000 mm 0,0 UV-I 37 W/m 12,8 C 24,2 C 4,8 km/h (1 Bft) 100,00 %
17.07.2017 20:00 24,2 C 23,9 C 49 % 1018,0 hPa 0,0 l/m 1,2 km/h (1 Bft) N-NW 333 0 min 0,000 mm 0,0 UV-I 36 W/m 12,8 C 24,2 C 3,2 km/h (1 Bft) 100,00 %
17.07.2017 20:02 24,1 C 23,3 C 49 % 1018,0 hPa 0,0 l/m 0,0 km/h (0 Bft) N-NW 333 0 min 0,101 mm 0,0 UV-I 35 W/m 12,7 C 24,1 C 1,6 km/h (1 Bft) 100,00 %
17.07.2017 20:04 24,1 C 23,3 C 49 % 1018,0 hPa 0,0 l/m 0,0 km/h (0 Bft) N-NW 333 0 min 0,000 mm 0,0 UV-I 35 W/m 12,7 C 24,1 C 0,0 km/h (0 Bft) 96,00 %
17.07.2017 20:06 24,0 C 23,3 C 49 % 1018,0 hPa 0,0 l/m 0,5 km/h (0 Bft) N-NW 335 0 min 0,000 mm 0,0 UV-I 33 W/m 12,6 C 24,0 C 3,2 km/h (1 Bft) 100,00 %
17.07.2017 20:08 24,1 C 23,3 C 50 % 1018,0 hPa 0,0 l/m 0,2 km/h (0 Bft) N-NW 335 0 min 0,000 mm 0,0 UV-I 33 W/m 13,0 C 24,1 C 1,6 km/h (1 Bft) 98,00 %
17.07.2017 20:10 24,0 C 23,3 C 50 % 1018,0 hPa 0,0 l/m 0,2 km/h (0 Bft) N-NW 335 0 min 0,000 mm 0,0 UV-I 32 W/m 12,9 C 24,0 C 1,6 km/h (1 Bft) 94,00 %
17.07.2017 20:12 24,1 C 23,3 C 50 % 1018,0 hPa 0,0 l/m 0,7 km/h (0 Bft) N-NW 335 0 min 0,000 mm 0,0 UV-I 30 W/m 13,0 C 24,1 C 3,2 km/h (1 Bft) 96,00 %
17.07.2017 20:14 24,0 C 23,3 C 50 % 1018,0 hPa 0,0 l/m 0,1 km/h (0 Bft) N-NW 335 0 min 0,000 mm 0,0 UV-I 41 W/m 12,9 C 24,0 C 1,6 km/h (1 Bft) 100,00 %
17.07.2017 20:16 24,0 C 23,3 C 50 % 1018,1 hPa 0,0 l/m 0,6 km/h (0 Bft) N-NW 335 0 min 0,000 mm 0,0 UV-I 44 W/m 12,9 C 24,0 C 3,2 km/h (1 Bft) 97,87 %
17.07.2017 20:18 24,1 C 23,3 C 50 % 1018,1 hPa 0,0 l/m 0,0 km/h (0 Bft) N-NW 335 0 min 0,000 mm 0,0 UV-I 42 W/m 13,0 C 24,1 C 1,6 km/h (1 Bft) 100,00 %
17.07.2017 20:20 24,1 C 23,3 C 50 % 1018,1 hPa 0,0 l/m 0,4 km/h (0 Bft) N-NW 335 0 min 0,000 mm 0,0 UV-I 42 W/m 13,0 C 24,1 C 3,2 km/h (1 Bft) 96,00 %
17.07.2017 20:22 24,1 C 23,3 C 50 % 1018,1 hPa 0,0 l/m 0,5 km/h (0 Bft) N-NW 335 0 min 0,000 mm 0,0 UV-I 40 W/m 13,0 C 24,1 C 1,6 km/h (1 Bft) 96,23 %
17.07.2017 20:24 24,1 C 23,3 C 50 % 1018,0 hPa 0,0 l/m 0,0 km/h (0 Bft) N-NW 335 2 min 0,000 mm 0,0 UV-I 38 W/m 13,0 C 24,1 C 0,0 km/h (0 Bft) 97,37 %
17.07.2017 20:26 24,2 C 23,3 C 50 % 1018,1 hPa 0,0 l/m 0,4 km/h (0 Bft) N-NW 335 2 min 0,000 mm 0,0 UV-I 37 W/m 13,1 C 24,2 C 1,6 km/h (1 Bft) 98,00 %
17.07.2017 20:28 24,2 C 23,3 C 51 % 1018,1 hPa 0,0 l/m 0,0 km/h (0 Bft) N-NW 335 2 min 0,000 mm 0,0 UV-I 34 W/m 13,4 C 24,2 C 1,6 km/h (1 Bft) 96,00 %
17.07.2017 20:30 24,1 C 23,3 C 53 % 1018,1 hPa 0,0 l/m 0,4 km/h (0 Bft) N-NW 335 2 min 0,000 mm 0,0 UV-I 32 W/m 13,9 C 24,1 C 1,6 km/h (1 Bft) 97,87 %
17.07.2017 20:32 24,0 C 23,3 C 53 % 1018,0 hPa 0,0 l/m 0,9 km/h (0 Bft) N-NW 335 2 min 0,000 mm 0,0 UV-I 31 W/m 13,8 C 24,0 C 1,6 km/h (1 Bft) 96,00 %
17.07.2017 20:34 23,9 C 23,3 C 53 % 1018,1 hPa 0,0 l/m 0,0 km/h (0 Bft) N-NW 335 2 min 0,000 mm 0,0 UV-I 29 W/m 13,7 C 23,9 C 0,0 km/h (0 Bft) 94,74 %
17.07.2017 20:36 23,8 C 23,3 C 55 % 1018,1 hPa 0,0 l/m 0,0 km/h (0 Bft) N-NW 335 2 min 0,000 mm 0,0 UV-I 26 W/m 14,2 C 23,8 C 0,0 km/h (0 Bft) 97,87 %
17.07.2017 20:38 23,7 C 23,3 C 55 % 1018,2 hPa 0,0 l/m 0,0 km/h (0 Bft) N-NW 335 2 min 0,000 mm 0,0 UV-I 22 W/m 14,1 C 23,7 C 0,0 km/h (0 Bft) 97,87 %
17.07.2017 20:40 23,6 C 23,3 C 55 % 1018,2 hPa 0,0 l/m 0,2 km/h (0 Bft) N-NW 335 2 min 0,000 mm 0,0 UV-I 19 W/m 14,0 C 23,6 C 1,6 km/h (1 Bft) 95,45 %
17.07.2017 20:42 23,6 C 23,3 C 55 % 1018,2 hPa 0,0 l/m 0,1 km/h (0 Bft) N-NW 335 2 min 0,000 mm 0,0 UV-I 15 W/m 14,0 C 23,6 C 1,6 km/h (1 Bft) 98,11 %
17.07.2017 20:44 23,6 C 23,3 C 54 % 1018,2 hPa 0,0 l/m 0,0 km/h (0 Bft) N-NW 335 2 min 0,000 mm 0,0 UV-I 12 W/m 13,7 C 23,6 C 0,0 km/h (0 Bft) 95,74 %
17.07.2017 20:46 23,6 C 23,3 C 55 % 1018,2 hPa 0,0 l/m 0,0 km/h (0 Bft) N-NW 335 0 min 0,000 mm 0,0 UV-I 11 W/m 14,0 C 23,6 C 0,0 km/h (0 Bft) 93,62 %
17.07.2017 20:48 23,6 C 23,3 C 56 % 1018,2 hPa 0,0 l/m 0,0 km/h (0 Bft) N-NW 335 0 min 0,000 mm 0,0 UV-I 9 W/m 14,3 C 23,6 C 0,0 km/h (0 Bft) 95,74 %
17.07.2017 20:50 23,4 C 23,3 C 57 % 1018,2 hPa 0,0 l/m 0,0 km/h (0 Bft) N-NW 335 0 min 0,000 mm 0,0 UV-I 8 W/m 14,4 C 23,4 C 1,6 km/h (1 Bft) 93,62 %
17.07.2017 20:52 23,3 C 23,3 C 56 % 1018,2 hPa 0,0 l/m 0,0 km/h (0 Bft) N-NW 335 0 min 0,000 mm 0,0 UV-I 7 W/m 14,0 C 23,3 C 0,0 km/h (0 Bft) 94,00 %
17.07.2017 20:54 23,3 C 23,3 C 57 % 1018,3 hPa 0,0 l/m 0,2 km/h (0 Bft) N-NW 335 0 min 0,000 mm 0,0 UV-I 7 W/m 14,3 C 23,3 C 1,6 km/h (1 Bft) 100,00 %
17.07.2017 20:56 23,2 C 23,3 C 59 % 1018,3 hPa 0,0 l/m 0,0 km/h (0 Bft) N-NW 335 0 min 0,000 mm 0,0 UV-I 5 W/m 14,7 C 23,2 C 0,0 km/h (0 Bft) 98,11 %
17.07.2017 20:58 23,1 C 23,3 C 59 % 1018,3 hPa 0,0 l/m 0,0 km/h (0 Bft) N-NW 335 0 min 0,000 mm 0,0 UV-I 5 W/m 14,6 C 23,1 C 0,0 km/h (0 Bft) 100,00 %
17.07.2017 21:00 23,1 C 23,3 C 60 % 1018,2 hPa 0,0 l/m 0,0 km/h (0 Bft) N-NW 335 0 min 0,000 mm 0,0 UV-I 5 W/m 14,9 C 23,1 C 0,0 km/h (0 Bft) 97,87 %
17.07.2017 21:02 23,1 C 23,3 C 60 % 1018,2 hPa 0,0 l/m 0,0 km/h (0 Bft) N-NW 335 0 min 0,026 mm 0,0 UV-I 5 W/m 14,9 C 23,1 C 0,0 km/h (0 Bft) 100,00 %
17.07.2017 21:04 23,0 C 23,3 C 59 % 1018,3 hPa 0,0 l/m 0,0 km/h (0 Bft) N-NW 335 0 min 0,000 mm 0,0 UV-I 5 W/m 14,5 C 23,0 C 0,0 km/h (0 Bft) 95,12 %
17.07.2017 21:06 22,9 C 23,3 C 59 % 1018,3 hPa 0,0 l/m 0,0 km/h (0 Bft) N-NW 335 0 min 0,000 mm 0,0 UV-I 5 W/m 14,5 C 22,9 C 0,0 km/h (0 Bft) 98,11 %
17.07.2017 21:08 22,8 C 23,3 C 59 % 1018,3 hPa 0,0 l/m 0,0 km/h (0 Bft) N-NW 335 0 min 0,000 mm 0,0 UV-I 2 W/m 14,4 C 22,8 C 0,0 km/h (0 Bft) 100,00 %
17.07.2017 21:10 22,8 C 23,3 C 60 % 1018,3 hPa 0,0 l/m 0,0 km/h (0 Bft) N-NW 335 0 min 0,000 mm 0,0 UV-I 0 W/m 14,6 C 22,8 C 0,0 km/h (0 Bft) 97,37 %
17.07.2017 21:12 22,8 C 23,3 C 60 % 1018,3 hPa 0,0 l/m 0,0 km/h (0 Bft) N-NW 335 0 min 0,000 mm 0,0 UV-I 0 W/m 14,6 C 22,8 C 0,0 km/h (0 Bft) 100,00 %
17.07.2017 21:14 22,7 C 23,3 C 60 % 1018,4 hPa 0,0 l/m 0,1 km/h (0 Bft) N-NW 335 0 min 0,000 mm 0,0 UV-I 0 W/m 14,5 C 22,7 C 1,6 km/h (1 Bft) 97,87 %
17.07.2017 21:16 22,7 C 23,3 C 58 % 1018,4 hPa 0,0 l/m 0,0 km/h (0 Bft) N-NW 335 0 min 0,000 mm 0,0 UV-I 0 W/m 14,0 C 22,7 C 1,6 km/h (1 Bft) 100,00 %
17.07.2017 21:18 22,7 C 23,3 C 58 % 1018,3 hPa 0,0 l/m 0,0 km/h (0 Bft) N-NW 335 0 min 0,000 mm 0,0 UV-I 0 W/m 14,0 C 22,7 C 1,6 km/h (1 Bft) 98,11 %
17.07.2017 21:20 22,7 C 23,3 C 60 % 1018,3 hPa 0,0 l/m 0,0 km/h (0 Bft) N-NW 335 0 min 0,000 mm 0,0 UV-I 0 W/m 14,5 C 22,7 C 0,0 km/h (0 Bft) 100,00 %
17.07.2017 21:22 22,7 C 23,3 C 59 % 1018,3 hPa 0,0 l/m 0,1 km/h (0 Bft) N-NW 335 0 min 0,000 mm 0,0 UV-I 0 W/m 14,3 C 22,7 C 1,6 km/h (1 Bft) 98,00 %
17.07.2017 21:24 22,7 C 23,3 C 58 % 1018,3 hPa 0,0 l/m 0,0 km/h (0 Bft) N-NW 335 0 min 0,000 mm 0,0 UV-I 0 W/m 14,0 C 22,7 C 1,6 km/h (1 Bft) 100,00 %
17.07.2017 21:26 22,7 C 23,3 C 59 % 1018,3 hPa 0,0 l/m 0,0 km/h (0 Bft) N-NW 335 0 min 0,000 mm 0,0 UV-I 0 W/m 14,3 C 22,7 C 0,0 km/h (0 Bft) 96,00 %
17.07.2017 21:28 22,8 C 23,3 C 59 % 1018,4 hPa 0,0 l/m 0,1 km/h (0 Bft) N-NW 335 0 min 0,000 mm 0,0 UV-I 0 W/m 14,4 C 22,8 C 1,6 km/h (1 Bft) 100,00 %
17.07.2017 21:30 22,8 C 23,3 C 59 % 1018,4 hPa 0,0 l/m 0,2 km/h (0 Bft) N-NW 335 0 min 0,000 mm 0,0 UV-I 0 W/m 14,4 C 22,8 C 1,6 km/h (1 Bft) 94,00 %
17.07.2017 21:32 22,7 C 23,3 C 60 % 1018,4 hPa 0,0 l/m 0,0 km/h (0 Bft) N-NW 335 0 min 0,000 mm 0,0 UV-I 0 W/m 14,5 C 22,7 C 1,6 km/h (1 Bft) 98,00 %
17.07.2017 21:34 22,4 C 23,3 C 62 % 1018,4 hPa 0,0 l/m 0,0 km/h (0 Bft) N-NW 335 0 min 0,000 mm 0,0 UV-I 0 W/m 14,8 C 22,4 C 1,6 km/h (1 Bft) 100,00 %
17.07.2017 21:36 22,3 C 23,3 C 62 % 1018,4 hPa 0,0 l/m 1,0 km/h (0 Bft) N-NW 335 0 min 0,000 mm 0,0 UV-I 0 W/m 14,7 C 22,3 C 3,2 km/h (1 Bft) 97,96 %
17.07.2017 21:38 22,1 C 23,3 C 63 % 1018,4 hPa 0,0 l/m 1,9 km/h (1 Bft) N-NW 335 0 min 0,000 mm 0,0 UV-I 0 W/m 14,7 C 22,1 C 3,2 km/h (1 Bft) 100,00 %
17.07.2017 21:40 22,1 C 23,3 C 63 % 1018,4 hPa 0,0 l/m 0,4 km/h (0 Bft) N-NW 335 0 min 0,000 mm 0,0 UV-I 0 W/m 14,7 C 22,1 C 1,6 km/h (1 Bft) 97,87 %
17.07.2017 21:42 22,0 C 23,3 C 62 % 1018,4 hPa 0,0 l/m 0,0 km/h (0 Bft) N-NW 335 0 min 0,000 mm 0,0 UV-I 0 W/m 14,4 C 22,0 C 0,0 km/h (0 Bft) 95,74 %
17.07.2017 21:44 21,9 C 23,3 C 63 % 1018,4 hPa 0,0 l/m 2,3 km/h (1 Bft) O-NO 72 0 min 0,000 mm 0,0 UV-I 0 W/m 14,5 C 21,9 C 8,0 km/h (2 Bft) 100,00 %
17.07.2017 21:46 21,8 C 23,3 C 63 % 1018,4 hPa 0,0 l/m 7,3 km/h (2 Bft) O 82 0 min 0,000 mm 0,0 UV-I 0 W/m 14,4 C 21,5 C 11,3 km/h (2 Bft) 98,00 %
17.07.2017 21:48 21,8 C 23,3 C 63 % 1018,4 hPa 0,0 l/m 4,3 km/h (1 Bft) O 79 0 min 0,000 mm 0,0 UV-I 0 W/m 14,4 C 21,8 C 6,4 km/h (2 Bft) 100,00 %
17.07.2017 21:50 21,7 C 23,3 C 63 % 1018,4 hPa 0,0 l/m 4,9 km/h (1 Bft) O 79 0 min 0,000 mm 0,0 UV-I 0 W/m 14,3 C 21,7 C 6,4 km/h (2 Bft) 97,56 %
17.07.2017 21:52 21,7 C 23,3 C 63 % 1018,5 hPa 0,0 l/m 3,9 km/h (1 Bft) O 79 0 min 0,000 mm 0,0 UV-I 0 W/m 14,3 C 21,7 C 6,4 km/h (2 Bft) 98,11 %
17.07.2017 21:54 21,7 C 23,3 C 64 % 1018,5 hPa 0,0 l/m 3,0 km/h (1 Bft) O 79 0 min 0,000 mm 0,0 UV-I 0 W/m 14,6 C 21,7 C 4,8 km/h (1 Bft) 97,50 %
17.07.2017 21:56 21,4 C 23,3 C 64 % 1018,4 hPa 0,0 l/m 2,6 km/h (1 Bft) O 79 0 min 0,000 mm 0,0 UV-I 0 W/m 14,3 C 21,4 C 3,2 km/h (1 Bft) 98,00 %
17.07.2017 21:58 21,3 C 23,3 C 64 % 1018,5 hPa 0,0 l/m 1,2 km/h (1 Bft) O 79 0 min 0,000 mm 0,0 UV-I 0 W/m 14,2 C 21,3 C 3,2 km/h (1 Bft) 100,00 %
17.07.2017 22:00 21,2 C 23,3 C 64 % 1018,5 hPa 0,0 l/m 0,3 km/h (0 Bft) O 79 0 min 0,025 mm 0,0 UV-I 0 W/m 14,1 C 21,2 C 1,6 km/h (1 Bft) 97,37 %
17.07.2017 22:02 21,2 C 23,3 C 64 % 1018,4 hPa 0,0 l/m 1,3 km/h (1 Bft) O 79 0 min 0,000 mm 0,0 UV-I 0 W/m 14,1 C 21,2 C 3,2 km/h (1 Bft) 100,00 %
17.07.2017 22:04 21,3 C 23,3 C 63 % 1018,5 hPa 0,0 l/m 0,2 km/h (0 Bft) O 79 0 min 0,000 mm 0,0 UV-I 0 W/m 14,0 C 21,3 C 1,6 km/h (1 Bft) 97,87 %
17.07.2017 22:06 21,3 C 23,3 C 64 % 1018,4 hPa 0,0 l/m 0,0 km/h (0 Bft) O 79 0 min 0,000 mm 0,0 UV-I 0 W/m 14,2 C 21,3 C 0,0 km/h (0 Bft) 98,11 %
17.07.2017 22:08 21,3 C 23,3 C 64 % 1018,5 hPa 0,0 l/m 0,0 km/h (0 Bft) O 79 0 min 0,000 mm 0,0 UV-I 0 W/m 14,2 C 21,3 C 0,0 km/h (0 Bft) 100,00 %
17.07.2017 22:10 21,2 C 23,3 C 65 % 1018,5 hPa 0,0 l/m 0,0 km/h (0 Bft) O 79 0 min 0,000 mm 0,0 UV-I 0 W/m 14,4 C 21,2 C 0,0 km/h (0 Bft) 98,11 %
17.07.2017 22:12 21,2 C 23,3 C 65 % 1018,4 hPa 0,0 l/m 0,0 km/h (0 Bft) O 79 0 min 0,000 mm 0,0 UV-I 0 W/m 14,4 C 21,2 C 0,0 km/h (0 Bft) 97,87 %
17.07.2017 22:14 21,2 C 23,3 C 65 % 1018,5 hPa 0,0 l/m 0,0 km/h (0 Bft) O 79 0 min 0,000 mm 0,0 UV-I 0 W/m 14,4 C 21,2 C 0,0 km/h (0 Bft) 96,00 %
17.07.2017 22:16 21,1 C 23,3 C 65 % 1018,5 hPa 0,0 l/m 0,0 km/h (0 Bft) O 79 0 min 0,000 mm 0,0 UV-I 0 W/m 14,3 C 21,1 C 0,0 km/h (0 Bft) 97,37 %
17.07.2017 22:18 20,9 C 23,3 C 66 % 1018,5 hPa 0,0 l/m 0,0 km/h (0 Bft) O 79 0 min 0,000 mm 0,0 UV-I 0 W/m 14,3 C 20,9 C 0,0 km/h (0 Bft) 98,11 %
17.07.2017 22:20 20,7 C 23,3 C 66 % 1018,5 hPa 0,0 l/m 0,0 km/h (0 Bft) O 79 0 min 0,000 mm 0,0 UV-I 0 W/m 14,1 C 20,7 C 0,0 km/h (0 Bft) 97,87 %
17.07.2017 22:23 20,5 C 23,3 C 68 % 1018,5 hPa 0,0 l/m 0,0 km/h (0 Bft) O 79 0 min 0,000 mm 0,0 UV-I 0 W/m 14,4 C 20,5 C 0,0 km/h (0 Bft) 97,01 %
17.07.2017 22:24 20,4 C 23,3 C 68 % 1018,5 hPa 0,0 l/m 0,0 km/h (0 Bft) O 79 0 min 0,000 mm 0,0 UV-I 0 W/m 14,3 C 20,4 C 0,0 km/h (0 Bft) 100,00 %
17.07.2017 22:26 20,4 C 23,3 C 69 % 1018,5 hPa 0,0 l/m 1,1 km/h (1 Bft) O 79 0 min 0,000 mm 0,0 UV-I 0 W/m 14,5 C 20,4 C 1,6 km/h (1 Bft) 98,00 %
17.07.2017 22:28 20,4 C 23,3 C 68 % 1018,5 hPa 0,0 l/m 1,8 km/h (1 Bft) O 79 0 min 0,000 mm 0,0 UV-I 0 W/m 14,3 C 20,4 C 3,2 km/h (1 Bft) 93,62 %
17.07.2017 22:30 20,4 C 23,3 C 69 % 1018,5 hPa 0,0 l/m 2,4 km/h (1 Bft) O 79 0 min 0,000 mm 0,0 UV-I 0 W/m 14,5 C 20,4 C 3,2 km/h (1 Bft) 97,56 %
17.07.2017 22:32 20,4 C 23,3 C 69 % 1018,5 hPa 0,0 l/m 2,2 km/h (1 Bft) O 79 0 min 0,000 mm 0,0 UV-I 0 W/m 14,5 C 20,4 C 3,2 km/h (1 Bft) 95,74 %
17.07.2017 22:34 20,3 C 23,3 C 69 % 1018,5 hPa 0,0 l/m 1,4 km/h (1 Bft) O 79 0 min 0,000 mm 0,0 UV-I 0 W/m 14,4 C 20,3 C 1,6 km/h (1 Bft) 92,00 %
17.07.2017 22:36 20,1 C 23,3 C 70 % 1018,5 hPa 0,0 l/m 1,4 km/h (1 Bft) O 79 0 min 0,000 mm 0,0 UV-I 0 W/m 14,5 C 20,1 C 1,6 km/h (1 Bft) 93,62 %
17.07.2017 22:38 19,9 C 23,3 C 71 % 1018,5 hPa 0,0 l/m 2,4 km/h (1 Bft) O 79 0 min 0,000 mm 0,0 UV-I 0 W/m 14,5 C 19,9 C 3,2 km/h (1 Bft) 95,74 %
17.07.2017 22:40 19,8 C 23,3 C 71 % 1018,5 hPa 0,0 l/m 2,0 km/h (1 Bft) O 79 0 min 0,000 mm 0,0 UV-I 0 W/m 14,4 C 19,8 C 3,2 km/h (1 Bft) 91,49 %
17.07.2017 22:42 19,7 C 23,3 C 72 % 1018,4 hPa 0,0 l/m 3,1 km/h (1 Bft) O 79 0 min 0,000 mm 0,0 UV-I 0 W/m 14,5 C 19,7 C 4,8 km/h (1 Bft) 94,87 %
17.07.2017 22:44 19,6 C 23,3 C 72 % 1018,5 hPa 0,0 l/m 2,5 km/h (1 Bft) O 79 0 min 0,000 mm 0,0 UV-I 0 W/m 14,4 C 19,6 C 3,2 km/h (1 Bft) 92,31 %
17.07.2017 22:46 19,6 C 23,3 C 72 % 1018,5 hPa 0,0 l/m 2,6 km/h (1 Bft) O 79 0 min 0,000 mm 0,0 UV-I 0 W/m 14,4 C 19,6 C 3,2 km/h (1 Bft) 88,68 %
17.07.2017 22:48 19,5 C 23,3 C 73 % 1018,5 hPa 0,0 l/m 2,2 km/h (1 Bft) O 79 0 min 0,000 mm 0,0 UV-I 0 W/m 14,5 C 19,5 C 3,2 km/h (1 Bft) 94,87 %
17.07.2017 22:50 19,6 C 23,3 C 72 % 1018,5 hPa 0,0 l/m 3,5 km/h (1 Bft) O 82 0 min 0,000 mm 0,0 UV-I 0 W/m 14,4 C 19,6 C 4,8 km/h (1 Bft) 94,64 %
17.07.2017 22:52 19,6 C 23,3 C 72 % 1018,5 hPa 0,0 l/m 3,3 km/h (1 Bft) O 82 0 min 0,000 mm 0,0 UV-I 0 W/m 14,4 C 19,6 C 4,8 km/h (1 Bft) 97,87 %
17.07.2017 22:54 19,6 C 23,3 C 71 % 1018,6 hPa 0,0 l/m 2,8 km/h (1 Bft) O 82 0 min 0,000 mm 0,0 UV-I 0 W/m 14,2 C 19,6 C 3,2 km/h (1 Bft) 97,14 %
17.07.2017 22:56 19,5 C 23,3 C 71 % 1018,6 hPa 0,0 l/m 1,8 km/h (1 Bft) O 82 0 min 0,000 mm 0,0 UV-I 0 W/m 14,1 C 19,5 C 3,2 km/h (1 Bft) 96,23 %
17.07.2017 22:58 19,4 C 23,3 C 71 % 1018,5 hPa 0,0 l/m 2,3 km/h (1 Bft) O 82 0 min 0,000 mm 0,0 UV-I 0 W/m 14,0 C 19,4 C 3,2 km/h (1 Bft) 97,87 %
17.07.2017 23:00 19,4 C 23,3 C 71 % 1018,5 hPa 0,0 l/m 2,6 km/h (1 Bft) O 82 0 min 0,000 mm 0,0 UV-I 0 W/m 14,0 C 19,4 C 3,2 km/h (1 Bft) 98,00 %
17.07.2017 23:02 19,4 C 23,3 C 71 % 1018,6 hPa 0,0 l/m 3,4 km/h (1 Bft) O 86 0 min 0,025 mm 0,0 UV-I 0 W/m 14,0 C 19,4 C 4,8 km/h (1 Bft) 95,24 %
17.07.2017 23:04 19,4 C 23,3 C 71 % 1018,6 hPa 0,0 l/m 2,7 km/h (1 Bft) O 86 0 min 0,000 mm 0,0 UV-I 0 W/m 14,0 C 19,4 C 4,8 km/h (1 Bft) 96,00 %
17.07.2017 23:06 19,3 C 23,3 C 72 % 1018,6 hPa 0,0 l/m 3,8 km/h (1 Bft) O-SO 119 0 min 0,000 mm 0,0 UV-I 0 W/m 14,1 C 19,3 C 4,8 km/h (1 Bft) 93,62 %
17.07.2017 23:08 19,3 C 23,3 C 72 % 1018,6 hPa 0,0 l/m 3,7 km/h (1 Bft) SO 127 0 min 0,000 mm 0,0 UV-I 0 W/m 14,1 C 19,3 C 4,8 km/h (1 Bft) 98,00 %
17.07.2017 23:10 19,2 C 23,3 C 72 % 1018,7 hPa 0,0 l/m 3,5 km/h (1 Bft) SO 130 0 min 0,000 mm 0,0 UV-I 0 W/m 14,0 C 19,2 C 4,8 km/h (1 Bft) 94,74 %
17.07.2017 23:12 19,1 C 23,3 C 72 % 1018,6 hPa 0,0 l/m 4,1 km/h (1 Bft) SO 130 0 min 0,000 mm 0,0 UV-I 0 W/m 13,9 C 19,1 C 6,4 km/h (2 Bft) 97,87 %
17.07.2017 23:14 19,1 C 23,3 C 73 % 1018,6 hPa 0,0 l/m 3,4 km/h (1 Bft) SO 130 0 min 0,000 mm 0,0 UV-I 0 W/m 14,1 C 19,1 C 4,8 km/h (1 Bft) 96,00 %
17.07.2017 23:16 19,0 C 23,3 C 73 % 1018,6 hPa 0,0 l/m 3,8 km/h (1 Bft) SO 131 0 min 0,000 mm 0,0 UV-I 0 W/m 14,0 C 19,0 C 4,8 km/h (1 Bft) 95,00 %
17.07.2017 23:18 19,0 C 23,3 C 73 % 1018,6 hPa 0,0 l/m 3,0 km/h (1 Bft) SO 131 0 min 0,000 mm 0,0 UV-I 0 W/m 14,0 C 19,0 C 4,8 km/h (1 Bft) 98,11 %
17.07.2017 23:20 19,1 C 23,3 C 72 % 1018,6 hPa 0,0 l/m 2,2 km/h (1 Bft) SO 131 0 min 0,000 mm 0,0 UV-I 0 W/m 13,9 C 19,1 C 4,8 km/h (1 Bft) 95,74 %
17.07.2017 23:22 19,1 C 23,3 C 71 % 1018,6 hPa 0,0 l/m 2,3 km/h (1 Bft) SO 131 0 min 0,000 mm 0,0 UV-I 0 W/m 13,7 C 19,1 C 3,2 km/h (1 Bft) 93,62 %
17.07.2017 23:24 19,2 C 23,3 C 71 % 1018,6 hPa 0,0 l/m 2,0 km/h (1 Bft) SO 131 0 min 0,000 mm 0,0 UV-I 0 W/m 13,8 C 19,2 C 3,2 km/h (1 Bft) 94,44 %
17.07.2017 23:26 19,3 C 23,3 C 70 % 1018,6 hPa 0,0 l/m 2,8 km/h (1 Bft) SO 131 0 min 0,000 mm 0,0 UV-I 0 W/m 13,7 C 19,3 C 4,8 km/h (1 Bft) 96,43 %
17.07.2017 23:28 19,4 C 23,3 C 70 % 1018,5 hPa 0,0 l/m 2,6 km/h (1 Bft) SO 131 0 min 0,000 mm 0,0 UV-I 0 W/m 13,8 C 19,4 C 3,2 km/h (1 Bft) 95,74 %
17.07.2017 23:30 19,5 C 23,3 C 70 % 1018,6 hPa 0,0 l/m 2,5 km/h (1 Bft) SO 131 0 min 0,000 mm 0,0 UV-I 0 W/m 13,9 C 19,5 C 4,8 km/h (1 Bft) 94,34 %
17.07.2017 23:32 19,5 C 23,3 C 71 % 1018,5 hPa 0,0 l/m 3,7 km/h (1 Bft) SO 132 0 min 0,000 mm 0,0 UV-I 0 W/m 14,1 C 19,5 C 4,8 km/h (1 Bft) 94,74 %
17.07.2017 23:34 19,3 C 23,3 C 71 % 1018,5 hPa 0,0 l/m 4,5 km/h (1 Bft) SO 132 0 min 0,000 mm 0,0 UV-I 0 W/m 13,9 C 19,3 C 4,8 km/h (1 Bft) 95,92 %
17.07.2017 23:36 19,2 C 23,3 C 72 % 1018,6 hPa 0,0 l/m 4,9 km/h (1 Bft) SO 134 0 min 0,000 mm 0,0 UV-I 0 W/m 14,0 C 19,2 C 6,4 km/h (2 Bft) 98,00 %
17.07.2017 23:38 19,0 C 23,3 C 73 % 1018,6 hPa 0,0 l/m 5,5 km/h (1 Bft) S 190 0 min 0,000 mm 0,0 UV-I 0 W/m 14,0 C 19,0 C 8,0 km/h (2 Bft) 97,87 %
17.07.2017 23:40 18,9 C 23,3 C 74 % 1018,6 hPa 0,0 l/m 4,8 km/h (1 Bft) S 190 0 min 0,000 mm 0,0 UV-I 0 W/m 14,2 C 18,9 C 6,4 km/h (2 Bft) 98,00 %
17.07.2017 23:42 18,8 C 23,3 C 74 % 1018,6 hPa 0,0 l/m 4,1 km/h (1 Bft) S 190 0 min 0,000 mm 0,0 UV-I 0 W/m 14,1 C 18,8 C 4,8 km/h (1 Bft) 97,37 %
17.07.2017 23:44 18,6 C 23,3 C 74 % 1018,6 hPa 0,0 l/m 3,7 km/h (1 Bft) S 190 0 min 0,000 mm 0,0 UV-I 0 W/m 13,9 C 18,6 C 4,8 km/h (1 Bft) 96,23 %
17.07.2017 23:46 18,5 C 23,3 C 75 % 1018,6 hPa 0,0 l/m 3,9 km/h (1 Bft) S 190 0 min 0,000 mm 0,0 UV-I 0 W/m 14,0 C 18,5 C 4,8 km/h (1 Bft) 95,45 %
17.07.2017 23:48 18,5 C 23,3 C 75 % 1018,5 hPa 0,0 l/m 3,4 km/h (1 Bft) S 190 0 min 0,000 mm 0,0 UV-I 0 W/m 14,0 C 18,5 C 4,8 km/h (1 Bft) 97,56 %
17.07.2017 23:50 18,5 C 23,3 C 75 % 1018,6 hPa 0,0 l/m 2,6 km/h (1 Bft) S 190 0 min 0,000 mm 0,0 UV-I 0 W/m 14,0 C 18,5 C 3,2 km/h (1 Bft) 98,11 %
17.07.2017 23:52 18,5 C 23,3 C 75 % 1018,6 hPa 0,0 l/m 3,2 km/h (1 Bft) S 190 0 min 0,000 mm 0,0 UV-I 0 W/m 14,0 C 18,5 C 4,8 km/h (1 Bft) 100,00 %
17.07.2017 23:54 18,6 C 23,3 C 74 % 1018,6 hPa 0,0 l/m 3,3 km/h (1 Bft) S 190 0 min 0,000 mm 0,0 UV-I 0 W/m 13,9 C 18,6 C 4,8 km/h (1 Bft) 98,00 %
17.07.2017 23:56 18,7 C 23,3 C 74 % 1018,5 hPa 0,0 l/m 2,5 km/h (1 Bft) S 190 0 min 0,000 mm 0,0 UV-I 0 W/m 14,0 C 18,7 C 3,2 km/h (1 Bft) 95,74 %
17.07.2017 23:58 18,8 C 23,3 C 73 % 1018,6 hPa 0,0 l/m 2,2 km/h (1 Bft) S 190 0 min 0,000 mm 0,0 UV-I 0 W/m 13,9 C 18,8 C 3,2 km/h (1 Bft) 100,00 %
_ Min-Zeit 05:36 02:14 16:40 18:22 - 04:30 - - - - - - 05:48 05:36 04:30 11:22
Minimum _ 11,2 C 21,1 C 34 % 1017,8 hPa - 0,0 km/h (0 Bft) - - - - - - 8,7 C 11,2 C 0,0 km/h (0 Bft) 84,00 %
_ Max-Zeit 16:10 17:06 06:14 00:00 00:00 16:12 - - 13:49 14:00 12:44 12:16 21:00 16:10 15:44 00:06
Maximum _ 28,4 C 23,9 C 86 % 1021,8 hPa 0,0 l/m 12,5 km/h
NO (3 Bft)
- - 3 min 0,609 mm 6,6 UV-I 922 W/m 14,9 C 28,4 C 20,9 km/h
O-NO (4 Bft)
100,00 %
Durchschnitt _ 20,4 C 22,3 C 58 % 1019,9 hPa #0,0 l/m 3,1 km/h (1 Bft) S-SW - #12:48 h #5,359 mm 3,6 UV-I 481 W/m 11,0 C 20,4 C 6,0 km/h (2 Bft) 96,32 %